<?xml version='1.0' encoding='UTF-8'?>
<gpx version="1.1" creator="https://www.komoot.de" xmlns="http://www.topografix.com/GPX/1/1" xmlns:xsi="http://www.w3.org/2001/XMLSchema-instance" xsi:schemaLocation="http://www.topografix.com/GPX/1/1 http://www.topografix.com/GPX/1/1/gpx.xsd">
  <metadata>
    <name>62_550SteinenWeil</name>
    <author>
      <link href="https://www.komoot.de">
        <text>komoot</text>
        <type>text/html</type>
      </link>
    </author>
  </metadata>
  <trk>
    <name>62_550SteinenWeil</name>
    <trkseg>
      <trkpt lat="47.541095" lon="7.871052">
        <ele>339.246573</ele>
        <time>2021-11-16T22:49:58.391Z</time>
      </trkpt>
      <trkpt lat="47.541410" lon="7.870791">
        <ele>339.246573</ele>
        <time>2021-11-16T22:50:03.514Z</time>
      </trkpt>
      <trkpt lat="47.541576" lon="7.870664">
        <ele>339.246573</ele>
        <time>2021-11-16T22:50:05.938Z</time>
      </trkpt>
      <trkpt lat="47.541550" lon="7.870601">
        <ele>339.246573</ele>
        <time>2021-11-16T22:50:06.741Z</time>
      </trkpt>
      <trkpt lat="47.541521" lon="7.870517">
        <ele>339.246573</ele>
        <time>2021-11-16T22:50:07.789Z</time>
      </trkpt>
      <trkpt lat="47.541606" lon="7.870424">
        <ele>339.246573</ele>
        <time>2021-11-16T22:50:09.453Z</time>
      </trkpt>
      <trkpt lat="47.541910" lon="7.870106">
        <ele>339.065752</ele>
        <time>2021-11-16T22:50:15.114Z</time>
      </trkpt>
      <trkpt lat="47.542014" lon="7.870126">
        <ele>338.986673</ele>
        <time>2021-11-16T22:50:16.573Z</time>
      </trkpt>
      <trkpt lat="47.542118" lon="7.870135">
        <ele>338.908117</ele>
        <time>2021-11-16T22:50:18.301Z</time>
      </trkpt>
      <trkpt lat="47.542181" lon="7.870131">
        <ele>338.860568</ele>
        <time>2021-11-16T22:50:19.182Z</time>
      </trkpt>
      <trkpt lat="47.542317" lon="7.870012">
        <ele>338.741463</ele>
        <time>2021-11-16T22:50:21.293Z</time>
      </trkpt>
      <trkpt lat="47.542348" lon="7.869983">
        <ele>338.713816</ele>
        <time>2021-11-16T22:50:21.730Z</time>
      </trkpt>
      <trkpt lat="47.542329" lon="7.869820">
        <ele>338.629618</ele>
        <time>2021-11-16T22:50:23.499Z</time>
      </trkpt>
      <trkpt lat="47.542372" lon="7.869746">
        <ele>338.579916</ele>
        <time>2021-11-16T22:50:24.319Z</time>
      </trkpt>
      <trkpt lat="47.542657" lon="7.869354">
        <ele>338.286660</ele>
        <time>2021-11-16T22:50:29.121Z</time>
      </trkpt>
      <trkpt lat="47.542696" lon="7.869257">
        <ele>338.229191</ele>
        <time>2021-11-16T22:50:30.056Z</time>
      </trkpt>
      <trkpt lat="47.542722" lon="7.869201">
        <ele>338.194594</ele>
        <time>2021-11-16T22:50:30.647Z</time>
      </trkpt>
      <trkpt lat="47.543049" lon="7.868759">
        <ele>337.834231</ele>
        <time>2021-11-16T22:50:35.561Z</time>
      </trkpt>
      <trkpt lat="47.543105" lon="7.868711">
        <ele>337.741495</ele>
        <time>2021-11-16T22:50:36.299Z</time>
      </trkpt>
      <trkpt lat="47.543201" lon="7.868657">
        <ele>337.594306</ele>
        <time>2021-11-16T22:50:37.378Z</time>
      </trkpt>
      <trkpt lat="47.543657" lon="7.868359">
        <ele>336.879922</ele>
        <time>2021-11-16T22:50:43.173Z</time>
      </trkpt>
      <trkpt lat="47.543801" lon="7.868269">
        <ele>336.655901</ele>
        <time>2021-11-16T22:50:45.652Z</time>
      </trkpt>
      <trkpt lat="47.544214" lon="7.867988">
        <ele>336.004473</ele>
        <time>2021-11-16T22:50:53.269Z</time>
      </trkpt>
      <trkpt lat="47.544246" lon="7.867967">
        <ele>335.954307</ele>
        <time>2021-11-16T22:50:53.866Z</time>
      </trkpt>
      <trkpt lat="47.544410" lon="7.867825">
        <ele>335.682030</ele>
        <time>2021-11-16T22:50:57.119Z</time>
      </trkpt>
      <trkpt lat="47.544469" lon="7.867776">
        <ele>335.585079</ele>
        <time>2021-11-16T22:50:58.140Z</time>
      </trkpt>
      <trkpt lat="47.544568" lon="7.867693">
        <ele>335.422029</ele>
        <time>2021-11-16T22:51:00.068Z</time>
      </trkpt>
      <trkpt lat="47.545003" lon="7.867278">
        <ele>335.453102</ele>
        <time>2021-11-16T22:51:08.916Z</time>
      </trkpt>
      <trkpt lat="47.545160" lon="7.866985">
        <ele>335.533831</ele>
        <time>2021-11-16T22:51:13.566Z</time>
      </trkpt>
      <trkpt lat="47.545240" lon="7.866887">
        <ele>335.567018</ele>
        <time>2021-11-16T22:51:15.840Z</time>
      </trkpt>
      <trkpt lat="47.546096" lon="7.866147">
        <ele>335.883863</ele>
        <time>2021-11-16T22:51:40.910Z</time>
      </trkpt>
      <trkpt lat="47.546327" lon="7.865959">
        <ele>335.993497</ele>
        <time>2021-11-16T22:51:47.330Z</time>
      </trkpt>
      <trkpt lat="47.546510" lon="7.865766">
        <ele>336.087834</ele>
        <time>2021-11-16T22:51:53.717Z</time>
      </trkpt>
      <trkpt lat="47.546819" lon="7.865489">
        <ele>336.239508</ele>
        <time>2021-11-16T22:52:01.870Z</time>
      </trkpt>
      <trkpt lat="47.546889" lon="7.865225">
        <ele>336.319910</ele>
        <time>2021-11-16T22:52:05.657Z</time>
      </trkpt>
      <trkpt lat="47.546894" lon="7.864837">
        <ele>336.429915</ele>
        <time>2021-11-16T22:52:10.833Z</time>
      </trkpt>
      <trkpt lat="47.546885" lon="7.864500">
        <ele>336.525518</ele>
        <time>2021-11-16T22:52:16.473Z</time>
      </trkpt>
      <trkpt lat="47.546974" lon="7.864423">
        <ele>336.568801</ele>
        <time>2021-11-16T22:52:18.061Z</time>
      </trkpt>
      <trkpt lat="47.547320" lon="7.863864">
        <ele>336.175757</ele>
        <time>2021-11-16T22:52:27.986Z</time>
      </trkpt>
      <trkpt lat="47.547568" lon="7.863151">
        <ele>335.424231</ele>
        <time>2021-11-16T22:52:36.999Z</time>
      </trkpt>
      <trkpt lat="47.547930" lon="7.861711">
        <ele>333.983505</ele>
        <time>2021-11-16T22:52:53.373Z</time>
      </trkpt>
      <trkpt lat="47.548049" lon="7.860929">
        <ele>333.227817</ele>
        <time>2021-11-16T22:53:02.072Z</time>
      </trkpt>
      <trkpt lat="47.548334" lon="7.859801">
        <ele>332.092408</ele>
        <time>2021-11-16T22:53:15.554Z</time>
      </trkpt>
      <trkpt lat="47.548611" lon="7.858381">
        <ele>331.406768</ele>
        <time>2021-11-16T22:53:33.510Z</time>
      </trkpt>
      <trkpt lat="47.548686" lon="7.857973">
        <ele>331.309956</ele>
        <time>2021-11-16T22:53:38.899Z</time>
      </trkpt>
      <trkpt lat="47.548701" lon="7.857893">
        <ele>331.290946</ele>
        <time>2021-11-16T22:53:40.020Z</time>
      </trkpt>
      <trkpt lat="47.548743" lon="7.857692">
        <ele>331.242774</ele>
        <time>2021-11-16T22:53:42.794Z</time>
      </trkpt>
      <trkpt lat="47.548887" lon="7.857308">
        <ele>331.142201</ele>
        <time>2021-11-16T22:53:48.827Z</time>
      </trkpt>
      <trkpt lat="47.549362" lon="7.855774">
        <ele>330.888348</ele>
        <time>2021-11-16T22:54:12.872Z</time>
      </trkpt>
      <trkpt lat="47.549566" lon="7.855225">
        <ele>330.815855</ele>
        <time>2021-11-16T22:54:21.490Z</time>
      </trkpt>
      <trkpt lat="47.549883" lon="7.854434">
        <ele>330.638944</ele>
        <time>2021-11-16T22:54:32.943Z</time>
      </trkpt>
      <trkpt lat="47.550221" lon="7.853833">
        <ele>329.486110</ele>
        <time>2021-11-16T22:54:39.337Z</time>
      </trkpt>
      <trkpt lat="47.551516" lon="7.851950">
        <ele>324.893463</ele>
        <time>2021-11-16T22:54:58.134Z</time>
      </trkpt>
      <trkpt lat="47.551660" lon="7.851725">
        <ele>324.208391</ele>
        <time>2021-11-16T22:55:00.165Z</time>
      </trkpt>
      <trkpt lat="47.551830" lon="7.851603">
        <ele>323.590052</ele>
        <time>2021-11-16T22:55:02.086Z</time>
      </trkpt>
      <trkpt lat="47.551925" lon="7.851845">
        <ele>322.971522</ele>
        <time>2021-11-16T22:55:03.930Z</time>
      </trkpt>
      <trkpt lat="47.552042" lon="7.852007">
        <ele>322.447314</ele>
        <time>2021-11-16T22:55:05.576Z</time>
      </trkpt>
      <trkpt lat="47.552097" lon="7.852063">
        <ele>322.228858</ele>
        <time>2021-11-16T22:55:06.207Z</time>
      </trkpt>
      <trkpt lat="47.552272" lon="7.852167">
        <ele>321.611630</ele>
        <time>2021-11-16T22:55:08.113Z</time>
      </trkpt>
      <trkpt lat="47.552449" lon="7.852231">
        <ele>321.015215</ele>
        <time>2021-11-16T22:55:09.913Z</time>
      </trkpt>
      <trkpt lat="47.552678" lon="7.851709">
        <ele>319.991746</ele>
        <time>2021-11-16T22:55:14.187Z</time>
      </trkpt>
      <trkpt lat="47.552876" lon="7.851300">
        <ele>319.190216</ele>
        <time>2021-11-16T22:55:17.733Z</time>
      </trkpt>
      <trkpt lat="47.553283" lon="7.850634">
        <ele>317.759497</ele>
        <time>2021-11-16T22:55:24.404Z</time>
      </trkpt>
      <trkpt lat="47.553344" lon="7.850525">
        <ele>317.534014</ele>
        <time>2021-11-16T22:55:25.481Z</time>
      </trkpt>
      <trkpt lat="47.553380" lon="7.850453">
        <ele>317.391324</ele>
        <time>2021-11-16T22:55:26.169Z</time>
      </trkpt>
      <trkpt lat="47.553537" lon="7.849904">
        <ele>316.527083</ele>
        <time>2021-11-16T22:55:30.654Z</time>
      </trkpt>
      <trkpt lat="47.553605" lon="7.849629">
        <ele>316.245800</ele>
        <time>2021-11-16T22:55:32.945Z</time>
      </trkpt>
      <trkpt lat="47.553725" lon="7.849291">
        <ele>315.879005</ele>
        <time>2021-11-16T22:55:35.867Z</time>
      </trkpt>
      <trkpt lat="47.554055" lon="7.848586">
        <ele>315.055005</ele>
        <time>2021-11-16T22:55:42.764Z</time>
      </trkpt>
      <trkpt lat="47.554209" lon="7.848300">
        <ele>314.703619</ele>
        <time>2021-11-16T22:55:45.727Z</time>
      </trkpt>
      <trkpt lat="47.554269" lon="7.848188">
        <ele>314.566285</ele>
        <time>2021-11-16T22:55:46.807Z</time>
      </trkpt>
      <trkpt lat="47.554351" lon="7.848049">
        <ele>314.388979</ele>
        <time>2021-11-16T22:55:48.266Z</time>
      </trkpt>
      <trkpt lat="47.554465" lon="7.847858">
        <ele>314.144099</ele>
        <time>2021-11-16T22:55:50.348Z</time>
      </trkpt>
      <trkpt lat="47.554618" lon="7.847626">
        <ele>313.850434</ele>
        <time>2021-11-16T22:55:52.847Z</time>
      </trkpt>
      <trkpt lat="47.554759" lon="7.847388">
        <ele>313.566828</ele>
        <time>2021-11-16T22:55:55.264Z</time>
      </trkpt>
      <trkpt lat="47.554892" lon="7.847148">
        <ele>313.288729</ele>
        <time>2021-11-16T22:55:57.695Z</time>
      </trkpt>
      <trkpt lat="47.554995" lon="7.846915">
        <ele>313.039294</ele>
        <time>2021-11-16T22:55:59.852Z</time>
      </trkpt>
      <trkpt lat="47.555068" lon="7.846672">
        <ele>312.801096</ele>
        <time>2021-11-16T22:56:01.912Z</time>
      </trkpt>
      <trkpt lat="47.555199" lon="7.846687">
        <ele>312.626750</ele>
        <time>2021-11-16T22:56:03.394Z</time>
      </trkpt>
      <trkpt lat="47.555727" lon="7.846715">
        <ele>311.925680</ele>
        <time>2021-11-16T22:56:09.851Z</time>
      </trkpt>
      <trkpt lat="47.555855" lon="7.846815">
        <ele>311.733671</ele>
        <time>2021-11-16T22:56:11.514Z</time>
      </trkpt>
      <trkpt lat="47.555892" lon="7.846856">
        <ele>311.686336</ele>
        <time>2021-11-16T22:56:12.071Z</time>
      </trkpt>
      <trkpt lat="47.555966" lon="7.846932">
        <ele>311.610768</ele>
        <time>2021-11-16T22:56:13.221Z</time>
      </trkpt>
      <trkpt lat="47.555990" lon="7.846965">
        <ele>311.583288</ele>
        <time>2021-11-16T22:56:13.653Z</time>
      </trkpt>
      <trkpt lat="47.556060" lon="7.846859">
        <ele>311.499285</ele>
        <time>2021-11-16T22:56:14.847Z</time>
      </trkpt>
      <trkpt lat="47.556636" lon="7.845928">
        <ele>310.783890</ele>
        <time>2021-11-16T22:56:25.233Z</time>
      </trkpt>
      <trkpt lat="47.557134" lon="7.845095">
        <ele>310.187725</ele>
        <time>2021-11-16T22:56:35.052Z</time>
      </trkpt>
      <trkpt lat="47.557282" lon="7.844832">
        <ele>310.134093</ele>
        <time>2021-11-16T22:56:38.191Z</time>
      </trkpt>
      <trkpt lat="47.557560" lon="7.844433">
        <ele>310.044274</ele>
        <time>2021-11-16T22:56:43.372Z</time>
      </trkpt>
      <trkpt lat="47.557715" lon="7.843940">
        <ele>309.959094</ele>
        <time>2021-11-16T22:56:48.377Z</time>
      </trkpt>
      <trkpt lat="47.557759" lon="7.843839">
        <ele>309.940266</ele>
        <time>2021-11-16T22:56:49.554Z</time>
      </trkpt>
      <trkpt lat="47.557846" lon="7.843756">
        <ele>309.916252</ele>
        <time>2021-11-16T22:56:50.901Z</time>
      </trkpt>
      <trkpt lat="47.557967" lon="7.843683">
        <ele>309.885933</ele>
        <time>2021-11-16T22:56:52.941Z</time>
      </trkpt>
      <trkpt lat="47.558136" lon="7.843582">
        <ele>309.843642</ele>
        <time>2021-11-16T22:56:55.623Z</time>
      </trkpt>
      <trkpt lat="47.558405" lon="7.843371">
        <ele>309.790668</ele>
        <time>2021-11-16T22:57:00.489Z</time>
      </trkpt>
      <trkpt lat="47.558471" lon="7.843365">
        <ele>309.801503</ele>
        <time>2021-11-16T22:57:01.340Z</time>
      </trkpt>
      <trkpt lat="47.558555" lon="7.843392">
        <ele>309.815588</ele>
        <time>2021-11-16T22:57:02.619Z</time>
      </trkpt>
      <trkpt lat="47.558580" lon="7.843426">
        <ele>309.821149</ele>
        <time>2021-11-16T22:57:03.182Z</time>
      </trkpt>
      <trkpt lat="47.558884" lon="7.843836">
        <ele>309.888507</ele>
        <time>2021-11-16T22:57:09.905Z</time>
      </trkpt>
      <trkpt lat="47.559060" lon="7.844197">
        <ele>309.937756</ele>
        <time>2021-11-16T22:57:14.732Z</time>
      </trkpt>
      <trkpt lat="47.559109" lon="7.844229">
        <ele>309.946530</ele>
        <time>2021-11-16T22:57:15.779Z</time>
      </trkpt>
      <trkpt lat="47.559158" lon="7.844233">
        <ele>309.954572</ele>
        <time>2021-11-16T22:57:16.725Z</time>
      </trkpt>
      <trkpt lat="47.559583" lon="7.843813">
        <ele>310.038281</ele>
        <time>2021-11-16T22:57:24.702Z</time>
      </trkpt>
      <trkpt lat="47.559847" lon="7.843604">
        <ele>310.034227</ele>
        <time>2021-11-16T22:57:29.101Z</time>
      </trkpt>
      <trkpt lat="47.560139" lon="7.843433">
        <ele>309.789760</ele>
        <time>2021-11-16T22:57:33.328Z</time>
      </trkpt>
      <trkpt lat="47.560209" lon="7.843393">
        <ele>309.731344</ele>
        <time>2021-11-16T22:57:34.279Z</time>
      </trkpt>
      <trkpt lat="47.560338" lon="7.843341">
        <ele>309.627252</ele>
        <time>2021-11-16T22:57:35.945Z</time>
      </trkpt>
      <trkpt lat="47.560430" lon="7.843341">
        <ele>309.555619</ele>
        <time>2021-11-16T22:57:37.488Z</time>
      </trkpt>
      <trkpt lat="47.560515" lon="7.843379">
        <ele>309.486490</ele>
        <time>2021-11-16T22:57:38.522Z</time>
      </trkpt>
      <trkpt lat="47.560812" lon="7.843560">
        <ele>309.236447</ele>
        <time>2021-11-16T22:57:42.581Z</time>
      </trkpt>
      <trkpt lat="47.560934" lon="7.843550">
        <ele>309.141310</ele>
        <time>2021-11-16T22:57:44.103Z</time>
      </trkpt>
      <trkpt lat="47.561038" lon="7.843502">
        <ele>309.056497</ele>
        <time>2021-11-16T22:57:45.392Z</time>
      </trkpt>
      <trkpt lat="47.561434" lon="7.843181">
        <ele>308.705049</ele>
        <time>2021-11-16T22:57:50.833Z</time>
      </trkpt>
      <trkpt lat="47.561498" lon="7.843130">
        <ele>308.628943</ele>
        <time>2021-11-16T22:57:51.597Z</time>
      </trkpt>
      <trkpt lat="47.562179" lon="7.842500">
        <ele>307.585325</ele>
        <time>2021-11-16T22:58:00.855Z</time>
      </trkpt>
      <trkpt lat="47.562300" lon="7.842326">
        <ele>307.366146</ele>
        <time>2021-11-16T22:58:02.807Z</time>
      </trkpt>
      <trkpt lat="47.562385" lon="7.842183">
        <ele>307.198979</ele>
        <time>2021-11-16T22:58:04.218Z</time>
      </trkpt>
      <trkpt lat="47.562440" lon="7.842083">
        <ele>307.085811</ele>
        <time>2021-11-16T22:58:05.334Z</time>
      </trkpt>
      <trkpt lat="47.562574" lon="7.841873">
        <ele>306.832279</ele>
        <time>2021-11-16T22:58:07.732Z</time>
      </trkpt>
      <trkpt lat="47.562904" lon="7.841632">
        <ele>306.354027</ele>
        <time>2021-11-16T22:58:12.221Z</time>
      </trkpt>
      <trkpt lat="47.562965" lon="7.841597">
        <ele>306.284196</ele>
        <time>2021-11-16T22:58:13.009Z</time>
      </trkpt>
      <trkpt lat="47.563016" lon="7.841568">
        <ele>306.228508</ele>
        <time>2021-11-16T22:58:13.710Z</time>
      </trkpt>
      <trkpt lat="47.563300" lon="7.841391">
        <ele>305.914423</ele>
        <time>2021-11-16T22:58:17.447Z</time>
      </trkpt>
      <trkpt lat="47.563483" lon="7.841269">
        <ele>305.709856</ele>
        <time>2021-11-16T22:58:20.006Z</time>
      </trkpt>
      <trkpt lat="47.563659" lon="7.841150">
        <ele>305.512641</ele>
        <time>2021-11-16T22:58:22.333Z</time>
      </trkpt>
      <trkpt lat="47.563805" lon="7.841046">
        <ele>305.347501</ele>
        <time>2021-11-16T22:58:24.395Z</time>
      </trkpt>
      <trkpt lat="47.563941" lon="7.840948">
        <ele>305.193335</ele>
        <time>2021-11-16T22:58:26.247Z</time>
      </trkpt>
      <trkpt lat="47.563986" lon="7.840916">
        <ele>305.142452</ele>
        <time>2021-11-16T22:58:26.868Z</time>
      </trkpt>
      <trkpt lat="47.564094" lon="7.840838">
        <ele>305.019973</ele>
        <time>2021-11-16T22:58:28.337Z</time>
      </trkpt>
      <trkpt lat="47.564463" lon="7.840580">
        <ele>304.604032</ele>
        <time>2021-11-16T22:58:33.324Z</time>
      </trkpt>
      <trkpt lat="47.564534" lon="7.840532">
        <ele>304.524476</ele>
        <time>2021-11-16T22:58:34.231Z</time>
      </trkpt>
      <trkpt lat="47.564558" lon="7.840516">
        <ele>304.496626</ele>
        <time>2021-11-16T22:58:34.555Z</time>
      </trkpt>
      <trkpt lat="47.564936" lon="7.840261">
        <ele>304.020310</ele>
        <time>2021-11-16T22:58:39.456Z</time>
      </trkpt>
      <trkpt lat="47.565057" lon="7.840213">
        <ele>303.876653</ele>
        <time>2021-11-16T22:58:40.870Z</time>
      </trkpt>
      <trkpt lat="47.565168" lon="7.840179">
        <ele>303.746660</ele>
        <time>2021-11-16T22:58:42.211Z</time>
      </trkpt>
      <trkpt lat="47.565233" lon="7.840176">
        <ele>303.672077</ele>
        <time>2021-11-16T22:58:42.947Z</time>
      </trkpt>
      <trkpt lat="47.565343" lon="7.840185">
        <ele>303.545729</ele>
        <time>2021-11-16T22:58:44.207Z</time>
      </trkpt>
      <trkpt lat="47.565906" lon="7.840272">
        <ele>302.896541</ele>
        <time>2021-11-16T22:58:51.067Z</time>
      </trkpt>
      <trkpt lat="47.566081" lon="7.840309">
        <ele>302.693807</ele>
        <time>2021-11-16T22:58:53.210Z</time>
      </trkpt>
      <trkpt lat="47.566142" lon="7.840322">
        <ele>302.623128</ele>
        <time>2021-11-16T22:58:53.892Z</time>
      </trkpt>
      <trkpt lat="47.566221" lon="7.840340">
        <ele>302.531461</ele>
        <time>2021-11-16T22:58:55.090Z</time>
      </trkpt>
      <trkpt lat="47.566350" lon="7.840350">
        <ele>302.407915</ele>
        <time>2021-11-16T22:58:56.779Z</time>
      </trkpt>
      <trkpt lat="47.566450" lon="7.840326">
        <ele>302.339618</ele>
        <time>2021-11-16T22:58:58.002Z</time>
      </trkpt>
      <trkpt lat="47.566515" lon="7.840312">
        <ele>302.295335</ele>
        <time>2021-11-16T22:58:58.748Z</time>
      </trkpt>
      <trkpt lat="47.566592" lon="7.840279">
        <ele>302.241296</ele>
        <time>2021-11-16T22:58:59.938Z</time>
      </trkpt>
      <trkpt lat="47.566826" lon="7.840179">
        <ele>302.077108</ele>
        <time>2021-11-16T22:59:02.872Z</time>
      </trkpt>
      <trkpt lat="47.567111" lon="7.839998">
        <ele>301.868066</ele>
        <time>2021-11-16T22:59:06.898Z</time>
      </trkpt>
      <trkpt lat="47.567406" lon="7.839778">
        <ele>301.645420</ele>
        <time>2021-11-16T22:59:11.150Z</time>
      </trkpt>
      <trkpt lat="47.567481" lon="7.839664">
        <ele>301.572991</ele>
        <time>2021-11-16T22:59:12.389Z</time>
      </trkpt>
      <trkpt lat="47.567510" lon="7.839548">
        <ele>301.516718</ele>
        <time>2021-11-16T22:59:13.667Z</time>
      </trkpt>
      <trkpt lat="47.567530" lon="7.839459">
        <ele>301.474047</ele>
        <time>2021-11-16T22:59:14.522Z</time>
      </trkpt>
      <trkpt lat="47.567564" lon="7.839283">
        <ele>301.390769</ele>
        <time>2021-11-16T22:59:16.176Z</time>
      </trkpt>
      <trkpt lat="47.567626" lon="7.839064">
        <ele>301.282734</ele>
        <time>2021-11-16T22:59:18.322Z</time>
      </trkpt>
      <trkpt lat="47.567634" lon="7.839037">
        <ele>301.269320</ele>
        <time>2021-11-16T22:59:18.562Z</time>
      </trkpt>
      <trkpt lat="47.567823" lon="7.838648">
        <ele>301.055753</ele>
        <time>2021-11-16T22:59:23.135Z</time>
      </trkpt>
      <trkpt lat="47.567846" lon="7.838609">
        <ele>301.032781</ele>
        <time>2021-11-16T22:59:23.591Z</time>
      </trkpt>
      <trkpt lat="47.567936" lon="7.838380">
        <ele>300.915249</ele>
        <time>2021-11-16T22:59:26.171Z</time>
      </trkpt>
      <trkpt lat="47.567961" lon="7.838248">
        <ele>300.854446</ele>
        <time>2021-11-16T22:59:27.346Z</time>
      </trkpt>
      <trkpt lat="47.567944" lon="7.838073">
        <ele>300.776035</ele>
        <time>2021-11-16T22:59:28.918Z</time>
      </trkpt>
      <trkpt lat="47.567822" lon="7.837479">
        <ele>300.500667</ele>
        <time>2021-11-16T22:59:34.155Z</time>
      </trkpt>
      <trkpt lat="47.567670" lon="7.836721">
        <ele>300.149969</ele>
        <time>2021-11-16T22:59:40.772Z</time>
      </trkpt>
      <trkpt lat="47.567647" lon="7.836576">
        <ele>300.083909</ele>
        <time>2021-11-16T22:59:42.034Z</time>
      </trkpt>
      <trkpt lat="47.567583" lon="7.836155">
        <ele>299.899949</ele>
        <time>2021-11-16T22:59:45.730Z</time>
      </trkpt>
      <trkpt lat="47.567562" lon="7.835760">
        <ele>299.732617</ele>
        <time>2021-11-16T22:59:49.183Z</time>
      </trkpt>
      <trkpt lat="47.567566" lon="7.835567">
        <ele>299.651072</ele>
        <time>2021-11-16T22:59:50.846Z</time>
      </trkpt>
      <trkpt lat="47.567674" lon="7.835182">
        <ele>299.474988</ele>
        <time>2021-11-16T22:59:54.494Z</time>
      </trkpt>
      <trkpt lat="47.567558" lon="7.835042">
        <ele>299.381354</ele>
        <time>2021-11-16T22:59:56.481Z</time>
      </trkpt>
      <trkpt lat="47.567334" lon="7.834588">
        <ele>299.143828</ele>
        <time>2021-11-16T23:00:01.433Z</time>
      </trkpt>
      <trkpt lat="47.567179" lon="7.834275">
        <ele>298.979861</ele>
        <time>2021-11-16T23:00:04.826Z</time>
      </trkpt>
      <trkpt lat="47.566744" lon="7.833235">
        <ele>298.780645</ele>
        <time>2021-11-16T23:00:16.025Z</time>
      </trkpt>
      <trkpt lat="47.566366" lon="7.832333">
        <ele>298.642284</ele>
        <time>2021-11-16T23:00:26.295Z</time>
      </trkpt>
      <trkpt lat="47.566013" lon="7.831442">
        <ele>298.650779</ele>
        <time>2021-11-16T23:00:36.968Z</time>
      </trkpt>
      <trkpt lat="47.565741" lon="7.830588">
        <ele>298.789294</ele>
        <time>2021-11-16T23:00:46.749Z</time>
      </trkpt>
      <trkpt lat="47.565639" lon="7.830099">
        <ele>298.864367</ele>
        <time>2021-11-16T23:00:52.307Z</time>
      </trkpt>
      <trkpt lat="47.565511" lon="7.829497">
        <ele>298.956946</ele>
        <time>2021-11-16T23:00:59.208Z</time>
      </trkpt>
      <trkpt lat="47.565384" lon="7.828869">
        <ele>299.300577</ele>
        <time>2021-11-16T23:01:06.224Z</time>
      </trkpt>
      <trkpt lat="47.565225" lon="7.828079">
        <ele>299.764917</ele>
        <time>2021-11-16T23:01:14.937Z</time>
      </trkpt>
      <trkpt lat="47.565215" lon="7.828033">
        <ele>299.792138</ele>
        <time>2021-11-16T23:01:15.449Z</time>
      </trkpt>
      <trkpt lat="47.565115" lon="7.827488">
        <ele>300.110256</ele>
        <time>2021-11-16T23:01:22.247Z</time>
      </trkpt>
      <trkpt lat="47.565054" lon="7.827194">
        <ele>300.283504</ele>
        <time>2021-11-16T23:01:26.220Z</time>
      </trkpt>
      <trkpt lat="47.564863" lon="7.826667">
        <ele>301.087097</ele>
        <time>2021-11-16T23:01:35.575Z</time>
      </trkpt>
      <trkpt lat="47.564836" lon="7.826621">
        <ele>301.226141</ele>
        <time>2021-11-16T23:01:36.553Z</time>
      </trkpt>
      <trkpt lat="47.564805" lon="7.826569">
        <ele>301.384387</ele>
        <time>2021-11-16T23:01:37.762Z</time>
      </trkpt>
      <trkpt lat="47.564837" lon="7.826491">
        <ele>301.592571</ele>
        <time>2021-11-16T23:01:39.751Z</time>
      </trkpt>
      <trkpt lat="47.564804" lon="7.826144">
        <ele>302.391755</ele>
        <time>2021-11-16T23:01:47.629Z</time>
      </trkpt>
      <trkpt lat="47.564761" lon="7.826044">
        <ele>302.662185</ele>
        <time>2021-11-16T23:01:50.256Z</time>
      </trkpt>
      <trkpt lat="47.564726" lon="7.825870">
        <ele>303.076265</ele>
        <time>2021-11-16T23:01:54.739Z</time>
      </trkpt>
      <trkpt lat="47.564632" lon="7.824882">
        <ele>305.351775</ele>
        <time>2021-11-16T23:02:18.915Z</time>
      </trkpt>
      <trkpt lat="47.564621" lon="7.824630">
        <ele>305.927685</ele>
        <time>2021-11-16T23:02:25.545Z</time>
      </trkpt>
      <trkpt lat="47.564603" lon="7.824196">
        <ele>306.774698</ele>
        <time>2021-11-16T23:02:36.131Z</time>
      </trkpt>
      <trkpt lat="47.564596" lon="7.823971">
        <ele>307.089069</ele>
        <time>2021-11-16T23:02:41.358Z</time>
      </trkpt>
      <trkpt lat="47.564551" lon="7.823574">
        <ele>307.650935</ele>
        <time>2021-11-16T23:02:51.597Z</time>
      </trkpt>
      <trkpt lat="47.564531" lon="7.823338">
        <ele>307.982914</ele>
        <time>2021-11-16T23:02:56.967Z</time>
      </trkpt>
      <trkpt lat="47.564338" lon="7.820810">
        <ele>309.781492</ele>
        <time>2021-11-16T23:03:37.756Z</time>
      </trkpt>
      <trkpt lat="47.564264" lon="7.820324">
        <ele>309.514974</ele>
        <time>2021-11-16T23:03:43.287Z</time>
      </trkpt>
      <trkpt lat="47.564207" lon="7.820139">
        <ele>309.406181</ele>
        <time>2021-11-16T23:03:45.490Z</time>
      </trkpt>
      <trkpt lat="47.564083" lon="7.819689">
        <ele>309.146157</ele>
        <time>2021-11-16T23:03:50.771Z</time>
      </trkpt>
      <trkpt lat="47.563846" lon="7.818890">
        <ele>308.548060</ele>
        <time>2021-11-16T23:04:00.215Z</time>
      </trkpt>
      <trkpt lat="47.563292" lon="7.817642">
        <ele>307.101007</ele>
        <time>2021-11-16T23:04:16.372Z</time>
      </trkpt>
      <trkpt lat="47.562585" lon="7.816208">
        <ele>306.274577</ele>
        <time>2021-11-16T23:04:37.566Z</time>
      </trkpt>
      <trkpt lat="47.562165" lon="7.815429">
        <ele>306.291682</ele>
        <time>2021-11-16T23:04:51.857Z</time>
      </trkpt>
      <trkpt lat="47.561915" lon="7.815075">
        <ele>306.300473</ele>
        <time>2021-11-16T23:04:59.844Z</time>
      </trkpt>
      <trkpt lat="47.561796" lon="7.814938">
        <ele>306.304304</ele>
        <time>2021-11-16T23:05:03.460Z</time>
      </trkpt>
      <trkpt lat="47.561285" lon="7.814314">
        <ele>306.730272</ele>
        <time>2021-11-16T23:05:19.530Z</time>
      </trkpt>
      <trkpt lat="47.561222" lon="7.814241">
        <ele>306.783058</ele>
        <time>2021-11-16T23:05:21.658Z</time>
      </trkpt>
      <trkpt lat="47.560566" lon="7.813439">
        <ele>307.344385</ele>
        <time>2021-11-16T23:05:42.241Z</time>
      </trkpt>
      <trkpt lat="47.560089" lon="7.812856">
        <ele>306.766388</ele>
        <time>2021-11-16T23:05:53.666Z</time>
      </trkpt>
      <trkpt lat="47.559685" lon="7.812338">
        <ele>305.784456</ele>
        <time>2021-11-16T23:06:02.579Z</time>
      </trkpt>
      <trkpt lat="47.559556" lon="7.812039">
        <ele>305.344278</ele>
        <time>2021-11-16T23:06:06.377Z</time>
      </trkpt>
      <trkpt lat="47.559352" lon="7.811707">
        <ele>304.787352</ele>
        <time>2021-11-16T23:06:11.025Z</time>
      </trkpt>
      <trkpt lat="47.559226" lon="7.811439">
        <ele>304.382219</ele>
        <time>2021-11-16T23:06:33.524Z</time>
      </trkpt>
      <trkpt lat="47.559209" lon="7.811347">
        <ele>304.263907</ele>
        <time>2021-11-16T23:06:39.841Z</time>
      </trkpt>
      <trkpt lat="47.559195" lon="7.811248">
        <ele>304.070612</ele>
        <time>2021-11-16T23:06:46.160Z</time>
      </trkpt>
      <trkpt lat="47.559245" lon="7.811179">
        <ele>303.765907</ele>
        <time>2021-11-16T23:06:46.863Z</time>
      </trkpt>
      <trkpt lat="47.559268" lon="7.811124">
        <ele>303.571176</ele>
        <time>2021-11-16T23:06:47.298Z</time>
      </trkpt>
      <trkpt lat="47.559276" lon="7.811047">
        <ele>303.336711</ele>
        <time>2021-11-16T23:06:47.823Z</time>
      </trkpt>
      <trkpt lat="47.559247" lon="7.810496">
        <ele>301.673415</ele>
        <time>2021-11-16T23:06:51.393Z</time>
      </trkpt>
      <trkpt lat="47.559164" lon="7.809586">
        <ele>298.909822</ele>
        <time>2021-11-16T23:06:57.132Z</time>
      </trkpt>
      <trkpt lat="47.559156" lon="7.809491">
        <ele>298.621697</ele>
        <time>2021-11-16T23:06:57.764Z</time>
      </trkpt>
      <trkpt lat="47.559157" lon="7.809330">
        <ele>298.137139</ele>
        <time>2021-11-16T23:06:58.827Z</time>
      </trkpt>
      <trkpt lat="47.559196" lon="7.809136">
        <ele>297.527930</ele>
        <time>2021-11-16T23:07:00.085Z</time>
      </trkpt>
      <trkpt lat="47.559398" lon="7.808498">
        <ele>295.485467</ele>
        <time>2021-11-16T23:07:04.853Z</time>
      </trkpt>
      <trkpt lat="47.559543" lon="7.807995">
        <ele>294.009825</ele>
        <time>2021-11-16T23:07:08.503Z</time>
      </trkpt>
      <trkpt lat="47.559784" lon="7.806908">
        <ele>290.923067</ele>
        <time>2021-11-16T23:07:16.008Z</time>
      </trkpt>
      <trkpt lat="47.559871" lon="7.806594">
        <ele>290.007329</ele>
        <time>2021-11-16T23:07:18.371Z</time>
      </trkpt>
      <trkpt lat="47.559953" lon="7.806216">
        <ele>288.932186</ele>
        <time>2021-11-16T23:07:20.922Z</time>
      </trkpt>
      <trkpt lat="47.559988" lon="7.806036">
        <ele>288.373579</ele>
        <time>2021-11-16T23:07:22.160Z</time>
      </trkpt>
      <trkpt lat="47.560019" lon="7.805927">
        <ele>288.020848</ele>
        <time>2021-11-16T23:07:22.884Z</time>
      </trkpt>
      <trkpt lat="47.560083" lon="7.805827">
        <ele>287.609859</ele>
        <time>2021-11-16T23:07:23.783Z</time>
      </trkpt>
      <trkpt lat="47.560138" lon="7.805759">
        <ele>287.293330</ele>
        <time>2021-11-16T23:07:24.555Z</time>
      </trkpt>
      <trkpt lat="47.560351" lon="7.805494">
        <ele>286.064332</ele>
        <time>2021-11-16T23:07:27.223Z</time>
      </trkpt>
      <trkpt lat="47.560401" lon="7.805409">
        <ele>285.728077</ele>
        <time>2021-11-16T23:07:28.016Z</time>
      </trkpt>
      <trkpt lat="47.560439" lon="7.805345">
        <ele>285.473869</ele>
        <time>2021-11-16T23:07:28.598Z</time>
      </trkpt>
      <trkpt lat="47.560542" lon="7.805124">
        <ele>284.672941</ele>
        <time>2021-11-16T23:07:30.270Z</time>
      </trkpt>
      <trkpt lat="47.560682" lon="7.804798">
        <ele>283.520642</ele>
        <time>2021-11-16T23:07:32.835Z</time>
      </trkpt>
      <trkpt lat="47.560742" lon="7.804662">
        <ele>283.036108</ele>
        <time>2021-11-16T23:07:33.822Z</time>
      </trkpt>
      <trkpt lat="47.560877" lon="7.804360">
        <ele>281.955873</ele>
        <time>2021-11-16T23:07:36.210Z</time>
      </trkpt>
      <trkpt lat="47.560963" lon="7.804183">
        <ele>281.305477</ele>
        <time>2021-11-16T23:07:37.569Z</time>
      </trkpt>
      <trkpt lat="47.561088" lon="7.803899">
        <ele>280.563548</ele>
        <time>2021-11-16T23:07:39.811Z</time>
      </trkpt>
      <trkpt lat="47.561332" lon="7.803393">
        <ele>279.391699</ele>
        <time>2021-11-16T23:07:43.815Z</time>
      </trkpt>
      <trkpt lat="47.561376" lon="7.803302">
        <ele>279.180759</ele>
        <time>2021-11-16T23:07:44.547Z</time>
      </trkpt>
      <trkpt lat="47.561404" lon="7.803234">
        <ele>279.030660</ele>
        <time>2021-11-16T23:07:45.085Z</time>
      </trkpt>
      <trkpt lat="47.561371" lon="7.803208">
        <ele>278.926300</ele>
        <time>2021-11-16T23:07:45.514Z</time>
      </trkpt>
      <trkpt lat="47.561177" lon="7.803075">
        <ele>278.329434</ele>
        <time>2021-11-16T23:07:47.697Z</time>
      </trkpt>
      <trkpt lat="47.560680" lon="7.802756">
        <ele>276.817080</ele>
        <time>2021-11-16T23:07:53.719Z</time>
      </trkpt>
      <trkpt lat="47.560399" lon="7.802597">
        <ele>275.997460</ele>
        <time>2021-11-16T23:07:57.400Z</time>
      </trkpt>
      <trkpt lat="47.559650" lon="7.802247">
        <ele>275.511013</ele>
        <time>2021-11-16T23:08:07.694Z</time>
      </trkpt>
      <trkpt lat="47.559570" lon="7.802197">
        <ele>275.457235</ele>
        <time>2021-11-16T23:08:08.804Z</time>
      </trkpt>
      <trkpt lat="47.559348" lon="7.802101">
        <ele>275.313994</ele>
        <time>2021-11-16T23:08:11.810Z</time>
      </trkpt>
      <trkpt lat="47.559183" lon="7.802020">
        <ele>275.206332</ele>
        <time>2021-11-16T23:08:14.130Z</time>
      </trkpt>
      <trkpt lat="47.559117" lon="7.801986">
        <ele>275.163052</ele>
        <time>2021-11-16T23:08:15.084Z</time>
      </trkpt>
      <trkpt lat="47.558842" lon="7.801839">
        <ele>274.981975</ele>
        <time>2021-11-16T23:08:18.948Z</time>
      </trkpt>
      <trkpt lat="47.558522" lon="7.801649">
        <ele>274.871279</ele>
        <time>2021-11-16T23:08:23.632Z</time>
      </trkpt>
      <trkpt lat="47.558430" lon="7.801574">
        <ele>274.861643</ele>
        <time>2021-11-16T23:08:25.142Z</time>
      </trkpt>
      <trkpt lat="47.558362" lon="7.801501">
        <ele>274.853936</ele>
        <time>2021-11-16T23:08:26.170Z</time>
      </trkpt>
      <trkpt lat="47.557814" lon="7.800795">
        <ele>274.787292</ele>
        <time>2021-11-16T23:08:36.389Z</time>
      </trkpt>
      <trkpt lat="47.557657" lon="7.800590">
        <ele>274.768087</ele>
        <time>2021-11-16T23:08:39.610Z</time>
      </trkpt>
      <trkpt lat="47.557599" lon="7.800515">
        <ele>274.761022</ele>
        <time>2021-11-16T23:08:40.679Z</time>
      </trkpt>
      <trkpt lat="47.556439" lon="7.798992">
        <ele>275.205924</ele>
        <time>2021-11-16T23:09:06.386Z</time>
      </trkpt>
      <trkpt lat="47.556381" lon="7.798915">
        <ele>275.238624</ele>
        <time>2021-11-16T23:09:07.799Z</time>
      </trkpt>
      <trkpt lat="47.556336" lon="7.798855">
        <ele>275.264044</ele>
        <time>2021-11-16T23:09:08.894Z</time>
      </trkpt>
      <trkpt lat="47.556240" lon="7.798728">
        <ele>275.318084</ele>
        <time>2021-11-16T23:09:11.206Z</time>
      </trkpt>
      <trkpt lat="47.556112" lon="7.798538">
        <ele>275.394164</ele>
        <time>2021-11-16T23:09:14.526Z</time>
      </trkpt>
      <trkpt lat="47.555842" lon="7.798140">
        <ele>275.402921</ele>
        <time>2021-11-16T23:09:20.686Z</time>
      </trkpt>
      <trkpt lat="47.555489" lon="7.797497">
        <ele>275.162569</ele>
        <time>2021-11-16T23:09:28.280Z</time>
      </trkpt>
      <trkpt lat="47.555293" lon="7.797049">
        <ele>275.007752</ele>
        <time>2021-11-16T23:09:32.837Z</time>
      </trkpt>
      <trkpt lat="47.555263" lon="7.796971">
        <ele>274.981719</ele>
        <time>2021-11-16T23:09:33.666Z</time>
      </trkpt>
      <trkpt lat="47.555486" lon="7.796849">
        <ele>274.879581</ele>
        <time>2021-11-16T23:09:37.883Z</time>
      </trkpt>
      <trkpt lat="47.555544" lon="7.796747">
        <ele>274.840904</ele>
        <time>2021-11-16T23:09:39.500Z</time>
      </trkpt>
      <trkpt lat="47.555529" lon="7.796462">
        <ele>274.758011</ele>
        <time>2021-11-16T23:09:41.945Z</time>
      </trkpt>
      <trkpt lat="47.555492" lon="7.796158">
        <ele>274.636451</ele>
        <time>2021-11-16T23:09:44.654Z</time>
      </trkpt>
      <trkpt lat="47.555467" lon="7.795984">
        <ele>274.541572</ele>
        <time>2021-11-16T23:09:46.097Z</time>
      </trkpt>
      <trkpt lat="47.555454" lon="7.795902">
        <ele>274.496648</ele>
        <time>2021-11-16T23:09:47.136Z</time>
      </trkpt>
      <trkpt lat="47.555444" lon="7.795749">
        <ele>274.414667</ele>
        <time>2021-11-16T23:09:48.997Z</time>
      </trkpt>
      <trkpt lat="47.555456" lon="7.795684">
        <ele>274.378727</ele>
        <time>2021-11-16T23:09:49.821Z</time>
      </trkpt>
      <trkpt lat="47.555451" lon="7.795635">
        <ele>274.352297</ele>
        <time>2021-11-16T23:09:50.466Z</time>
      </trkpt>
      <trkpt lat="47.555438" lon="7.795535">
        <ele>274.297984</ele>
        <time>2021-11-16T23:09:51.617Z</time>
      </trkpt>
      <trkpt lat="47.555436" lon="7.795522">
        <ele>274.290873</ele>
        <time>2021-11-16T23:09:51.784Z</time>
      </trkpt>
      <trkpt lat="47.555432" lon="7.795493">
        <ele>274.275087</ele>
        <time>2021-11-16T23:09:52.112Z</time>
      </trkpt>
      <trkpt lat="47.555308" lon="7.794498">
        <ele>273.735452</ele>
        <time>2021-11-16T23:10:04.044Z</time>
      </trkpt>
      <trkpt lat="47.555288" lon="7.794496">
        <ele>273.719611</ele>
        <time>2021-11-16T23:10:04.426Z</time>
      </trkpt>
      <trkpt lat="47.555288" lon="7.794318">
        <ele>273.624679</ele>
        <time>2021-11-16T23:10:08.626Z</time>
      </trkpt>
      <trkpt lat="47.555282" lon="7.794033">
        <ele>273.472606</ele>
        <time>2021-11-16T23:10:15.192Z</time>
      </trkpt>
      <trkpt lat="47.555281" lon="7.793955">
        <ele>273.430998</ele>
        <time>2021-11-16T23:10:17.034Z</time>
      </trkpt>
      <trkpt lat="47.555274" lon="7.793423">
        <ele>272.992669</ele>
        <time>2021-11-16T23:10:29.672Z</time>
      </trkpt>
      <trkpt lat="47.555277" lon="7.793131">
        <ele>272.662424</ele>
        <time>2021-11-16T23:10:36.720Z</time>
      </trkpt>
      <trkpt lat="47.555237" lon="7.792734">
        <ele>272.208502</ele>
        <time>2021-11-16T23:10:45.972Z</time>
      </trkpt>
      <trkpt lat="47.555127" lon="7.792307">
        <ele>271.691646</ele>
        <time>2021-11-16T23:10:55.950Z</time>
      </trkpt>
      <trkpt lat="47.555085" lon="7.792163">
        <ele>271.514247</ele>
        <time>2021-11-16T23:10:59.503Z</time>
      </trkpt>
      <trkpt lat="47.555027" lon="7.791948">
        <ele>271.252409</ele>
        <time>2021-11-16T23:11:04.304Z</time>
      </trkpt>
      <trkpt lat="47.554911" lon="7.791459">
        <ele>270.666255</ele>
        <time>2021-11-16T23:11:15.097Z</time>
      </trkpt>
      <trkpt lat="47.554756" lon="7.790897">
        <ele>269.916836</ele>
        <time>2021-11-16T23:11:27.396Z</time>
      </trkpt>
      <trkpt lat="47.554788" lon="7.790844">
        <ele>269.819080</ele>
        <time>2021-11-16T23:11:28.765Z</time>
      </trkpt>
      <trkpt lat="47.554858" lon="7.790696">
        <ele>269.570650</ele>
        <time>2021-11-16T23:11:32.560Z</time>
      </trkpt>
      <trkpt lat="47.554865" lon="7.790678">
        <ele>269.542092</ele>
        <time>2021-11-16T23:11:32.919Z</time>
      </trkpt>
      <trkpt lat="47.554999" lon="7.790090">
        <ele>268.688979</ele>
        <time>2021-11-16T23:11:45.180Z</time>
      </trkpt>
      <trkpt lat="47.555031" lon="7.789894">
        <ele>268.411782</ele>
        <time>2021-11-16T23:11:49.085Z</time>
      </trkpt>
      <trkpt lat="47.555052" lon="7.789771">
        <ele>268.237378</ele>
        <time>2021-11-16T23:11:51.629Z</time>
      </trkpt>
      <trkpt lat="47.555062" lon="7.789726">
        <ele>268.172253</ele>
        <time>2021-11-16T23:11:52.624Z</time>
      </trkpt>
      <trkpt lat="47.555085" lon="7.789685">
        <ele>268.098966</ele>
        <time>2021-11-16T23:11:53.729Z</time>
      </trkpt>
      <trkpt lat="47.555936" lon="7.788828">
        <ele>267.380745</ele>
        <time>2021-11-16T23:12:28.681Z</time>
      </trkpt>
      <trkpt lat="47.556069" lon="7.788614">
        <ele>267.892032</ele>
        <time>2021-11-16T23:12:32.697Z</time>
      </trkpt>
      <trkpt lat="47.556111" lon="7.788537">
        <ele>268.066033</ele>
        <time>2021-11-16T23:12:34.234Z</time>
      </trkpt>
      <trkpt lat="47.556137" lon="7.788488">
        <ele>268.175580</ele>
        <time>2021-11-16T23:12:35.402Z</time>
      </trkpt>
      <trkpt lat="47.556249" lon="7.788270">
        <ele>268.657097</ele>
        <time>2021-11-16T23:12:40.469Z</time>
      </trkpt>
      <trkpt lat="47.556357" lon="7.788058">
        <ele>269.123918</ele>
        <time>2021-11-16T23:12:45.816Z</time>
      </trkpt>
      <trkpt lat="47.556539" lon="7.787710">
        <ele>269.897669</ele>
        <time>2021-11-16T23:12:54.020Z</time>
      </trkpt>
      <trkpt lat="47.556658" lon="7.787468">
        <ele>270.423903</ele>
        <time>2021-11-16T23:13:00.678Z</time>
      </trkpt>
      <trkpt lat="47.556783" lon="7.787207">
        <ele>270.986369</ele>
        <time>2021-11-16T23:13:07.355Z</time>
      </trkpt>
      <trkpt lat="47.556783" lon="7.787207">
        <ele>270.986369</ele>
        <time>2021-11-16T23:13:07.462Z</time>
      </trkpt>
      <trkpt lat="47.556917" lon="7.786943">
        <ele>271.669541</ele>
        <time>2021-11-16T23:13:14.512Z</time>
      </trkpt>
      <trkpt lat="47.557019" lon="7.786803">
        <ele>272.166649</ele>
        <time>2021-11-16T23:13:19.715Z</time>
      </trkpt>
      <trkpt lat="47.557118" lon="7.786638">
        <ele>272.699379</ele>
        <time>2021-11-16T23:13:24.715Z</time>
      </trkpt>
      <trkpt lat="47.557180" lon="7.786638">
        <ele>272.921057</ele>
        <time>2021-11-16T23:13:26.635Z</time>
      </trkpt>
      <trkpt lat="47.557490" lon="7.786586">
        <ele>274.036523</ele>
        <time>2021-11-16T23:13:37.682Z</time>
      </trkpt>
      <trkpt lat="47.557562" lon="7.786575">
        <ele>274.295319</ele>
        <time>2021-11-16T23:13:39.827Z</time>
      </trkpt>
      <trkpt lat="47.557711" lon="7.786536">
        <ele>274.836307</ele>
        <time>2021-11-16T23:13:45.015Z</time>
      </trkpt>
      <trkpt lat="47.557823" lon="7.786486">
        <ele>275.254535</ele>
        <time>2021-11-16T23:13:48.426Z</time>
      </trkpt>
      <trkpt lat="47.557901" lon="7.786427">
        <ele>275.567653</ele>
        <time>2021-11-16T23:13:50.660Z</time>
      </trkpt>
      <trkpt lat="47.557921" lon="7.786413">
        <ele>275.646739</ele>
        <time>2021-11-16T23:13:51.281Z</time>
      </trkpt>
      <trkpt lat="47.558006" lon="7.786349">
        <ele>275.987634</ele>
        <time>2021-11-16T23:13:53.851Z</time>
      </trkpt>
      <trkpt lat="47.558071" lon="7.786282">
        <ele>276.270735</ele>
        <time>2021-11-16T23:13:56.251Z</time>
      </trkpt>
      <trkpt lat="47.558166" lon="7.786166">
        <ele>276.710863</ele>
        <time>2021-11-16T23:13:59.065Z</time>
      </trkpt>
      <trkpt lat="47.558367" lon="7.785913">
        <ele>277.653799</ele>
        <time>2021-11-16T23:14:04.982Z</time>
      </trkpt>
      <trkpt lat="47.558577" lon="7.785598">
        <ele>277.949185</ele>
        <time>2021-11-16T23:14:10.732Z</time>
      </trkpt>
      <trkpt lat="47.558660" lon="7.785434">
        <ele>278.061263</ele>
        <time>2021-11-16T23:14:13.237Z</time>
      </trkpt>
      <trkpt lat="47.558747" lon="7.785215">
        <ele>278.200205</ele>
        <time>2021-11-16T23:14:16.238Z</time>
      </trkpt>
      <trkpt lat="47.558782" lon="7.785128">
        <ele>278.255581</ele>
        <time>2021-11-16T23:14:17.445Z</time>
      </trkpt>
      <trkpt lat="47.558822" lon="7.785030">
        <ele>278.318200</ele>
        <time>2021-11-16T23:14:18.786Z</time>
      </trkpt>
      <trkpt lat="47.558920" lon="7.784817">
        <ele>278.459145</ele>
        <time>2021-11-16T23:14:21.763Z</time>
      </trkpt>
      <trkpt lat="47.558986" lon="7.784674">
        <ele>278.553864</ele>
        <time>2021-11-16T23:14:23.737Z</time>
      </trkpt>
      <trkpt lat="47.559008" lon="7.784639">
        <ele>278.580015</ele>
        <time>2021-11-16T23:14:24.277Z</time>
      </trkpt>
      <trkpt lat="47.559117" lon="7.784473">
        <ele>278.706646</ele>
        <time>2021-11-16T23:14:26.906Z</time>
      </trkpt>
      <trkpt lat="47.559229" lon="7.784376">
        <ele>278.811747</ele>
        <time>2021-11-16T23:14:29.108Z</time>
      </trkpt>
      <trkpt lat="47.559319" lon="7.784326">
        <ele>278.889619</ele>
        <time>2021-11-16T23:14:30.725Z</time>
      </trkpt>
      <trkpt lat="47.559415" lon="7.784281">
        <ele>278.971195</ele>
        <time>2021-11-16T23:14:32.441Z</time>
      </trkpt>
      <trkpt lat="47.559876" lon="7.784127">
        <ele>279.250076</ele>
        <time>2021-11-16T23:14:40.361Z</time>
      </trkpt>
      <trkpt lat="47.560427" lon="7.783951">
        <ele>279.434035</ele>
        <time>2021-11-16T23:14:49.329Z</time>
      </trkpt>
      <trkpt lat="47.560877" lon="7.783815">
        <ele>279.583924</ele>
        <time>2021-11-16T23:14:56.436Z</time>
      </trkpt>
      <trkpt lat="47.561041" lon="7.783716">
        <ele>279.641719</ele>
        <time>2021-11-16T23:14:59.116Z</time>
      </trkpt>
      <trkpt lat="47.561312" lon="7.783440">
        <ele>279.749038</ele>
        <time>2021-11-16T23:15:04.418Z</time>
      </trkpt>
      <trkpt lat="47.561406" lon="7.783302">
        <ele>279.821268</ele>
        <time>2021-11-16T23:15:06.613Z</time>
      </trkpt>
      <trkpt lat="47.561610" lon="7.782977">
        <ele>280.031379</ele>
        <time>2021-11-16T23:15:11.657Z</time>
      </trkpt>
      <trkpt lat="47.561822" lon="7.782640">
        <ele>280.249471</ele>
        <time>2021-11-16T23:15:17.163Z</time>
      </trkpt>
      <trkpt lat="47.561943" lon="7.782422">
        <ele>280.383087</ele>
        <time>2021-11-16T23:15:20.630Z</time>
      </trkpt>
      <trkpt lat="47.562099" lon="7.782166">
        <ele>280.546366</ele>
        <time>2021-11-16T23:15:24.832Z</time>
      </trkpt>
      <trkpt lat="47.562657" lon="7.781311">
        <ele>281.179433</ele>
        <time>2021-11-16T23:15:39.159Z</time>
      </trkpt>
      <trkpt lat="47.562775" lon="7.781130">
        <ele>281.401903</ele>
        <time>2021-11-16T23:15:42.305Z</time>
      </trkpt>
      <trkpt lat="47.563211" lon="7.780461">
        <ele>282.224046</ele>
        <time>2021-11-16T23:15:54.926Z</time>
      </trkpt>
      <trkpt lat="47.563299" lon="7.780330">
        <ele>282.387441</ele>
        <time>2021-11-16T23:15:57.451Z</time>
      </trkpt>
      <trkpt lat="47.563386" lon="7.780199">
        <ele>282.549914</ele>
        <time>2021-11-16T23:16:00.181Z</time>
      </trkpt>
      <trkpt lat="47.563492" lon="7.780014">
        <ele>282.764444</ele>
        <time>2021-11-16T23:16:03.634Z</time>
      </trkpt>
      <trkpt lat="47.563533" lon="7.779944">
        <ele>282.846378</ele>
        <time>2021-11-16T23:16:04.886Z</time>
      </trkpt>
      <trkpt lat="47.563652" lon="7.779747">
        <ele>283.080096</ele>
        <time>2021-11-16T23:16:08.822Z</time>
      </trkpt>
      <trkpt lat="47.563793" lon="7.779659">
        <ele>283.280514</ele>
        <time>2021-11-16T23:16:12.861Z</time>
      </trkpt>
      <trkpt lat="47.563852" lon="7.779621">
        <ele>283.364786</ele>
        <time>2021-11-16T23:16:14.527Z</time>
      </trkpt>
      <trkpt lat="47.564045" lon="7.779513">
        <ele>283.569414</ele>
        <time>2021-11-16T23:16:20.126Z</time>
      </trkpt>
      <trkpt lat="47.564224" lon="7.779415">
        <ele>283.753821</ele>
        <time>2021-11-16T23:16:24.935Z</time>
      </trkpt>
      <trkpt lat="47.564392" lon="7.779326">
        <ele>283.926231</ele>
        <time>2021-11-16T23:16:29.353Z</time>
      </trkpt>
      <trkpt lat="47.564511" lon="7.779262">
        <ele>284.048567</ele>
        <time>2021-11-16T23:16:32.273Z</time>
      </trkpt>
      <trkpt lat="47.564588" lon="7.779221">
        <ele>284.127635</ele>
        <time>2021-11-16T23:16:34.222Z</time>
      </trkpt>
      <trkpt lat="47.564843" lon="7.779087">
        <ele>284.389091</ele>
        <time>2021-11-16T23:16:40.486Z</time>
      </trkpt>
      <trkpt lat="47.565063" lon="7.778945">
        <ele>284.620980</ele>
        <time>2021-11-16T23:16:46.173Z</time>
      </trkpt>
      <trkpt lat="47.565130" lon="7.778874">
        <ele>284.700576</ele>
        <time>2021-11-16T23:16:48.168Z</time>
      </trkpt>
      <trkpt lat="47.565373" lon="7.778616">
        <ele>284.989445</ele>
        <time>2021-11-16T23:16:55.260Z</time>
      </trkpt>
      <trkpt lat="47.565449" lon="7.778535">
        <ele>285.079908</ele>
        <time>2021-11-16T23:16:57.443Z</time>
      </trkpt>
      <trkpt lat="47.565525" lon="7.778440">
        <ele>285.122067</ele>
        <time>2021-11-16T23:16:59.731Z</time>
      </trkpt>
      <trkpt lat="47.565867" lon="7.778022">
        <ele>285.114399</ele>
        <time>2021-11-16T23:17:09.284Z</time>
      </trkpt>
      <trkpt lat="47.566303" lon="7.777491">
        <ele>285.104638</ele>
        <time>2021-11-16T23:17:20.830Z</time>
      </trkpt>
      <trkpt lat="47.566322" lon="7.777461">
        <ele>285.104158</ele>
        <time>2021-11-16T23:17:21.341Z</time>
      </trkpt>
      <trkpt lat="47.566608" lon="7.777148">
        <ele>285.098008</ele>
        <time>2021-11-16T23:17:28.107Z</time>
      </trkpt>
      <trkpt lat="47.566856" lon="7.776877">
        <ele>285.092678</ele>
        <time>2021-11-16T23:17:33.750Z</time>
      </trkpt>
      <trkpt lat="47.566976" lon="7.776804">
        <ele>285.071530</ele>
        <time>2021-11-16T23:17:36.136Z</time>
      </trkpt>
      <trkpt lat="47.567059" lon="7.776784">
        <ele>285.051356</ele>
        <time>2021-11-16T23:17:37.648Z</time>
      </trkpt>
      <trkpt lat="47.567068" lon="7.776814">
        <ele>285.046041</ele>
        <time>2021-11-16T23:17:38.074Z</time>
      </trkpt>
      <trkpt lat="47.567139" lon="7.776888">
        <ele>285.025217</ele>
        <time>2021-11-16T23:17:39.670Z</time>
      </trkpt>
      <trkpt lat="47.567219" lon="7.776864">
        <ele>285.005635</ele>
        <time>2021-11-16T23:17:41.162Z</time>
      </trkpt>
      <trkpt lat="47.567251" lon="7.776815">
        <ele>284.994596</ele>
        <time>2021-11-16T23:17:42.009Z</time>
      </trkpt>
      <trkpt lat="47.567375" lon="7.776915">
        <ele>284.960728</ele>
        <time>2021-11-16T23:17:44.597Z</time>
      </trkpt>
      <trkpt lat="47.567398" lon="7.776929">
        <ele>284.954763</ele>
        <time>2021-11-16T23:17:45.073Z</time>
      </trkpt>
      <trkpt lat="47.567527" lon="7.777009">
        <ele>284.921214</ele>
        <time>2021-11-16T23:17:47.671Z</time>
      </trkpt>
      <trkpt lat="47.568007" lon="7.777265">
        <ele>284.798827</ele>
        <time>2021-11-16T23:17:57.416Z</time>
      </trkpt>
      <trkpt lat="47.568609" lon="7.777805">
        <ele>284.700595</ele>
        <time>2021-11-16T23:18:11.933Z</time>
      </trkpt>
      <trkpt lat="47.568698" lon="7.777923">
        <ele>284.738512</ele>
        <time>2021-11-16T23:18:14.487Z</time>
      </trkpt>
      <trkpt lat="47.568776" lon="7.778000">
        <ele>284.768271</ele>
        <time>2021-11-16T23:18:16.480Z</time>
      </trkpt>
      <trkpt lat="47.568912" lon="7.778080">
        <ele>284.814732</ele>
        <time>2021-11-16T23:18:19.513Z</time>
      </trkpt>
      <trkpt lat="47.569010" lon="7.778085">
        <ele>284.845869</ele>
        <time>2021-11-16T23:18:21.583Z</time>
      </trkpt>
      <trkpt lat="47.569097" lon="7.778076">
        <ele>284.873561</ele>
        <time>2021-11-16T23:18:23.421Z</time>
      </trkpt>
      <trkpt lat="47.569206" lon="7.778065">
        <ele>284.908252</ele>
        <time>2021-11-16T23:18:25.714Z</time>
      </trkpt>
      <trkpt lat="47.569336" lon="7.778029">
        <ele>284.950246</ele>
        <time>2021-11-16T23:18:28.542Z</time>
      </trkpt>
      <trkpt lat="47.569597" lon="7.777946">
        <ele>285.035008</ele>
        <time>2021-11-16T23:18:34.301Z</time>
      </trkpt>
      <trkpt lat="47.569718" lon="7.777905">
        <ele>285.074420</ele>
        <time>2021-11-16T23:18:37.048Z</time>
      </trkpt>
      <trkpt lat="47.569829" lon="7.777887">
        <ele>285.109877</ele>
        <time>2021-11-16T23:18:39.570Z</time>
      </trkpt>
      <trkpt lat="47.570668" lon="7.777751">
        <ele>285.424061</ele>
        <time>2021-11-16T23:18:58.584Z</time>
      </trkpt>
      <trkpt lat="47.571486" lon="7.777685">
        <ele>285.766274</ele>
        <time>2021-11-16T23:19:16.268Z</time>
      </trkpt>
      <trkpt lat="47.571758" lon="7.777656">
        <ele>285.880191</ele>
        <time>2021-11-16T23:19:21.948Z</time>
      </trkpt>
      <trkpt lat="47.572167" lon="7.777617">
        <ele>286.127253</ele>
        <time>2021-11-16T23:19:30.762Z</time>
      </trkpt>
      <trkpt lat="47.572400" lon="7.777595">
        <ele>286.332740</ele>
        <time>2021-11-16T23:19:35.945Z</time>
      </trkpt>
      <trkpt lat="47.572764" lon="7.777559">
        <ele>286.653822</ele>
        <time>2021-11-16T23:19:44.543Z</time>
      </trkpt>
      <trkpt lat="47.573335" lon="7.777667">
        <ele>287.160455</ele>
        <time>2021-11-16T23:19:58.730Z</time>
      </trkpt>
      <trkpt lat="47.573786" lon="7.777744">
        <ele>287.560021</ele>
        <time>2021-11-16T23:20:09.841Z</time>
      </trkpt>
      <trkpt lat="47.574028" lon="7.777785">
        <ele>287.943249</ele>
        <time>2021-11-16T23:20:16.056Z</time>
      </trkpt>
      <trkpt lat="47.574584" lon="7.777808">
        <ele>288.829280</ele>
        <time>2021-11-16T23:20:30.422Z</time>
      </trkpt>
      <trkpt lat="47.574435" lon="7.776611">
        <ele>290.137361</ele>
        <time>2021-11-16T23:20:52.169Z</time>
      </trkpt>
      <trkpt lat="47.574482" lon="7.776565">
        <ele>290.227079</ele>
        <time>2021-11-16T23:20:53.956Z</time>
      </trkpt>
      <trkpt lat="47.574818" lon="7.774795">
        <ele>294.544251</ele>
        <time>2021-11-16T23:21:29.838Z</time>
      </trkpt>
      <trkpt lat="47.575027" lon="7.775339">
        <ele>296.105865</ele>
        <time>2021-11-16T23:21:44.265Z</time>
      </trkpt>
      <trkpt lat="47.575085" lon="7.775492">
        <ele>296.543646</ele>
        <time>2021-11-16T23:21:49.755Z</time>
      </trkpt>
      <trkpt lat="47.575384" lon="7.776579">
        <ele>303.176994</ele>
        <time>2021-11-16T23:22:24.236Z</time>
      </trkpt>
      <trkpt lat="47.575677" lon="7.776966">
        <ele>306.877483</ele>
        <time>2021-11-16T23:22:45.022Z</time>
      </trkpt>
      <trkpt lat="47.575870" lon="7.777242">
        <ele>309.406200</ele>
        <time>2021-11-16T23:23:01.440Z</time>
      </trkpt>
      <trkpt lat="47.576055" lon="7.777591">
        <ele>312.229624</ele>
        <time>2021-11-16T23:23:19.679Z</time>
      </trkpt>
      <trkpt lat="47.576240" lon="7.777816">
        <ele>314.578513</ele>
        <time>2021-11-16T23:23:35.377Z</time>
      </trkpt>
      <trkpt lat="47.576421" lon="7.777969">
        <ele>316.952036</ele>
        <time>2021-11-16T23:23:47.207Z</time>
      </trkpt>
      <trkpt lat="47.576734" lon="7.778022">
        <ele>320.540731</ele>
        <time>2021-11-16T23:24:06.809Z</time>
      </trkpt>
      <trkpt lat="47.576906" lon="7.777966">
        <ele>322.546754</ele>
        <time>2021-11-16T23:24:18.607Z</time>
      </trkpt>
      <trkpt lat="47.577242" lon="7.777768">
        <ele>326.665607</ele>
        <time>2021-11-16T23:24:40.682Z</time>
      </trkpt>
      <trkpt lat="47.577552" lon="7.777454">
        <ele>330.942599</ele>
        <time>2021-11-16T23:25:03.004Z</time>
      </trkpt>
      <trkpt lat="47.577553" lon="7.777452">
        <ele>330.961729</ele>
        <time>2021-11-16T23:25:03.212Z</time>
      </trkpt>
      <trkpt lat="47.577731" lon="7.777170">
        <ele>333.929471</ele>
        <time>2021-11-16T23:25:17.632Z</time>
      </trkpt>
      <trkpt lat="47.577863" lon="7.776850">
        <ele>336.622323</ele>
        <time>2021-11-16T23:25:31.242Z</time>
      </trkpt>
      <trkpt lat="47.577968" lon="7.776427">
        <ele>339.798197</ele>
        <time>2021-11-16T23:25:50.162Z</time>
      </trkpt>
      <trkpt lat="47.578025" lon="7.775902">
        <ele>343.544995</ele>
        <time>2021-11-16T23:26:09.445Z</time>
      </trkpt>
      <trkpt lat="47.578071" lon="7.775576">
        <ele>345.891728</ele>
        <time>2021-11-16T23:26:21.815Z</time>
      </trkpt>
      <trkpt lat="47.578174" lon="7.775292">
        <ele>348.163679</ele>
        <time>2021-11-16T23:26:33.691Z</time>
      </trkpt>
      <trkpt lat="47.578507" lon="7.774879">
        <ele>352.698660</ele>
        <time>2021-11-16T23:26:58.575Z</time>
      </trkpt>
      <trkpt lat="47.578756" lon="7.774665">
        <ele>355.727018</ele>
        <time>2021-11-16T23:27:15.906Z</time>
      </trkpt>
      <trkpt lat="47.579806" lon="7.773857">
        <ele>368.198097</ele>
        <time>2021-11-16T23:28:23.357Z</time>
      </trkpt>
      <trkpt lat="47.580296" lon="7.773511">
        <ele>373.882552</ele>
        <time>2021-11-16T23:28:54.415Z</time>
      </trkpt>
      <trkpt lat="47.580807" lon="7.772819">
        <ele>381.014214</ele>
        <time>2021-11-16T23:29:32.212Z</time>
      </trkpt>
      <trkpt lat="47.580945" lon="7.772416">
        <ele>384.155620</ele>
        <time>2021-11-16T23:29:48.595Z</time>
      </trkpt>
      <trkpt lat="47.581317" lon="7.771666">
        <ele>390.626231</ele>
        <time>2021-11-16T23:30:24.278Z</time>
      </trkpt>
      <trkpt lat="47.581731" lon="7.770314">
        <ele>400.628900</ele>
        <time>2021-11-16T23:31:23.437Z</time>
      </trkpt>
      <trkpt lat="47.581897" lon="7.769954">
        <ele>403.564920</ele>
        <time>2021-11-16T23:31:38.383Z</time>
      </trkpt>
      <trkpt lat="47.581964" lon="7.769843">
        <ele>404.567789</ele>
        <time>2021-11-16T23:31:45.804Z</time>
      </trkpt>
      <trkpt lat="47.582176" lon="7.769652">
        <ele>407.043951</ele>
        <time>2021-11-16T23:31:58.468Z</time>
      </trkpt>
      <trkpt lat="47.582217" lon="7.769641">
        <ele>407.459835</ele>
        <time>2021-11-16T23:32:01.442Z</time>
      </trkpt>
      <trkpt lat="47.582269" lon="7.769630">
        <ele>407.984124</ele>
        <time>2021-11-16T23:32:05.726Z</time>
      </trkpt>
      <trkpt lat="47.583519" lon="7.769412">
        <ele>416.317107</ele>
        <time>2021-11-16T23:33:07.790Z</time>
      </trkpt>
      <trkpt lat="47.583812" lon="7.769288">
        <ele>418.266610</ele>
        <time>2021-11-16T23:33:20.236Z</time>
      </trkpt>
      <trkpt lat="47.585063" lon="7.768604">
        <ele>422.771061</ele>
        <time>2021-11-16T23:34:04.504Z</time>
      </trkpt>
      <trkpt lat="47.585613" lon="7.768145">
        <ele>424.317266</ele>
        <time>2021-11-16T23:34:21.790Z</time>
      </trkpt>
      <trkpt lat="47.586458" lon="7.767254">
        <ele>423.760438</ele>
        <time>2021-11-16T23:34:43.349Z</time>
      </trkpt>
      <trkpt lat="47.586575" lon="7.767173">
        <ele>423.627043</ele>
        <time>2021-11-16T23:34:46.044Z</time>
      </trkpt>
      <trkpt lat="47.586859" lon="7.766977">
        <ele>423.303430</ele>
        <time>2021-11-16T23:34:51.224Z</time>
      </trkpt>
      <trkpt lat="47.587726" lon="7.766058">
        <ele>419.782740</ele>
        <time>2021-11-16T23:35:06.521Z</time>
      </trkpt>
      <trkpt lat="47.588102" lon="7.765534">
        <ele>417.164307</ele>
        <time>2021-11-16T23:35:13.388Z</time>
      </trkpt>
      <trkpt lat="47.588240" lon="7.765423">
        <ele>416.367652</ele>
        <time>2021-11-16T23:35:15.474Z</time>
      </trkpt>
      <trkpt lat="47.588379" lon="7.765329">
        <ele>415.592428</ele>
        <time>2021-11-16T23:35:17.498Z</time>
      </trkpt>
      <trkpt lat="47.588523" lon="7.765242">
        <ele>414.803400</ele>
        <time>2021-11-16T23:35:19.512Z</time>
      </trkpt>
      <trkpt lat="47.589202" lon="7.765102">
        <ele>410.288379</ele>
        <time>2021-11-16T23:35:28.371Z</time>
      </trkpt>
      <trkpt lat="47.589614" lon="7.764808">
        <ele>406.953364</ele>
        <time>2021-11-16T23:35:34.178Z</time>
      </trkpt>
      <trkpt lat="47.591305" lon="7.762579">
        <ele>390.316231</ele>
        <time>2021-11-16T23:36:02.783Z</time>
      </trkpt>
      <trkpt lat="47.591687" lon="7.761670">
        <ele>386.173523</ele>
        <time>2021-11-16T23:36:12.066Z</time>
      </trkpt>
      <trkpt lat="47.591758" lon="7.761482">
        <ele>385.656745</ele>
        <time>2021-11-16T23:36:13.957Z</time>
      </trkpt>
      <trkpt lat="47.591982" lon="7.760877">
        <ele>384.001445</ele>
        <time>2021-11-16T23:36:20.376Z</time>
      </trkpt>
      <trkpt lat="47.592118" lon="7.760501">
        <ele>382.978150</ele>
        <time>2021-11-16T23:36:24.621Z</time>
      </trkpt>
      <trkpt lat="47.592317" lon="7.760056">
        <ele>381.697567</ele>
        <time>2021-11-16T23:36:30.394Z</time>
      </trkpt>
      <trkpt lat="47.592736" lon="7.760559">
        <ele>381.936329</ele>
        <time>2021-11-16T23:36:37.950Z</time>
      </trkpt>
      <trkpt lat="47.593211" lon="7.761047">
        <ele>383.888872</ele>
        <time>2021-11-16T23:36:51.908Z</time>
      </trkpt>
      <trkpt lat="47.593513" lon="7.761296">
        <ele>385.056423</ele>
        <time>2021-11-16T23:37:03.110Z</time>
      </trkpt>
      <trkpt lat="47.593803" lon="7.761400">
        <ele>386.064542</ele>
        <time>2021-11-16T23:37:14.008Z</time>
      </trkpt>
      <trkpt lat="47.594411" lon="7.761312">
        <ele>389.936522</ele>
        <time>2021-11-16T23:37:39.765Z</time>
      </trkpt>
      <trkpt lat="47.595086" lon="7.761325">
        <ele>395.755924</ele>
        <time>2021-11-16T23:38:12.782Z</time>
      </trkpt>
      <trkpt lat="47.595423" lon="7.761141">
        <ele>398.851738</ele>
        <time>2021-11-16T23:38:32.441Z</time>
      </trkpt>
      <trkpt lat="47.595483" lon="7.761108">
        <ele>399.403405</ele>
        <time>2021-11-16T23:38:36.985Z</time>
      </trkpt>
      <trkpt lat="47.595685" lon="7.760825">
        <ele>401.799024</ele>
        <time>2021-11-16T23:38:50.503Z</time>
      </trkpt>
      <trkpt lat="47.595755" lon="7.760659">
        <ele>402.970440</ele>
        <time>2021-11-16T23:38:59.438Z</time>
      </trkpt>
      <trkpt lat="47.595854" lon="7.760335">
        <ele>405.185090</ele>
        <time>2021-11-16T23:39:10.828Z</time>
      </trkpt>
      <trkpt lat="47.596041" lon="7.759870">
        <ele>408.555898</ele>
        <time>2021-11-16T23:39:30.771Z</time>
      </trkpt>
      <trkpt lat="47.596134" lon="7.759703">
        <ele>409.904343</ele>
        <time>2021-11-16T23:39:40.080Z</time>
      </trkpt>
      <trkpt lat="47.596241" lon="7.759593">
        <ele>411.106401</ele>
        <time>2021-11-16T23:39:46.216Z</time>
      </trkpt>
      <trkpt lat="47.596644" lon="7.759494">
        <ele>414.877828</ele>
        <time>2021-11-16T23:40:06.881Z</time>
      </trkpt>
      <trkpt lat="47.596893" lon="7.759520">
        <ele>417.182426</ele>
        <time>2021-11-16T23:40:20.341Z</time>
      </trkpt>
      <trkpt lat="47.597328" lon="7.759556">
        <ele>420.744952</ele>
        <time>2021-11-16T23:40:40.525Z</time>
      </trkpt>
      <trkpt lat="47.598314" lon="7.759510">
        <ele>427.886376</ele>
        <time>2021-11-16T23:41:22.402Z</time>
      </trkpt>
      <trkpt lat="47.598492" lon="7.759485">
        <ele>429.180727</ele>
        <time>2021-11-16T23:41:30.706Z</time>
      </trkpt>
      <trkpt lat="47.598636" lon="7.759436">
        <ele>430.250269</ele>
        <time>2021-11-16T23:41:36.966Z</time>
      </trkpt>
      <trkpt lat="47.599038" lon="7.759240">
        <ele>433.310669</ele>
        <time>2021-11-16T23:41:54.505Z</time>
      </trkpt>
      <trkpt lat="47.599369" lon="7.759291">
        <ele>435.713780</ele>
        <time>2021-11-16T23:42:07.962Z</time>
      </trkpt>
      <trkpt lat="47.599495" lon="7.759407">
        <ele>436.784732</ele>
        <time>2021-11-16T23:42:14.846Z</time>
      </trkpt>
      <trkpt lat="47.599727" lon="7.759652">
        <ele>438.841427</ele>
        <time>2021-11-16T23:42:27.591Z</time>
      </trkpt>
      <trkpt lat="47.599947" lon="7.759773">
        <ele>440.535846</ele>
        <time>2021-11-16T23:42:38.292Z</time>
      </trkpt>
      <trkpt lat="47.599976" lon="7.759788">
        <ele>440.757635</ele>
        <time>2021-11-16T23:42:39.825Z</time>
      </trkpt>
      <trkpt lat="47.600757" lon="7.759977">
        <ele>446.293696</ele>
        <time>2021-11-16T23:43:14.297Z</time>
      </trkpt>
      <trkpt lat="47.601032" lon="7.760002">
        <ele>448.027614</ele>
        <time>2021-11-16T23:43:26.922Z</time>
      </trkpt>
      <trkpt lat="47.601336" lon="7.760030">
        <ele>449.944476</ele>
        <time>2021-11-16T23:43:39.753Z</time>
      </trkpt>
      <trkpt lat="47.601600" lon="7.760073">
        <ele>451.615909</ele>
        <time>2021-11-16T23:43:51.076Z</time>
      </trkpt>
      <trkpt lat="47.602078" lon="7.760047">
        <ele>454.626149</ele>
        <time>2021-11-16T23:44:09.464Z</time>
      </trkpt>
      <trkpt lat="47.602902" lon="7.759841">
        <ele>457.550071</ele>
        <time>2021-11-16T23:44:37.285Z</time>
      </trkpt>
      <trkpt lat="47.603173" lon="7.759766">
        <ele>458.121417</ele>
        <time>2021-11-16T23:44:43.822Z</time>
      </trkpt>
      <trkpt lat="47.603613" lon="7.759659">
        <ele>459.045499</ele>
        <time>2021-11-16T23:44:52.777Z</time>
      </trkpt>
      <trkpt lat="47.604088" lon="7.759601">
        <ele>460.033273</ele>
        <time>2021-11-16T23:45:00.067Z</time>
      </trkpt>
      <trkpt lat="47.604421" lon="7.759606">
        <ele>459.962908</ele>
        <time>2021-11-16T23:45:04.293Z</time>
      </trkpt>
      <trkpt lat="47.604633" lon="7.759635">
        <ele>459.837459</ele>
        <time>2021-11-16T23:45:06.811Z</time>
      </trkpt>
      <trkpt lat="47.605325" lon="7.759787">
        <ele>459.425259</ele>
        <time>2021-11-16T23:45:15.352Z</time>
      </trkpt>
      <trkpt lat="47.605536" lon="7.759853">
        <ele>459.298195</ele>
        <time>2021-11-16T23:45:18.109Z</time>
      </trkpt>
      <trkpt lat="47.606171" lon="7.760045">
        <ele>459.018157</ele>
        <time>2021-11-16T23:45:27.293Z</time>
      </trkpt>
      <trkpt lat="47.607246" lon="7.760369">
        <ele>458.796102</ele>
        <time>2021-11-16T23:45:44.566Z</time>
      </trkpt>
      <trkpt lat="47.607825" lon="7.760537">
        <ele>458.432007</ele>
        <time>2021-11-16T23:45:52.345Z</time>
      </trkpt>
      <trkpt lat="47.608938" lon="7.760829">
        <ele>456.378315</ele>
        <time>2021-11-16T23:46:04.836Z</time>
      </trkpt>
      <trkpt lat="47.610076" lon="7.761100">
        <ele>454.458395</ele>
        <time>2021-11-16T23:46:17.071Z</time>
      </trkpt>
      <trkpt lat="47.610488" lon="7.761190">
        <ele>453.815888</ele>
        <time>2021-11-16T23:46:21.803Z</time>
      </trkpt>
      <trkpt lat="47.610565" lon="7.761273">
        <ele>453.669034</ele>
        <time>2021-11-16T23:46:22.961Z</time>
      </trkpt>
      <trkpt lat="47.610601" lon="7.761374">
        <ele>453.550202</ele>
        <time>2021-11-16T23:46:23.858Z</time>
      </trkpt>
      <trkpt lat="47.610760" lon="7.761304">
        <ele>453.294313</ele>
        <time>2021-11-16T23:46:25.838Z</time>
      </trkpt>
      <trkpt lat="47.610854" lon="7.761285">
        <ele>453.147946</ele>
        <time>2021-11-16T23:46:27.048Z</time>
      </trkpt>
      <trkpt lat="47.611933" lon="7.761457">
        <ele>452.269112</ele>
        <time>2021-11-16T23:46:41.659Z</time>
      </trkpt>
      <trkpt lat="47.612022" lon="7.761449">
        <ele>452.223459</ele>
        <time>2021-11-16T23:46:42.935Z</time>
      </trkpt>
      <trkpt lat="47.612075" lon="7.761435">
        <ele>452.195895</ele>
        <time>2021-11-16T23:46:43.670Z</time>
      </trkpt>
      <trkpt lat="47.612127" lon="7.761383">
        <ele>452.163785</ele>
        <time>2021-11-16T23:46:44.552Z</time>
      </trkpt>
      <trkpt lat="47.612441" lon="7.760890">
        <ele>451.929679</ele>
        <time>2021-11-16T23:46:50.437Z</time>
      </trkpt>
      <trkpt lat="47.612523" lon="7.760811">
        <ele>451.879616</ele>
        <time>2021-11-16T23:46:51.822Z</time>
      </trkpt>
      <trkpt lat="47.612630" lon="7.760759">
        <ele>451.821965</ele>
        <time>2021-11-16T23:46:53.372Z</time>
      </trkpt>
      <trkpt lat="47.612812" lon="7.760726">
        <ele>451.707150</ele>
        <time>2021-11-16T23:46:55.677Z</time>
      </trkpt>
      <trkpt lat="47.612960" lon="7.760706">
        <ele>451.526338</ele>
        <time>2021-11-16T23:46:57.821Z</time>
      </trkpt>
      <trkpt lat="47.613059" lon="7.760674">
        <ele>451.403062</ele>
        <time>2021-11-16T23:46:59.189Z</time>
      </trkpt>
      <trkpt lat="47.613078" lon="7.760746">
        <ele>451.339645</ele>
        <time>2021-11-16T23:46:59.761Z</time>
      </trkpt>
      <trkpt lat="47.613167" lon="7.760835">
        <ele>451.209055</ele>
        <time>2021-11-16T23:47:01.338Z</time>
      </trkpt>
      <trkpt lat="47.613657" lon="7.760988">
        <ele>450.599826</ele>
        <time>2021-11-16T23:47:07.360Z</time>
      </trkpt>
      <trkpt lat="47.613842" lon="7.761046">
        <ele>450.369771</ele>
        <time>2021-11-16T23:47:09.472Z</time>
      </trkpt>
      <trkpt lat="47.614092" lon="7.761125">
        <ele>450.058780</ele>
        <time>2021-11-16T23:47:12.404Z</time>
      </trkpt>
      <trkpt lat="47.614228" lon="7.761168">
        <ele>449.889597</ele>
        <time>2021-11-16T23:47:13.875Z</time>
      </trkpt>
      <trkpt lat="47.614392" lon="7.761173">
        <ele>449.690023</ele>
        <time>2021-11-16T23:47:15.663Z</time>
      </trkpt>
      <trkpt lat="47.614706" lon="7.761147">
        <ele>449.483955</ele>
        <time>2021-11-16T23:47:19.173Z</time>
      </trkpt>
      <trkpt lat="47.614766" lon="7.761162">
        <ele>449.462724</ele>
        <time>2021-11-16T23:47:19.931Z</time>
      </trkpt>
      <trkpt lat="47.614820" lon="7.761190">
        <ele>449.442764</ele>
        <time>2021-11-16T23:47:20.730Z</time>
      </trkpt>
      <trkpt lat="47.615007" lon="7.761358">
        <ele>449.366481</ele>
        <time>2021-11-16T23:47:23.255Z</time>
      </trkpt>
      <trkpt lat="47.615529" lon="7.761749">
        <ele>449.162437</ele>
        <time>2021-11-16T23:47:31.641Z</time>
      </trkpt>
      <trkpt lat="47.615620" lon="7.761773">
        <ele>449.130186</ele>
        <time>2021-11-16T23:47:32.659Z</time>
      </trkpt>
      <trkpt lat="47.615769" lon="7.761789">
        <ele>449.078060</ele>
        <time>2021-11-16T23:47:35.157Z</time>
      </trkpt>
      <trkpt lat="47.615919" lon="7.761819">
        <ele>449.025246</ele>
        <time>2021-11-16T23:47:37.679Z</time>
      </trkpt>
      <trkpt lat="47.616849" lon="7.762442">
        <ele>449.949588</ele>
        <time>2021-11-16T23:47:57.234Z</time>
      </trkpt>
      <trkpt lat="47.617386" lon="7.762826">
        <ele>450.773232</ele>
        <time>2021-11-16T23:48:11.926Z</time>
      </trkpt>
      <trkpt lat="47.617553" lon="7.762928">
        <ele>451.022758</ele>
        <time>2021-11-16T23:48:16.116Z</time>
      </trkpt>
      <trkpt lat="47.617894" lon="7.763136">
        <ele>451.321496</ele>
        <time>2021-11-16T23:48:22.834Z</time>
      </trkpt>
      <trkpt lat="47.618125" lon="7.762615">
        <ele>450.880290</ele>
        <time>2021-11-16T23:48:29.392Z</time>
      </trkpt>
      <trkpt lat="47.618586" lon="7.762088">
        <ele>450.269429</ele>
        <time>2021-11-16T23:48:36.667Z</time>
      </trkpt>
      <trkpt lat="47.618742" lon="7.761992">
        <ele>450.092162</ele>
        <time>2021-11-16T23:48:38.565Z</time>
      </trkpt>
      <trkpt lat="47.618940" lon="7.761783">
        <ele>449.837103</ele>
        <time>2021-11-16T23:48:41.189Z</time>
      </trkpt>
      <trkpt lat="47.619245" lon="7.761370">
        <ele>449.203385</ele>
        <time>2021-11-16T23:48:45.489Z</time>
      </trkpt>
      <trkpt lat="47.620058" lon="7.759513">
        <ele>445.041523</ele>
        <time>2021-11-16T23:49:00.454Z</time>
      </trkpt>
      <trkpt lat="47.620566" lon="7.758657">
        <ele>444.487442</ele>
        <time>2021-11-16T23:49:09.952Z</time>
      </trkpt>
      <trkpt lat="47.620828" lon="7.758215">
        <ele>444.472477</ele>
        <time>2021-11-16T23:49:16.034Z</time>
      </trkpt>
      <trkpt lat="47.621012" lon="7.757974">
        <ele>444.463218</ele>
        <time>2021-11-16T23:49:20.057Z</time>
      </trkpt>
      <trkpt lat="47.621392" lon="7.757689">
        <ele>444.447157</ele>
        <time>2021-11-16T23:49:27.807Z</time>
      </trkpt>
      <trkpt lat="47.621775" lon="7.757496">
        <ele>444.696492</ele>
        <time>2021-11-16T23:49:36.128Z</time>
      </trkpt>
      <trkpt lat="47.622401" lon="7.757191">
        <ele>445.364338</ele>
        <time>2021-11-16T23:49:49.798Z</time>
      </trkpt>
      <trkpt lat="47.622511" lon="7.757074">
        <ele>445.501524</ele>
        <time>2021-11-16T23:49:52.721Z</time>
      </trkpt>
      <trkpt lat="47.622712" lon="7.756863">
        <ele>445.751095</ele>
        <time>2021-11-16T23:49:57.174Z</time>
      </trkpt>
      <trkpt lat="47.624277" lon="7.754101">
        <ele>447.001995</ele>
        <time>2021-11-16T23:50:36.891Z</time>
      </trkpt>
      <trkpt lat="47.624838" lon="7.753339">
        <ele>447.010010</ele>
        <time>2021-11-16T23:50:50.001Z</time>
      </trkpt>
      <trkpt lat="47.625761" lon="7.752304">
        <ele>446.551549</ele>
        <time>2021-11-16T23:51:06.311Z</time>
      </trkpt>
      <trkpt lat="47.627609" lon="7.750299">
        <ele>441.223225</ele>
        <time>2021-11-16T23:51:30.815Z</time>
      </trkpt>
      <trkpt lat="47.628584" lon="7.749233">
        <ele>437.216481</ele>
        <time>2021-11-16T23:51:42.750Z</time>
      </trkpt>
      <trkpt lat="47.628604" lon="7.749202">
        <ele>437.102396</ele>
        <time>2021-11-16T23:51:42.995Z</time>
      </trkpt>
      <trkpt lat="47.628729" lon="7.749001">
        <ele>436.375325</ele>
        <time>2021-11-16T23:51:44.842Z</time>
      </trkpt>
      <trkpt lat="47.629212" lon="7.748211">
        <ele>433.539776</ele>
        <time>2021-11-16T23:51:51.871Z</time>
      </trkpt>
      <trkpt lat="47.629452" lon="7.747871">
        <ele>432.230899</ele>
        <time>2021-11-16T23:51:55.134Z</time>
      </trkpt>
      <trkpt lat="47.629711" lon="7.747557">
        <ele>430.911616</ele>
        <time>2021-11-16T23:51:58.403Z</time>
      </trkpt>
      <trkpt lat="47.630697" lon="7.746375">
        <ele>425.570531</ele>
        <time>2021-11-16T23:52:10.832Z</time>
      </trkpt>
      <trkpt lat="47.630948" lon="7.746031">
        <ele>424.126934</ele>
        <time>2021-11-16T23:52:14.106Z</time>
      </trkpt>
      <trkpt lat="47.631034" lon="7.745824">
        <ele>423.434548</ele>
        <time>2021-11-16T23:52:15.636Z</time>
      </trkpt>
      <trkpt lat="47.631075" lon="7.745596">
        <ele>422.712217</ele>
        <time>2021-11-16T23:52:17.171Z</time>
      </trkpt>
      <trkpt lat="47.631185" lon="7.744218">
        <ele>418.186937</ele>
        <time>2021-11-16T23:52:25.892Z</time>
      </trkpt>
      <trkpt lat="47.631202" lon="7.744011">
        <ele>417.506886</ele>
        <time>2021-11-16T23:52:27.227Z</time>
      </trkpt>
      <trkpt lat="47.631260" lon="7.742819">
        <ele>413.776411</ele>
        <time>2021-11-16T23:52:34.921Z</time>
      </trkpt>
      <trkpt lat="47.631282" lon="7.742608">
        <ele>413.226109</ele>
        <time>2021-11-16T23:52:36.321Z</time>
      </trkpt>
      <trkpt lat="47.631477" lon="7.741795">
        <ele>411.001921</ele>
        <time>2021-11-16T23:52:42.196Z</time>
      </trkpt>
      <trkpt lat="47.631536" lon="7.741522">
        <ele>410.262996</ele>
        <time>2021-11-16T23:52:44.890Z</time>
      </trkpt>
      <trkpt lat="47.631637" lon="7.741086">
        <ele>409.074717</ele>
        <time>2021-11-16T23:52:49.271Z</time>
      </trkpt>
      <trkpt lat="47.631724" lon="7.740473">
        <ele>407.449974</ele>
        <time>2021-11-16T23:52:55.302Z</time>
      </trkpt>
      <trkpt lat="47.632215" lon="7.740628">
        <ele>405.236635</ele>
        <time>2021-11-16T23:53:02.431Z</time>
      </trkpt>
      <trkpt lat="47.632629" lon="7.740770">
        <ele>403.363120</ele>
        <time>2021-11-16T23:53:08.394Z</time>
      </trkpt>
      <trkpt lat="47.633010" lon="7.740829">
        <ele>401.674111</ele>
        <time>2021-11-16T23:53:13.664Z</time>
      </trkpt>
      <trkpt lat="47.633652" lon="7.740737">
        <ele>398.650764</ele>
        <time>2021-11-16T23:53:22.307Z</time>
      </trkpt>
      <trkpt lat="47.633981" lon="7.740603">
        <ele>396.793900</ele>
        <time>2021-11-16T23:53:26.798Z</time>
      </trkpt>
      <trkpt lat="47.634039" lon="7.740574">
        <ele>396.460788</ele>
        <time>2021-11-16T23:53:27.600Z</time>
      </trkpt>
      <trkpt lat="47.634082" lon="7.740553">
        <ele>396.214405</ele>
        <time>2021-11-16T23:53:28.205Z</time>
      </trkpt>
      <trkpt lat="47.634149" lon="7.740513">
        <ele>395.821341</ele>
        <time>2021-11-16T23:53:29.185Z</time>
      </trkpt>
      <trkpt lat="47.634183" lon="7.740491">
        <ele>395.619464</ele>
        <time>2021-11-16T23:53:29.693Z</time>
      </trkpt>
      <trkpt lat="47.634454" lon="7.740276">
        <ele>393.946945</ele>
        <time>2021-11-16T23:53:33.805Z</time>
      </trkpt>
      <trkpt lat="47.634675" lon="7.740206">
        <ele>392.717018</ele>
        <time>2021-11-16T23:53:36.807Z</time>
      </trkpt>
      <trkpt lat="47.635167" lon="7.740263">
        <ele>390.031069</ele>
        <time>2021-11-16T23:53:43.407Z</time>
      </trkpt>
      <trkpt lat="47.635977" lon="7.740654">
        <ele>384.885474</ele>
        <time>2021-11-16T23:53:54.710Z</time>
      </trkpt>
      <trkpt lat="47.636417" lon="7.740311">
        <ele>381.867885</ele>
        <time>2021-11-16T23:54:01.218Z</time>
      </trkpt>
      <trkpt lat="47.636642" lon="7.740236">
        <ele>380.467766</ele>
        <time>2021-11-16T23:54:04.185Z</time>
      </trkpt>
      <trkpt lat="47.636927" lon="7.740332">
        <ele>378.556668</ele>
        <time>2021-11-16T23:54:07.969Z</time>
      </trkpt>
      <trkpt lat="47.637075" lon="7.740488">
        <ele>376.672921</ele>
        <time>2021-11-16T23:54:10.326Z</time>
      </trkpt>
      <trkpt lat="47.637234" lon="7.740799">
        <ele>373.943239</ele>
        <time>2021-11-16T23:54:13.772Z</time>
      </trkpt>
      <trkpt lat="47.637528" lon="7.741566">
        <ele>367.773166</ele>
        <time>2021-11-16T23:54:21.056Z</time>
      </trkpt>
      <trkpt lat="47.637556" lon="7.741902">
        <ele>365.405885</ele>
        <time>2021-11-16T23:54:22.964Z</time>
      </trkpt>
      <trkpt lat="47.637523" lon="7.742385">
        <ele>362.011332</ele>
        <time>2021-11-16T23:54:25.699Z</time>
      </trkpt>
      <trkpt lat="47.637552" lon="7.742900">
        <ele>358.076919</ele>
        <time>2021-11-16T23:54:28.606Z</time>
      </trkpt>
      <trkpt lat="47.637644" lon="7.743238">
        <ele>355.079589</ele>
        <time>2021-11-16T23:54:30.671Z</time>
      </trkpt>
      <trkpt lat="47.637785" lon="7.743491">
        <ele>352.380001</ele>
        <time>2021-11-16T23:54:32.515Z</time>
      </trkpt>
      <trkpt lat="47.638011" lon="7.743662">
        <ele>349.284477</ele>
        <time>2021-11-16T23:54:34.637Z</time>
      </trkpt>
      <trkpt lat="47.638337" lon="7.743810">
        <ele>345.124463</ele>
        <time>2021-11-16T23:54:37.522Z</time>
      </trkpt>
      <trkpt lat="47.638586" lon="7.743801">
        <ele>342.085113</ele>
        <time>2021-11-16T23:54:39.664Z</time>
      </trkpt>
      <trkpt lat="47.638638" lon="7.743783">
        <ele>341.433546</ele>
        <time>2021-11-16T23:54:40.104Z</time>
      </trkpt>
      <trkpt lat="47.638834" lon="7.743716">
        <ele>338.979212</ele>
        <time>2021-11-16T23:54:41.811Z</time>
      </trkpt>
      <trkpt lat="47.638834" lon="7.743716">
        <ele>338.979212</ele>
        <time>2021-11-16T23:54:41.816Z</time>
      </trkpt>
      <trkpt lat="47.639034" lon="7.743640">
        <ele>337.650914</ele>
        <time>2021-11-16T23:54:43.576Z</time>
      </trkpt>
      <trkpt lat="47.639124" lon="7.743936">
        <ele>336.734265</ele>
        <time>2021-11-16T23:54:45.501Z</time>
      </trkpt>
      <trkpt lat="47.639286" lon="7.744230">
        <ele>335.662229</ele>
        <time>2021-11-16T23:54:47.827Z</time>
      </trkpt>
      <trkpt lat="47.639661" lon="7.744599">
        <ele>333.777343</ele>
        <time>2021-11-16T23:54:52.538Z</time>
      </trkpt>
      <trkpt lat="47.640175" lon="7.745392">
        <ele>330.730995</ele>
        <time>2021-11-16T23:55:01.734Z</time>
      </trkpt>
      <trkpt lat="47.640698" lon="7.744798">
        <ele>330.419483</ele>
        <time>2021-11-16T23:55:11.011Z</time>
      </trkpt>
      <trkpt lat="47.640802" lon="7.744697">
        <ele>330.360694</ele>
        <time>2021-11-16T23:55:12.680Z</time>
      </trkpt>
      <trkpt lat="47.640859" lon="7.744671">
        <ele>330.332488</ele>
        <time>2021-11-16T23:55:13.500Z</time>
      </trkpt>
      <trkpt lat="47.640958" lon="7.744746">
        <ele>330.279912</ele>
        <time>2021-11-16T23:55:15.034Z</time>
      </trkpt>
      <trkpt lat="47.640998" lon="7.744824">
        <ele>330.248671</ele>
        <time>2021-11-16T23:55:15.984Z</time>
      </trkpt>
      <trkpt lat="47.641056" lon="7.744855">
        <ele>330.219512</ele>
        <time>2021-11-16T23:55:16.851Z</time>
      </trkpt>
      <trkpt lat="47.641149" lon="7.744754">
        <ele>330.165002</ele>
        <time>2021-11-16T23:55:18.342Z</time>
      </trkpt>
      <trkpt lat="47.641098" lon="7.744530">
        <ele>330.089646</ele>
        <time>2021-11-16T23:55:20.473Z</time>
      </trkpt>
      <trkpt lat="47.641089" lon="7.744504">
        <ele>330.080330</ele>
        <time>2021-11-16T23:55:20.790Z</time>
      </trkpt>
      <trkpt lat="47.641021" lon="7.744322">
        <ele>330.014005</ele>
        <time>2021-11-16T23:55:22.566Z</time>
      </trkpt>
      <trkpt lat="47.641118" lon="7.744203">
        <ele>329.954477</ele>
        <time>2021-11-16T23:55:24.204Z</time>
      </trkpt>
      <trkpt lat="47.641133" lon="7.744182">
        <ele>329.944723</ele>
        <time>2021-11-16T23:55:24.476Z</time>
      </trkpt>
      <trkpt lat="47.641440" lon="7.743669">
        <ele>329.800545</ele>
        <time>2021-11-16T23:55:30.534Z</time>
      </trkpt>
      <trkpt lat="47.641543" lon="7.743498">
        <ele>329.761112</ele>
        <time>2021-11-16T23:55:32.576Z</time>
      </trkpt>
      <trkpt lat="47.641651" lon="7.743319">
        <ele>329.719804</ele>
        <time>2021-11-16T23:55:34.941Z</time>
      </trkpt>
      <trkpt lat="47.641773" lon="7.743087">
        <ele>329.669210</ele>
        <time>2021-11-16T23:55:37.555Z</time>
      </trkpt>
      <trkpt lat="47.641802" lon="7.742982">
        <ele>329.649701</ele>
        <time>2021-11-16T23:55:38.686Z</time>
      </trkpt>
      <trkpt lat="47.641858" lon="7.742708">
        <ele>329.600476</ele>
        <time>2021-11-16T23:55:41.376Z</time>
      </trkpt>
      <trkpt lat="47.641875" lon="7.742622">
        <ele>329.585068</ele>
        <time>2021-11-16T23:55:42.168Z</time>
      </trkpt>
      <trkpt lat="47.641887" lon="7.742564">
        <ele>329.574638</ele>
        <time>2021-11-16T23:55:42.726Z</time>
      </trkpt>
      <trkpt lat="47.641903" lon="7.742471">
        <ele>329.558137</ele>
        <time>2021-11-16T23:55:43.743Z</time>
      </trkpt>
      <trkpt lat="47.641935" lon="7.742324">
        <ele>329.531579</ele>
        <time>2021-11-16T23:55:45.315Z</time>
      </trkpt>
      <trkpt lat="47.641952" lon="7.742244">
        <ele>329.517158</ele>
        <time>2021-11-16T23:55:46.123Z</time>
      </trkpt>
      <trkpt lat="47.641960" lon="7.742153">
        <ele>329.501381</ele>
        <time>2021-11-16T23:55:46.981Z</time>
      </trkpt>
      <trkpt lat="47.641958" lon="7.742061">
        <ele>329.485556</ele>
        <time>2021-11-16T23:55:47.854Z</time>
      </trkpt>
      <trkpt lat="47.641954" lon="7.741976">
        <ele>329.470908</ele>
        <time>2021-11-16T23:55:48.677Z</time>
      </trkpt>
      <trkpt lat="47.641997" lon="7.741966">
        <ele>329.459802</ele>
        <time>2021-11-16T23:55:49.410Z</time>
      </trkpt>
      <trkpt lat="47.642066" lon="7.741908">
        <ele>329.439569</ele>
        <time>2021-11-16T23:55:50.615Z</time>
      </trkpt>
      <trkpt lat="47.642209" lon="7.741595">
        <ele>329.473878</ele>
        <time>2021-11-16T23:55:54.384Z</time>
      </trkpt>
      <trkpt lat="47.642274" lon="7.741453">
        <ele>329.498347</ele>
        <time>2021-11-16T23:55:56.222Z</time>
      </trkpt>
      <trkpt lat="47.642394" lon="7.741202">
        <ele>329.542213</ele>
        <time>2021-11-16T23:55:59.301Z</time>
      </trkpt>
      <trkpt lat="47.642519" lon="7.740966">
        <ele>329.585000</ele>
        <time>2021-11-16T23:56:02.520Z</time>
      </trkpt>
      <trkpt lat="47.642647" lon="7.740709">
        <ele>329.630551</ele>
        <time>2021-11-16T23:56:05.878Z</time>
      </trkpt>
      <trkpt lat="47.642798" lon="7.740374">
        <ele>329.687999</ele>
        <time>2021-11-16T23:56:10.265Z</time>
      </trkpt>
      <trkpt lat="47.642822" lon="7.740329">
        <ele>329.696179</ele>
        <time>2021-11-16T23:56:10.859Z</time>
      </trkpt>
      <trkpt lat="47.642862" lon="7.740256">
        <ele>329.709590</ele>
        <time>2021-11-16T23:56:11.969Z</time>
      </trkpt>
      <trkpt lat="47.642911" lon="7.740194">
        <ele>329.723211</ele>
        <time>2021-11-16T23:56:13.069Z</time>
      </trkpt>
      <trkpt lat="47.642922" lon="7.740181">
        <ele>329.726185</ele>
        <time>2021-11-16T23:56:13.297Z</time>
      </trkpt>
      <trkpt lat="47.642972" lon="7.740117">
        <ele>329.740153</ele>
        <time>2021-11-16T23:56:14.344Z</time>
      </trkpt>
      <trkpt lat="47.643121" lon="7.740032">
        <ele>329.773921</ele>
        <time>2021-11-16T23:56:16.936Z</time>
      </trkpt>
      <trkpt lat="47.643168" lon="7.740007">
        <ele>329.784483</ele>
        <time>2021-11-16T23:56:17.774Z</time>
      </trkpt>
      <trkpt lat="47.643301" lon="7.739935">
        <ele>329.804556</ele>
        <time>2021-11-16T23:56:20.081Z</time>
      </trkpt>
      <trkpt lat="47.643475" lon="7.739785">
        <ele>329.764364</ele>
        <time>2021-11-16T23:56:23.330Z</time>
      </trkpt>
      <trkpt lat="47.643539" lon="7.739705">
        <ele>329.747651</ele>
        <time>2021-11-16T23:56:24.666Z</time>
      </trkpt>
      <trkpt lat="47.643618" lon="7.739581">
        <ele>329.724684</ele>
        <time>2021-11-16T23:56:26.428Z</time>
      </trkpt>
      <trkpt lat="47.643638" lon="7.739481">
        <ele>329.710646</ele>
        <time>2021-11-16T23:56:27.557Z</time>
      </trkpt>
      <trkpt lat="47.643623" lon="7.739386">
        <ele>329.697515</ele>
        <time>2021-11-16T23:56:28.588Z</time>
      </trkpt>
      <trkpt lat="47.643599" lon="7.739305">
        <ele>329.685607</ele>
        <time>2021-11-16T23:56:29.428Z</time>
      </trkpt>
      <trkpt lat="47.643579" lon="7.739273">
        <ele>329.679733</ele>
        <time>2021-11-16T23:56:29.848Z</time>
      </trkpt>
      <trkpt lat="47.643448" lon="7.739145">
        <ele>329.648406</ele>
        <time>2021-11-16T23:56:32.021Z</time>
      </trkpt>
      <trkpt lat="47.643361" lon="7.739082">
        <ele>329.629070</ele>
        <time>2021-11-16T23:56:33.471Z</time>
      </trkpt>
      <trkpt lat="47.643127" lon="7.738912">
        <ele>329.577032</ele>
        <time>2021-11-16T23:56:36.871Z</time>
      </trkpt>
      <trkpt lat="47.642672" lon="7.738698">
        <ele>329.481695</ele>
        <time>2021-11-16T23:56:43.278Z</time>
      </trkpt>
      <trkpt lat="47.642315" lon="7.738532">
        <ele>329.297568</ele>
        <time>2021-11-16T23:56:48.151Z</time>
      </trkpt>
      <trkpt lat="47.642140" lon="7.738440">
        <ele>329.166394</ele>
        <time>2021-11-16T23:56:50.508Z</time>
      </trkpt>
      <trkpt lat="47.641927" lon="7.738094">
        <ele>328.943280</ele>
        <time>2021-11-16T23:56:54.512Z</time>
      </trkpt>
      <trkpt lat="47.641898" lon="7.737895">
        <ele>328.846356</ele>
        <time>2021-11-16T23:56:56.180Z</time>
      </trkpt>
      <trkpt lat="47.641923" lon="7.737088">
        <ele>328.461778</ele>
        <time>2021-11-16T23:57:03.151Z</time>
      </trkpt>
      <trkpt lat="47.641903" lon="7.736757">
        <ele>328.303573</ele>
        <time>2021-11-16T23:57:05.954Z</time>
      </trkpt>
      <trkpt lat="47.641790" lon="7.736333">
        <ele>328.101923</ele>
        <time>2021-11-16T23:57:09.843Z</time>
      </trkpt>
      <trkpt lat="47.641704" lon="7.736074">
        <ele>327.987312</ele>
        <time>2021-11-16T23:57:12.425Z</time>
      </trkpt>
      <trkpt lat="47.641622" lon="7.735797">
        <ele>327.867218</ele>
        <time>2021-11-16T23:57:15.007Z</time>
      </trkpt>
      <trkpt lat="47.641567" lon="7.735539">
        <ele>327.759806</ele>
        <time>2021-11-16T23:57:17.430Z</time>
      </trkpt>
      <trkpt lat="47.641599" lon="7.734994">
        <ele>327.542659</ele>
        <time>2021-11-16T23:57:22.285Z</time>
      </trkpt>
      <trkpt lat="47.641789" lon="7.734288">
        <ele>327.240899</ele>
        <time>2021-11-16T23:57:28.994Z</time>
      </trkpt>
      <trkpt lat="47.641896" lon="7.733974">
        <ele>327.097329</ele>
        <time>2021-11-16T23:57:32.077Z</time>
      </trkpt>
      <trkpt lat="47.642073" lon="7.733685">
        <ele>326.909436</ele>
        <time>2021-11-16T23:57:35.578Z</time>
      </trkpt>
      <trkpt lat="47.642195" lon="7.733475">
        <ele>326.776037</ele>
        <time>2021-11-16T23:57:38.059Z</time>
      </trkpt>
      <trkpt lat="47.642261" lon="7.733306">
        <ele>326.682063</ele>
        <time>2021-11-16T23:57:39.779Z</time>
      </trkpt>
      <trkpt lat="47.642344" lon="7.733092">
        <ele>326.563271</ele>
        <time>2021-11-16T23:57:41.910Z</time>
      </trkpt>
      <trkpt lat="47.642408" lon="7.732927">
        <ele>326.471677</ele>
        <time>2021-11-16T23:57:43.570Z</time>
      </trkpt>
      <trkpt lat="47.642435" lon="7.732816">
        <ele>326.414903</ele>
        <time>2021-11-16T23:57:44.580Z</time>
      </trkpt>
      <trkpt lat="47.642652" lon="7.731911">
        <ele>325.952772</ele>
        <time>2021-11-16T23:57:52.721Z</time>
      </trkpt>
      <trkpt lat="47.642752" lon="7.731418">
        <ele>325.679367</ele>
        <time>2021-11-16T23:57:57.041Z</time>
      </trkpt>
      <trkpt lat="47.642777" lon="7.731298">
        <ele>325.607010</ele>
        <time>2021-11-16T23:57:58.097Z</time>
      </trkpt>
      <trkpt lat="47.642812" lon="7.731060">
        <ele>325.466678</ele>
        <time>2021-11-16T23:58:00.140Z</time>
      </trkpt>
      <trkpt lat="47.642863" lon="7.730665">
        <ele>325.234991</ele>
        <time>2021-11-16T23:58:03.402Z</time>
      </trkpt>
      <trkpt lat="47.642944" lon="7.730005">
        <ele>324.848532</ele>
        <time>2021-11-16T23:58:09.054Z</time>
      </trkpt>
      <trkpt lat="47.643034" lon="7.729585">
        <ele>324.594642</ele>
        <time>2021-11-16T23:58:12.711Z</time>
      </trkpt>
      <trkpt lat="47.643209" lon="7.728752">
        <ele>324.154447</ele>
        <time>2021-11-16T23:58:20.265Z</time>
      </trkpt>
      <trkpt lat="47.643226" lon="7.728673">
        <ele>324.121194</ele>
        <time>2021-11-16T23:58:20.893Z</time>
      </trkpt>
      <trkpt lat="47.643271" lon="7.728166">
        <ele>323.916146</ele>
        <time>2021-11-16T23:58:25.464Z</time>
      </trkpt>
      <trkpt lat="47.643223" lon="7.727611">
        <ele>323.691782</ele>
        <time>2021-11-16T23:58:30.352Z</time>
      </trkpt>
      <trkpt lat="47.643078" lon="7.727124">
        <ele>323.478293</ele>
        <time>2021-11-16T23:58:35.119Z</time>
      </trkpt>
      <trkpt lat="47.642780" lon="7.726673">
        <ele>323.225010</ele>
        <time>2021-11-16T23:58:40.708Z</time>
      </trkpt>
      <trkpt lat="47.642747" lon="7.726635">
        <ele>323.200228</ele>
        <time>2021-11-16T23:58:41.397Z</time>
      </trkpt>
      <trkpt lat="47.642298" lon="7.726232">
        <ele>322.888899</ele>
        <time>2021-11-16T23:58:48.333Z</time>
      </trkpt>
      <trkpt lat="47.642075" lon="7.725935">
        <ele>322.711126</ele>
        <time>2021-11-16T23:58:52.341Z</time>
      </trkpt>
      <trkpt lat="47.641806" lon="7.725383">
        <ele>322.438786</ele>
        <time>2021-11-16T23:58:58.312Z</time>
      </trkpt>
      <trkpt lat="47.641621" lon="7.724812">
        <ele>322.185500</ele>
        <time>2021-11-16T23:59:03.874Z</time>
      </trkpt>
      <trkpt lat="47.641338" lon="7.723656">
        <ele>321.177296</ele>
        <time>2021-11-16T23:59:13.829Z</time>
      </trkpt>
      <trkpt lat="47.641072" lon="7.722626">
        <ele>320.247581</ele>
        <time>2021-11-16T23:59:22.451Z</time>
      </trkpt>
      <trkpt lat="47.640984" lon="7.722331">
        <ele>319.975662</ele>
        <time>2021-11-16T23:59:24.939Z</time>
      </trkpt>
      <trkpt lat="47.640966" lon="7.722267">
        <ele>319.917209</ele>
        <time>2021-11-16T23:59:25.471Z</time>
      </trkpt>
      <trkpt lat="47.640786" lon="7.721766">
        <ele>319.483106</ele>
        <time>2021-11-16T23:59:29.913Z</time>
      </trkpt>
      <trkpt lat="47.640553" lon="7.721064">
        <ele>318.885748</ele>
        <time>2021-11-16T23:59:36.172Z</time>
      </trkpt>
      <trkpt lat="47.640301" lon="7.720147">
        <ele>318.129774</ele>
        <time>2021-11-16T23:59:44.132Z</time>
      </trkpt>
      <trkpt lat="47.640077" lon="7.719090">
        <ele>317.617031</ele>
        <time>2021-11-16T23:59:53.877Z</time>
      </trkpt>
      <trkpt lat="47.640089" lon="7.717983">
        <ele>317.250507</ele>
        <time>2021-11-17T00:00:04.232Z</time>
      </trkpt>
      <trkpt lat="47.640337" lon="7.716172">
        <ele>316.536933</ele>
        <time>2021-11-17T00:00:20.722Z</time>
      </trkpt>
      <trkpt lat="47.640377" lon="7.714779">
        <ele>315.941004</ele>
        <time>2021-11-17T00:00:32.707Z</time>
      </trkpt>
      <trkpt lat="47.640426" lon="7.714418">
        <ele>315.764636</ele>
        <time>2021-11-17T00:00:49.964Z</time>
      </trkpt>
      <trkpt lat="47.640600" lon="7.713570">
        <ele>315.273085</ele>
        <time>2021-11-17T00:01:31.482Z</time>
      </trkpt>
      <trkpt lat="47.640658" lon="7.713286">
        <ele>315.108528</ele>
        <time>2021-11-17T00:01:45.379Z</time>
      </trkpt>
      <trkpt lat="47.640852" lon="7.712341">
        <ele>314.560729</ele>
        <time>2021-11-17T00:02:31.630Z</time>
      </trkpt>
      <trkpt lat="47.640881" lon="7.712240">
        <ele>314.499850</ele>
        <time>2021-11-17T00:02:36.769Z</time>
      </trkpt>
      <trkpt lat="47.641144" lon="7.712131">
        <ele>314.271810</ele>
        <time>2021-11-17T00:02:55.749Z</time>
      </trkpt>
      <trkpt lat="47.641635" lon="7.711815">
        <ele>313.815507</ele>
        <time>2021-11-17T00:03:32.987Z</time>
      </trkpt>
      <trkpt lat="47.641900" lon="7.711551">
        <ele>313.543382</ele>
        <time>2021-11-17T00:03:55.159Z</time>
      </trkpt>
      <trkpt lat="47.642146" lon="7.711201">
        <ele>313.252832</ele>
        <time>2021-11-17T00:04:18.807Z</time>
      </trkpt>
      <trkpt lat="47.642355" lon="7.710752">
        <ele>312.939329</ele>
        <time>2021-11-17T00:04:44.394Z</time>
      </trkpt>
      <trkpt lat="47.642530" lon="7.710206">
        <ele>312.678730</ele>
        <time>2021-11-17T00:05:12.689Z</time>
      </trkpt>
      <trkpt lat="47.642627" lon="7.709732">
        <ele>312.496331</ele>
        <time>2021-11-17T00:05:35.868Z</time>
      </trkpt>
      <trkpt lat="47.642648" lon="7.709631">
        <ele>312.457412</ele>
        <time>2021-11-17T00:05:40.815Z</time>
      </trkpt>
      <trkpt lat="47.642720" lon="7.708963">
        <ele>312.208328</ele>
        <time>2021-11-17T00:06:12.498Z</time>
      </trkpt>
      <trkpt lat="47.642704" lon="7.708162">
        <ele>311.913272</ele>
        <time>2021-11-17T00:06:50.026Z</time>
      </trkpt>
      <trkpt lat="47.642495" lon="7.706705">
        <ele>311.464245</ele>
        <time>2021-11-17T00:07:59.762Z</time>
      </trkpt>
      <trkpt lat="47.642217" lon="7.705535">
        <ele>311.100962</ele>
        <time>2021-11-17T00:08:57.852Z</time>
      </trkpt>
      <trkpt lat="47.642140" lon="7.704896">
        <ele>310.904496</ele>
        <time>2021-11-17T00:09:28.265Z</time>
      </trkpt>
      <trkpt lat="47.642168" lon="7.704257">
        <ele>310.709412</ele>
        <time>2021-11-17T00:09:33.984Z</time>
      </trkpt>
      <trkpt lat="47.642231" lon="7.703875">
        <ele>310.589600</ele>
        <time>2021-11-17T00:09:37.500Z</time>
      </trkpt>
      <trkpt lat="47.642493" lon="7.702850">
        <ele>310.255631</ele>
        <time>2021-11-17T00:09:47.439Z</time>
      </trkpt>
      <trkpt lat="47.642695" lon="7.702295">
        <ele>310.258445</ele>
        <time>2021-11-17T00:09:53.240Z</time>
      </trkpt>
      <trkpt lat="47.642742" lon="7.702215">
        <ele>310.258919</ele>
        <time>2021-11-17T00:09:54.290Z</time>
      </trkpt>
      <trkpt lat="47.642870" lon="7.701997">
        <ele>310.260209</ele>
        <time>2021-11-17T00:09:57.069Z</time>
      </trkpt>
      <trkpt lat="47.642878" lon="7.701983">
        <ele>310.260291</ele>
        <time>2021-11-17T00:09:57.246Z</time>
      </trkpt>
      <trkpt lat="47.642924" lon="7.701899">
        <ele>310.260774</ele>
        <time>2021-11-17T00:09:58.322Z</time>
      </trkpt>
      <trkpt lat="47.643468" lon="7.701190">
        <ele>310.265569</ele>
        <time>2021-11-17T00:10:09.380Z</time>
      </trkpt>
      <trkpt lat="47.643665" lon="7.700847">
        <ele>310.269525</ele>
        <time>2021-11-17T00:10:14.272Z</time>
      </trkpt>
      <trkpt lat="47.643895" lon="7.700099">
        <ele>310.463593</ele>
        <time>2021-11-17T00:10:23.359Z</time>
      </trkpt>
      <trkpt lat="47.643937" lon="7.699377">
        <ele>310.634639</ele>
        <time>2021-11-17T00:10:31.258Z</time>
      </trkpt>
      <trkpt lat="47.643926" lon="7.698996">
        <ele>310.724648</ele>
        <time>2021-11-17T00:10:35.327Z</time>
      </trkpt>
      <trkpt lat="47.643899" lon="7.698592">
        <ele>310.820472</ele>
        <time>2021-11-17T00:10:39.710Z</time>
      </trkpt>
      <trkpt lat="47.643975" lon="7.697534">
        <ele>311.025567</ele>
        <time>2021-11-17T00:10:51.700Z</time>
      </trkpt>
      <trkpt lat="47.643987" lon="7.697129">
        <ele>311.095926</ele>
        <time>2021-11-17T00:10:56.152Z</time>
      </trkpt>
      <trkpt lat="47.643978" lon="7.696873">
        <ele>311.140418</ele>
        <time>2021-11-17T00:10:59.259Z</time>
      </trkpt>
      <trkpt lat="47.643930" lon="7.696619">
        <ele>311.186203</ele>
        <time>2021-11-17T00:11:01.986Z</time>
      </trkpt>
      <trkpt lat="47.643898" lon="7.696505">
        <ele>311.207638</ele>
        <time>2021-11-17T00:11:03.473Z</time>
      </trkpt>
      <trkpt lat="47.643608" lon="7.695441">
        <ele>311.321392</ele>
        <time>2021-11-17T00:11:14.844Z</time>
      </trkpt>
      <trkpt lat="47.643574" lon="7.695337">
        <ele>311.304057</ele>
        <time>2021-11-17T00:11:15.872Z</time>
      </trkpt>
      <trkpt lat="47.643504" lon="7.695125">
        <ele>311.268653</ele>
        <time>2021-11-17T00:11:18.152Z</time>
      </trkpt>
      <trkpt lat="47.643275" lon="7.694648">
        <ele>311.180821</ele>
        <time>2021-11-17T00:11:23.855Z</time>
      </trkpt>
      <trkpt lat="47.643174" lon="7.694479">
        <ele>311.146944</ele>
        <time>2021-11-17T00:11:26.017Z</time>
      </trkpt>
      <trkpt lat="47.643091" lon="7.694325">
        <ele>311.117370</ele>
        <time>2021-11-17T00:11:27.953Z</time>
      </trkpt>
      <trkpt lat="47.642923" lon="7.693980">
        <ele>311.053535</ele>
        <time>2021-11-17T00:11:31.931Z</time>
      </trkpt>
      <trkpt lat="47.642878" lon="7.693814">
        <ele>311.026702</ele>
        <time>2021-11-17T00:11:33.653Z</time>
      </trkpt>
      <trkpt lat="47.642838" lon="7.693571">
        <ele>310.989190</ele>
        <time>2021-11-17T00:11:35.903Z</time>
      </trkpt>
      <trkpt lat="47.642813" lon="7.693423">
        <ele>310.966309</ele>
        <time>2021-11-17T00:11:37.297Z</time>
      </trkpt>
      <trkpt lat="47.642769" lon="7.692680">
        <ele>310.445938</ele>
        <time>2021-11-17T00:11:43.802Z</time>
      </trkpt>
      <trkpt lat="47.642688" lon="7.692211">
        <ele>310.094058</ele>
        <time>2021-11-17T00:11:47.738Z</time>
      </trkpt>
      <trkpt lat="47.642598" lon="7.691781">
        <ele>309.766810</ele>
        <time>2021-11-17T00:11:51.371Z</time>
      </trkpt>
      <trkpt lat="47.642473" lon="7.691337">
        <ele>309.417080</ele>
        <time>2021-11-17T00:11:55.227Z</time>
      </trkpt>
      <trkpt lat="47.642386" lon="7.691121">
        <ele>309.234182</ele>
        <time>2021-11-17T00:11:57.263Z</time>
      </trkpt>
      <trkpt lat="47.641908" lon="7.690348">
        <ele>308.076277</ele>
        <time>2021-11-17T00:12:05.357Z</time>
      </trkpt>
      <trkpt lat="47.641094" lon="7.688925">
        <ele>305.742285</ele>
        <time>2021-11-17T00:12:18.963Z</time>
      </trkpt>
      <trkpt lat="47.640572" lon="7.688417">
        <ele>305.079020</ele>
        <time>2021-11-17T00:12:26.160Z</time>
      </trkpt>
      <trkpt lat="47.640498" lon="7.688336">
        <ele>304.985277</ele>
        <time>2021-11-17T00:12:27.129Z</time>
      </trkpt>
      <trkpt lat="47.640307" lon="7.687981">
        <ele>304.673212</ele>
        <time>2021-11-17T00:12:30.862Z</time>
      </trkpt>
      <trkpt lat="47.640138" lon="7.687577">
        <ele>304.346558</ele>
        <time>2021-11-17T00:12:34.871Z</time>
      </trkpt>
      <trkpt lat="47.639603" lon="7.685917">
        <ele>303.963534</ele>
        <time>2021-11-17T00:12:52.662Z</time>
      </trkpt>
      <trkpt lat="47.639535" lon="7.685723">
        <ele>303.986002</ele>
        <time>2021-11-17T00:12:55.084Z</time>
      </trkpt>
      <trkpt lat="47.639365" lon="7.685244">
        <ele>304.041625</ele>
        <time>2021-11-17T00:13:01.110Z</time>
      </trkpt>
      <trkpt lat="47.639233" lon="7.684970">
        <ele>304.076232</ele>
        <time>2021-11-17T00:13:04.777Z</time>
      </trkpt>
      <trkpt lat="47.639195" lon="7.684892">
        <ele>304.086121</ele>
        <time>2021-11-17T00:13:05.847Z</time>
      </trkpt>
      <trkpt lat="47.638975" lon="7.684532">
        <ele>304.135510</ele>
        <time>2021-11-17T00:13:11.179Z</time>
      </trkpt>
      <trkpt lat="47.639001" lon="7.684470">
        <ele>304.142695</ele>
        <time>2021-11-17T00:13:12.095Z</time>
      </trkpt>
      <trkpt lat="47.639006" lon="7.684397">
        <ele>304.149914</ele>
        <time>2021-11-17T00:13:12.922Z</time>
      </trkpt>
      <trkpt lat="47.638989" lon="7.684329">
        <ele>304.157051</ele>
        <time>2021-11-17T00:13:13.895Z</time>
      </trkpt>
      <trkpt lat="47.638955" lon="7.684280">
        <ele>304.163971</ele>
        <time>2021-11-17T00:13:14.562Z</time>
      </trkpt>
      <trkpt lat="47.638863" lon="7.684265">
        <ele>304.177486</ele>
        <time>2021-11-17T00:13:16.127Z</time>
      </trkpt>
      <trkpt lat="47.638822" lon="7.684303">
        <ele>304.184544</ele>
        <time>2021-11-17T00:13:16.745Z</time>
      </trkpt>
      <trkpt lat="47.638653" lon="7.684040">
        <ele>304.220301</ele>
        <time>2021-11-17T00:13:20.897Z</time>
      </trkpt>
      <trkpt lat="47.638372" lon="7.683486">
        <ele>304.288527</ele>
        <time>2021-11-17T00:13:28.090Z</time>
      </trkpt>
      <trkpt lat="47.637949" lon="7.682314">
        <ele>304.242850</ele>
        <time>2021-11-17T00:13:41.025Z</time>
      </trkpt>
      <trkpt lat="47.637862" lon="7.681907">
        <ele>304.063719</ele>
        <time>2021-11-17T00:13:45.027Z</time>
      </trkpt>
      <trkpt lat="47.637803" lon="7.681627">
        <ele>303.940643</ele>
        <time>2021-11-17T00:13:47.681Z</time>
      </trkpt>
      <trkpt lat="47.637735" lon="7.681275">
        <ele>303.787022</ele>
        <time>2021-11-17T00:13:50.964Z</time>
      </trkpt>
      <trkpt lat="47.637693" lon="7.681059">
        <ele>303.692708</ele>
        <time>2021-11-17T00:13:52.808Z</time>
      </trkpt>
      <trkpt lat="47.637516" lon="7.680250">
        <ele>303.335870</ele>
        <time>2021-11-17T00:13:59.997Z</time>
      </trkpt>
      <trkpt lat="47.637355" lon="7.679755">
        <ele>302.968521</ele>
        <time>2021-11-17T00:14:04.440Z</time>
      </trkpt>
      <trkpt lat="47.637259" lon="7.679526">
        <ele>302.759077</ele>
        <time>2021-11-17T00:14:06.547Z</time>
      </trkpt>
      <trkpt lat="47.637023" lon="7.679013">
        <ele>302.276699</ele>
        <time>2021-11-17T00:14:11.522Z</time>
      </trkpt>
      <trkpt lat="47.636923" lon="7.678721">
        <ele>302.022330</ele>
        <time>2021-11-17T00:14:14.191Z</time>
      </trkpt>
      <trkpt lat="47.636832" lon="7.678413">
        <ele>301.761160</ele>
        <time>2021-11-17T00:14:16.866Z</time>
      </trkpt>
      <trkpt lat="47.636749" lon="7.678128">
        <ele>301.520046</ele>
        <time>2021-11-17T00:14:19.368Z</time>
      </trkpt>
      <trkpt lat="47.636457" lon="7.677161">
        <ele>300.883989</ele>
        <time>2021-11-17T00:14:27.883Z</time>
      </trkpt>
      <trkpt lat="47.636415" lon="7.676977">
        <ele>300.789969</ele>
        <time>2021-11-17T00:14:29.470Z</time>
      </trkpt>
      <trkpt lat="47.636379" lon="7.676790">
        <ele>300.695846</ele>
        <time>2021-11-17T00:14:31.158Z</time>
      </trkpt>
      <trkpt lat="47.636324" lon="7.676428">
        <ele>300.516251</ele>
        <time>2021-11-17T00:14:34.182Z</time>
      </trkpt>
      <trkpt lat="47.636311" lon="7.676340">
        <ele>300.472651</ele>
        <time>2021-11-17T00:14:34.972Z</time>
      </trkpt>
      <trkpt lat="47.636308" lon="7.676290">
        <ele>300.448356</ele>
        <time>2021-11-17T00:14:35.447Z</time>
      </trkpt>
      <trkpt lat="47.636278" lon="7.676133">
        <ele>300.369377</ele>
        <time>2021-11-17T00:14:36.910Z</time>
      </trkpt>
      <trkpt lat="47.636199" lon="7.675898">
        <ele>300.242277</ele>
        <time>2021-11-17T00:14:39.206Z</time>
      </trkpt>
      <trkpt lat="47.636128" lon="7.675692">
        <ele>300.130294</ele>
        <time>2021-11-17T00:14:41.530Z</time>
      </trkpt>
      <trkpt lat="47.635792" lon="7.674789">
        <ele>299.811583</ele>
        <time>2021-11-17T00:14:51.204Z</time>
      </trkpt>
      <trkpt lat="47.635682" lon="7.674470">
        <ele>299.754050</ele>
        <time>2021-11-17T00:14:54.485Z</time>
      </trkpt>
      <trkpt lat="47.635626" lon="7.674224">
        <ele>299.712361</ele>
        <time>2021-11-17T00:14:57.002Z</time>
      </trkpt>
      <trkpt lat="47.635594" lon="7.673886">
        <ele>299.657560</ele>
        <time>2021-11-17T00:15:00.029Z</time>
      </trkpt>
      <trkpt lat="47.635535" lon="7.673501">
        <ele>299.594169</ele>
        <time>2021-11-17T00:15:03.793Z</time>
      </trkpt>
      <trkpt lat="47.635491" lon="7.673324">
        <ele>299.563879</ele>
        <time>2021-11-17T00:15:05.560Z</time>
      </trkpt>
      <trkpt lat="47.635475" lon="7.673250">
        <ele>299.551401</ele>
        <time>2021-11-17T00:15:06.416Z</time>
      </trkpt>
      <trkpt lat="47.635387" lon="7.672979">
        <ele>299.503102</ele>
        <time>2021-11-17T00:15:09.247Z</time>
      </trkpt>
      <trkpt lat="47.635256" lon="7.672698">
        <ele>299.525897</ele>
        <time>2021-11-17T00:15:12.796Z</time>
      </trkpt>
      <trkpt lat="47.635163" lon="7.672505">
        <ele>299.609047</ele>
        <time>2021-11-17T00:15:14.983Z</time>
      </trkpt>
      <trkpt lat="47.635139" lon="7.672456">
        <ele>299.630275</ele>
        <time>2021-11-17T00:15:15.587Z</time>
      </trkpt>
      <trkpt lat="47.634938" lon="7.671873">
        <ele>299.859774</ele>
        <time>2021-11-17T00:15:22.484Z</time>
      </trkpt>
      <trkpt lat="47.634883" lon="7.671522">
        <ele>299.986062</ele>
        <time>2021-11-17T00:15:26.102Z</time>
      </trkpt>
      <trkpt lat="47.634796" lon="7.671049">
        <ele>300.157888</ele>
        <time>2021-11-17T00:15:31.554Z</time>
      </trkpt>
      <trkpt lat="47.634627" lon="7.670463">
        <ele>300.381267</ele>
        <time>2021-11-17T00:15:39.768Z</time>
      </trkpt>
      <trkpt lat="47.634441" lon="7.669401">
        <ele>301.069542</ele>
        <time>2021-11-17T00:15:56.732Z</time>
      </trkpt>
      <trkpt lat="47.634401" lon="7.669133">
        <ele>301.247408</ele>
        <time>2021-11-17T00:16:00.281Z</time>
      </trkpt>
      <trkpt lat="47.634300" lon="7.668502">
        <ele>301.667658</ele>
        <time>2021-11-17T00:16:08.986Z</time>
      </trkpt>
      <trkpt lat="47.634240" lon="7.668207">
        <ele>301.867328</ele>
        <time>2021-11-17T00:16:11.771Z</time>
      </trkpt>
      <trkpt lat="47.634226" lon="7.668142">
        <ele>301.911546</ele>
        <time>2021-11-17T00:16:12.546Z</time>
      </trkpt>
      <trkpt lat="47.634116" lon="7.667864">
        <ele>302.120443</ele>
        <time>2021-11-17T00:16:16.177Z</time>
      </trkpt>
      <trkpt lat="47.633954" lon="7.667571">
        <ele>301.748421</ele>
        <time>2021-11-17T00:16:19.386Z</time>
      </trkpt>
      <trkpt lat="47.633883" lon="7.667489">
        <ele>301.601020</ele>
        <time>2021-11-17T00:16:20.995Z</time>
      </trkpt>
      <trkpt lat="47.633741" lon="7.667324">
        <ele>301.305539</ele>
        <time>2021-11-17T00:16:23.026Z</time>
      </trkpt>
      <trkpt lat="47.633639" lon="7.667236">
        <ele>301.112236</ele>
        <time>2021-11-17T00:16:24.806Z</time>
      </trkpt>
      <trkpt lat="47.633452" lon="7.667196">
        <ele>300.802696</ele>
        <time>2021-11-17T00:16:26.893Z</time>
      </trkpt>
      <trkpt lat="47.633224" lon="7.667186">
        <ele>300.428987</ele>
        <time>2021-11-17T00:16:29.797Z</time>
      </trkpt>
      <trkpt lat="47.633104" lon="7.667189">
        <ele>300.232355</ele>
        <time>2021-11-17T00:16:30.965Z</time>
      </trkpt>
      <trkpt lat="47.632731" lon="7.667140">
        <ele>299.618857</ele>
        <time>2021-11-17T00:16:34.906Z</time>
      </trkpt>
      <trkpt lat="47.632565" lon="7.667038">
        <ele>299.324495</ele>
        <time>2021-11-17T00:16:36.827Z</time>
      </trkpt>
      <trkpt lat="47.632236" lon="7.666727">
        <ele>298.467420</ele>
        <time>2021-11-17T00:16:40.777Z</time>
      </trkpt>
      <trkpt lat="47.632091" lon="7.666470">
        <ele>297.937740</ele>
        <time>2021-11-17T00:16:43.073Z</time>
      </trkpt>
      <trkpt lat="47.631947" lon="7.665931">
        <ele>297.021472</ele>
        <time>2021-11-17T00:16:47.118Z</time>
      </trkpt>
      <trkpt lat="47.631896" lon="7.665740">
        <ele>296.696807</ele>
        <time>2021-11-17T00:16:48.656Z</time>
      </trkpt>
      <trkpt lat="47.631747" lon="7.664416">
        <ele>294.787689</ele>
        <time>2021-11-17T00:16:58.771Z</time>
      </trkpt>
      <trkpt lat="47.631716" lon="7.664272">
        <ele>294.676334</ele>
        <time>2021-11-17T00:16:59.964Z</time>
      </trkpt>
      <trkpt lat="47.631607" lon="7.663883">
        <ele>294.366002</ele>
        <time>2021-11-17T00:17:03.278Z</time>
      </trkpt>
      <trkpt lat="47.631459" lon="7.663529">
        <ele>294.059128</ele>
        <time>2021-11-17T00:17:06.631Z</time>
      </trkpt>
      <trkpt lat="47.631255" lon="7.663153">
        <ele>293.703545</ele>
        <time>2021-11-17T00:17:10.680Z</time>
      </trkpt>
      <trkpt lat="47.630969" lon="7.662627">
        <ele>293.205683</ele>
        <time>2021-11-17T00:17:16.399Z</time>
      </trkpt>
      <trkpt lat="47.630740" lon="7.662152">
        <ele>292.941837</ele>
        <time>2021-11-17T00:17:21.350Z</time>
      </trkpt>
      <trkpt lat="47.630537" lon="7.661731">
        <ele>292.834694</ele>
        <time>2021-11-17T00:17:25.991Z</time>
      </trkpt>
      <trkpt lat="47.630468" lon="7.661618">
        <ele>292.803133</ele>
        <time>2021-11-17T00:17:27.390Z</time>
      </trkpt>
      <trkpt lat="47.630371" lon="7.661465">
        <ele>292.759656</ele>
        <time>2021-11-17T00:17:29.300Z</time>
      </trkpt>
      <trkpt lat="47.630333" lon="7.661403">
        <ele>292.742310</ele>
        <time>2021-11-17T00:17:30.119Z</time>
      </trkpt>
      <trkpt lat="47.630301" lon="7.661352">
        <ele>292.727888</ele>
        <time>2021-11-17T00:17:30.757Z</time>
      </trkpt>
      <trkpt lat="47.630245" lon="7.661264">
        <ele>292.702837</ele>
        <time>2021-11-17T00:17:31.968Z</time>
      </trkpt>
      <trkpt lat="47.630226" lon="7.661234">
        <ele>292.694316</ele>
        <time>2021-11-17T00:17:32.374Z</time>
      </trkpt>
      <trkpt lat="47.630136" lon="7.661090">
        <ele>292.653667</ele>
        <time>2021-11-17T00:17:34.354Z</time>
      </trkpt>
      <trkpt lat="47.630113" lon="7.661055">
        <ele>292.643549</ele>
        <time>2021-11-17T00:17:34.828Z</time>
      </trkpt>
      <trkpt lat="47.630088" lon="7.661016">
        <ele>292.632409</ele>
        <time>2021-11-17T00:17:35.345Z</time>
      </trkpt>
      <trkpt lat="47.630074" lon="7.660993">
        <ele>292.625994</ele>
        <time>2021-11-17T00:17:35.606Z</time>
      </trkpt>
      <trkpt lat="47.629847" lon="7.660640">
        <ele>292.525007</ele>
        <time>2021-11-17T00:17:40.448Z</time>
      </trkpt>
      <trkpt lat="47.629754" lon="7.660495">
        <ele>292.483576</ele>
        <time>2021-11-17T00:17:42.359Z</time>
      </trkpt>
      <trkpt lat="47.629556" lon="7.660152">
        <ele>292.404745</ele>
        <time>2021-11-17T00:17:46.851Z</time>
      </trkpt>
      <trkpt lat="47.629355" lon="7.659804">
        <ele>292.331474</ele>
        <time>2021-11-17T00:17:51.598Z</time>
      </trkpt>
      <trkpt lat="47.629064" lon="7.659209">
        <ele>292.213944</ele>
        <time>2021-11-17T00:17:58.477Z</time>
      </trkpt>
      <trkpt lat="47.628899" lon="7.658873">
        <ele>292.147480</ele>
        <time>2021-11-17T00:18:02.329Z</time>
      </trkpt>
      <trkpt lat="47.628592" lon="7.658294">
        <ele>292.029701</ele>
        <time>2021-11-17T00:18:09.150Z</time>
      </trkpt>
      <trkpt lat="47.628538" lon="7.658192">
        <ele>291.966458</ele>
        <time>2021-11-17T00:18:10.399Z</time>
      </trkpt>
      <trkpt lat="47.628458" lon="7.658044">
        <ele>291.867576</ele>
        <time>2021-11-17T00:18:12.015Z</time>
      </trkpt>
      <trkpt lat="47.628321" lon="7.657798">
        <ele>291.701252</ele>
        <time>2021-11-17T00:18:14.975Z</time>
      </trkpt>
      <trkpt lat="47.628261" lon="7.657704">
        <ele>291.633774</ele>
        <time>2021-11-17T00:18:16.032Z</time>
      </trkpt>
      <trkpt lat="47.628109" lon="7.657481">
        <ele>291.468467</ele>
        <time>2021-11-17T00:18:18.822Z</time>
      </trkpt>
      <trkpt lat="47.627886" lon="7.657228">
        <ele>291.251375</ele>
        <time>2021-11-17T00:18:22.310Z</time>
      </trkpt>
      <trkpt lat="47.627833" lon="7.657156">
        <ele>291.195803</ele>
        <time>2021-11-17T00:18:23.255Z</time>
      </trkpt>
      <trkpt lat="47.627796" lon="7.657096">
        <ele>291.153416</ele>
        <time>2021-11-17T00:18:24.001Z</time>
      </trkpt>
      <trkpt lat="47.627648" lon="7.656963">
        <ele>291.019605</ele>
        <time>2021-11-17T00:18:26.055Z</time>
      </trkpt>
      <trkpt lat="47.627519" lon="7.656866">
        <ele>290.907764</ele>
        <time>2021-11-17T00:18:27.882Z</time>
      </trkpt>
      <trkpt lat="47.627453" lon="7.656817">
        <ele>290.850690</ele>
        <time>2021-11-17T00:18:28.802Z</time>
      </trkpt>
      <trkpt lat="47.627090" lon="7.656600">
        <ele>290.545844</ele>
        <time>2021-11-17T00:18:33.429Z</time>
      </trkpt>
      <trkpt lat="47.627022" lon="7.656546">
        <ele>290.484725</ele>
        <time>2021-11-17T00:18:34.329Z</time>
      </trkpt>
      <trkpt lat="47.626886" lon="7.656437">
        <ele>290.362233</ele>
        <time>2021-11-17T00:18:36.231Z</time>
      </trkpt>
      <trkpt lat="47.626803" lon="7.656356">
        <ele>290.283508</ele>
        <time>2021-11-17T00:18:37.435Z</time>
      </trkpt>
      <trkpt lat="47.626748" lon="7.656303">
        <ele>290.231538</ele>
        <time>2021-11-17T00:18:38.241Z</time>
      </trkpt>
      <trkpt lat="47.626624" lon="7.656176">
        <ele>290.112137</ele>
        <time>2021-11-17T00:18:40.045Z</time>
      </trkpt>
      <trkpt lat="47.626545" lon="7.656094">
        <ele>290.035735</ele>
        <time>2021-11-17T00:18:41.271Z</time>
      </trkpt>
      <trkpt lat="47.626414" lon="7.655973">
        <ele>289.913452</ele>
        <time>2021-11-17T00:18:43.950Z</time>
      </trkpt>
      <trkpt lat="47.626390" lon="7.655951">
        <ele>289.891096</ele>
        <time>2021-11-17T00:18:44.419Z</time>
      </trkpt>
      <trkpt lat="47.626091" lon="7.655684">
        <ele>289.614550</ele>
        <time>2021-11-17T00:18:50.555Z</time>
      </trkpt>
      <trkpt lat="47.626043" lon="7.655643">
        <ele>289.570659</ele>
        <time>2021-11-17T00:18:51.530Z</time>
      </trkpt>
      <trkpt lat="47.625222" lon="7.654928">
        <ele>289.795966</ele>
        <time>2021-11-17T00:19:09.750Z</time>
      </trkpt>
      <trkpt lat="47.625007" lon="7.654737">
        <ele>290.089692</ele>
        <time>2021-11-17T00:19:15.095Z</time>
      </trkpt>
      <trkpt lat="47.624796" lon="7.654502">
        <ele>290.398937</ele>
        <time>2021-11-17T00:19:21.381Z</time>
      </trkpt>
      <trkpt lat="47.624628" lon="7.654306">
        <ele>290.649440</ele>
        <time>2021-11-17T00:19:26.574Z</time>
      </trkpt>
      <trkpt lat="47.624578" lon="7.654243">
        <ele>290.726328</ele>
        <time>2021-11-17T00:19:28.214Z</time>
      </trkpt>
      <trkpt lat="47.624417" lon="7.654036">
        <ele>290.976038</ele>
        <time>2021-11-17T00:19:34.035Z</time>
      </trkpt>
      <trkpt lat="47.624230" lon="7.653711">
        <ele>291.313624</ele>
        <time>2021-11-17T00:19:42.778Z</time>
      </trkpt>
      <trkpt lat="47.623984" lon="7.653230">
        <ele>293.817159</ele>
        <time>2021-11-17T00:19:57.646Z</time>
      </trkpt>
      <trkpt lat="47.623840" lon="7.652852">
        <ele>295.636251</ele>
        <time>2021-11-17T00:20:10.015Z</time>
      </trkpt>
      <trkpt lat="47.623719" lon="7.652535">
        <ele>297.162518</ele>
        <time>2021-11-17T00:20:22.995Z</time>
      </trkpt>
      <trkpt lat="47.623696" lon="7.652412">
        <ele>297.697294</ele>
        <time>2021-11-17T00:20:26.617Z</time>
      </trkpt>
      <trkpt lat="47.623596" lon="7.651870">
        <ele>300.051562</ele>
        <time>2021-11-17T00:20:45.463Z</time>
      </trkpt>
      <trkpt lat="47.623573" lon="7.651619">
        <ele>301.112810</ele>
        <time>2021-11-17T00:20:55.043Z</time>
      </trkpt>
      <trkpt lat="47.623570" lon="7.651585">
        <ele>301.256469</ele>
        <time>2021-11-17T00:20:56.803Z</time>
      </trkpt>
      <trkpt lat="47.623570" lon="7.651292">
        <ele>302.484004</ele>
        <time>2021-11-17T00:21:05.410Z</time>
      </trkpt>
      <trkpt lat="47.623591" lon="7.651055">
        <ele>303.606056</ele>
        <time>2021-11-17T00:21:15.386Z</time>
      </trkpt>
      <trkpt lat="47.623627" lon="7.650817">
        <ele>304.753008</ele>
        <time>2021-11-17T00:21:22.817Z</time>
      </trkpt>
      <trkpt lat="47.623733" lon="7.650546">
        <ele>306.226331</ele>
        <time>2021-11-17T00:21:35.338Z</time>
      </trkpt>
      <trkpt lat="47.623600" lon="7.650463">
        <ele>307.232948</ele>
        <time>2021-11-17T00:21:41.701Z</time>
      </trkpt>
      <trkpt lat="47.623265" lon="7.650061">
        <ele>310.238836</ele>
        <time>2021-11-17T00:22:03.985Z</time>
      </trkpt>
      <trkpt lat="47.622980" lon="7.649768">
        <ele>312.657838</ele>
        <time>2021-11-17T00:22:20.773Z</time>
      </trkpt>
      <trkpt lat="47.622865" lon="7.649722">
        <ele>313.488785</ele>
        <time>2021-11-17T00:22:29.133Z</time>
      </trkpt>
      <trkpt lat="47.622829" lon="7.649707">
        <ele>313.749657</ele>
        <time>2021-11-17T00:22:31.740Z</time>
      </trkpt>
      <trkpt lat="47.622829" lon="7.649707">
        <ele>313.749657</ele>
        <time>2021-11-17T00:22:31.954Z</time>
      </trkpt>
      <trkpt lat="47.622829" lon="7.649707">
        <ele>313.749657</ele>
        <time>2021-11-17T00:22:31.976Z</time>
      </trkpt>
      <trkpt lat="47.622586" lon="7.649659">
        <ele>315.246327</ele>
        <time>2021-11-17T00:23:03.746Z</time>
      </trkpt>
      <trkpt lat="47.621011" lon="7.649752">
        <ele>320.537630</ele>
        <time>2021-11-17T00:26:18.772Z</time>
      </trkpt>
      <trkpt lat="47.619979" lon="7.649421">
        <ele>322.978359</ele>
        <time>2021-11-17T00:28:24.720Z</time>
      </trkpt>
      <trkpt lat="47.618854" lon="7.649064">
        <ele>325.316955</ele>
        <time>2021-11-17T00:30:41.942Z</time>
      </trkpt>
      <trkpt lat="47.618445" lon="7.648934">
        <ele>326.031425</ele>
        <time>2021-11-17T00:31:31.722Z</time>
      </trkpt>
      <trkpt lat="47.617849" lon="7.648759">
        <ele>327.069204</ele>
        <time>2021-11-17T00:31:48.327Z</time>
      </trkpt>
      <trkpt lat="47.616653" lon="7.648490">
        <ele>328.617701</ele>
        <time>2021-11-17T00:32:19.422Z</time>
      </trkpt>
      <trkpt lat="47.615344" lon="7.648363">
        <ele>330.057929</ele>
        <time>2021-11-17T00:32:49.250Z</time>
      </trkpt>
      <trkpt lat="47.614862" lon="7.648276">
        <ele>331.009768</ele>
        <time>2021-11-17T00:33:00.526Z</time>
      </trkpt>
      <trkpt lat="47.614246" lon="7.648174">
        <ele>332.224820</ele>
        <time>2021-11-17T00:33:18.166Z</time>
      </trkpt>
      <trkpt lat="47.613687" lon="7.648225">
        <ele>333.478261</ele>
        <time>2021-11-17T00:33:36.651Z</time>
      </trkpt>
      <trkpt lat="47.613177" lon="7.648136">
        <ele>335.792885</ele>
        <time>2021-11-17T00:33:54.605Z</time>
      </trkpt>
      <trkpt lat="47.613095" lon="7.648112">
        <ele>336.169617</ele>
        <time>2021-11-17T00:33:58.840Z</time>
      </trkpt>
      <trkpt lat="47.612548" lon="7.647790">
        <ele>338.822209</ele>
        <time>2021-11-17T00:34:20.802Z</time>
      </trkpt>
      <trkpt lat="47.610478" lon="7.647823">
        <ele>349.579163</ele>
        <time>2021-11-17T00:35:48.428Z</time>
      </trkpt>
      <trkpt lat="47.610440" lon="7.647809">
        <ele>349.792429</ele>
        <time>2021-11-17T00:35:51.512Z</time>
      </trkpt>
      <trkpt lat="47.609446" lon="7.647368">
        <ele>353.949482</ele>
        <time>2021-11-17T00:36:31.608Z</time>
      </trkpt>
      <trkpt lat="47.609247" lon="7.647321">
        <ele>354.668910</ele>
        <time>2021-11-17T00:36:40.210Z</time>
      </trkpt>
      <trkpt lat="47.608285" lon="7.647123">
        <ele>357.602521</ele>
        <time>2021-11-17T00:37:07.205Z</time>
      </trkpt>
      <trkpt lat="47.608124" lon="7.647120">
        <ele>357.672469</ele>
        <time>2021-11-17T00:37:11.614Z</time>
      </trkpt>
      <trkpt lat="47.607751" lon="7.647191">
        <ele>357.835838</ele>
        <time>2021-11-17T00:37:20.406Z</time>
      </trkpt>
      <trkpt lat="47.607574" lon="7.647225">
        <ele>357.913373</ele>
        <time>2021-11-17T00:37:23.534Z</time>
      </trkpt>
      <trkpt lat="47.607235" lon="7.647213">
        <ele>358.060684</ele>
        <time>2021-11-17T00:37:29.948Z</time>
      </trkpt>
      <trkpt lat="47.605841" lon="7.646737">
        <ele>359.581036</ele>
        <time>2021-11-17T00:37:58.947Z</time>
      </trkpt>
      <trkpt lat="47.605115" lon="7.646390">
        <ele>360.712745</ele>
        <time>2021-11-17T00:38:22.118Z</time>
      </trkpt>
      <trkpt lat="47.604848" lon="7.646263">
        <ele>361.349801</ele>
        <time>2021-11-17T00:38:31.730Z</time>
      </trkpt>
      <trkpt lat="47.604602" lon="7.646139">
        <ele>362.302587</ele>
        <time>2021-11-17T00:38:41.035Z</time>
      </trkpt>
      <trkpt lat="47.604451" lon="7.646134">
        <ele>362.856459</ele>
        <time>2021-11-17T00:38:45.658Z</time>
      </trkpt>
      <trkpt lat="47.604155" lon="7.645933">
        <ele>364.050287</ele>
        <time>2021-11-17T00:38:54.903Z</time>
      </trkpt>
      <trkpt lat="47.603966" lon="7.645772">
        <ele>364.849559</ele>
        <time>2021-11-17T00:39:01.633Z</time>
      </trkpt>
      <trkpt lat="47.603844" lon="7.645602">
        <ele>365.463430</ele>
        <time>2021-11-17T00:39:06.129Z</time>
      </trkpt>
      <trkpt lat="47.603720" lon="7.645470">
        <ele>366.023157</ele>
        <time>2021-11-17T00:39:11.307Z</time>
      </trkpt>
      <trkpt lat="47.603683" lon="7.645438">
        <ele>366.180225</ele>
        <time>2021-11-17T00:39:12.579Z</time>
      </trkpt>
      <trkpt lat="47.603632" lon="7.645400">
        <ele>366.389523</ele>
        <time>2021-11-17T00:39:13.975Z</time>
      </trkpt>
      <trkpt lat="47.603524" lon="7.645343">
        <ele>366.809901</ele>
        <time>2021-11-17T00:39:17.652Z</time>
      </trkpt>
      <trkpt lat="47.603252" lon="7.645245">
        <ele>367.788097</ele>
        <time>2021-11-17T00:39:26.567Z</time>
      </trkpt>
      <trkpt lat="47.602928" lon="7.645105">
        <ele>368.797619</ele>
        <time>2021-11-17T00:39:37.400Z</time>
      </trkpt>
      <trkpt lat="47.602795" lon="7.645046">
        <ele>369.212896</ele>
        <time>2021-11-17T00:39:42.326Z</time>
      </trkpt>
      <trkpt lat="47.602604" lon="7.644961">
        <ele>369.809428</ele>
        <time>2021-11-17T00:39:48.150Z</time>
      </trkpt>
      <trkpt lat="47.602523" lon="7.644921">
        <ele>370.064813</ele>
        <time>2021-11-17T00:39:50.916Z</time>
      </trkpt>
      <trkpt lat="47.602361" lon="7.644841">
        <ele>370.575584</ele>
        <time>2021-11-17T00:39:56.232Z</time>
      </trkpt>
      <trkpt lat="47.602265" lon="7.644771">
        <ele>370.895594</ele>
        <time>2021-11-17T00:39:58.476Z</time>
      </trkpt>
      <trkpt lat="47.602157" lon="7.644668">
        <ele>371.279702</ele>
        <time>2021-11-17T00:40:02.066Z</time>
      </trkpt>
      <trkpt lat="47.601944" lon="7.644433">
        <ele>372.073853</ele>
        <time>2021-11-17T00:40:08.254Z</time>
      </trkpt>
      <trkpt lat="47.601879" lon="7.644363">
        <ele>372.314152</ele>
        <time>2021-11-17T00:40:09.932Z</time>
      </trkpt>
      <trkpt lat="47.601717" lon="7.644206">
        <ele>372.893060</ele>
        <time>2021-11-17T00:40:13.591Z</time>
      </trkpt>
      <trkpt lat="47.601589" lon="7.644110">
        <ele>372.716977</ele>
        <time>2021-11-17T00:40:16.341Z</time>
      </trkpt>
      <trkpt lat="47.601161" lon="7.643867">
        <ele>371.828707</ele>
        <time>2021-11-17T00:40:23.381Z</time>
      </trkpt>
      <trkpt lat="47.600969" lon="7.643771">
        <ele>371.435989</ele>
        <time>2021-11-17T00:40:26.290Z</time>
      </trkpt>
      <trkpt lat="47.600736" lon="7.643687">
        <ele>370.971232</ele>
        <time>2021-11-17T00:40:29.021Z</time>
      </trkpt>
      <trkpt lat="47.600602" lon="7.643671">
        <ele>370.710670</ele>
        <time>2021-11-17T00:40:30.600Z</time>
      </trkpt>
      <trkpt lat="47.600456" lon="7.643690">
        <ele>370.426603</ele>
        <time>2021-11-17T00:40:32.046Z</time>
      </trkpt>
      <trkpt lat="47.599447" lon="7.643794">
        <ele>366.152627</ele>
        <time>2021-11-17T00:40:41.480Z</time>
      </trkpt>
      <trkpt lat="47.598491" lon="7.643991">
        <ele>359.964658</ele>
        <time>2021-11-17T00:40:50.123Z</time>
      </trkpt>
      <trkpt lat="47.598286" lon="7.644014">
        <ele>358.646612</ele>
        <time>2021-11-17T00:40:51.954Z</time>
      </trkpt>
      <trkpt lat="47.598012" lon="7.644023">
        <ele>357.006122</ele>
        <time>2021-11-17T00:40:54.452Z</time>
      </trkpt>
      <trkpt lat="47.596943" lon="7.643837">
        <ele>350.873468</ele>
        <time>2021-11-17T00:41:04.355Z</time>
      </trkpt>
      <trkpt lat="47.596585" lon="7.643680">
        <ele>348.746354</ele>
        <time>2021-11-17T00:41:07.871Z</time>
      </trkpt>
      <trkpt lat="47.596404" lon="7.643518">
        <ele>347.558368</ele>
        <time>2021-11-17T00:41:09.994Z</time>
      </trkpt>
      <trkpt lat="47.596335" lon="7.643445">
        <ele>347.129779</ele>
        <time>2021-11-17T00:41:10.744Z</time>
      </trkpt>
      <trkpt lat="47.596252" lon="7.643332">
        <ele>346.560041</ele>
        <time>2021-11-17T00:41:11.918Z</time>
      </trkpt>
      <trkpt lat="47.596132" lon="7.643092">
        <ele>345.541271</ele>
        <time>2021-11-17T00:41:13.783Z</time>
      </trkpt>
      <trkpt lat="47.596103" lon="7.643007">
        <ele>345.216451</ele>
        <time>2021-11-17T00:41:14.421Z</time>
      </trkpt>
      <trkpt lat="47.596081" lon="7.642909">
        <ele>344.864257</ele>
        <time>2021-11-17T00:41:15.139Z</time>
      </trkpt>
      <trkpt lat="47.596022" lon="7.642553">
        <ele>343.614230</ele>
        <time>2021-11-17T00:41:17.421Z</time>
      </trkpt>
      <trkpt lat="47.595898" lon="7.642187">
        <ele>342.217573</ele>
        <time>2021-11-17T00:41:20.137Z</time>
      </trkpt>
      <trkpt lat="47.595879" lon="7.642175">
        <ele>342.113149</ele>
        <time>2021-11-17T00:41:20.341Z</time>
      </trkpt>
      <trkpt lat="47.595834" lon="7.642146">
        <ele>341.865050</ele>
        <time>2021-11-17T00:41:20.751Z</time>
      </trkpt>
      <trkpt lat="47.595714" lon="7.642163">
        <ele>341.255511</ele>
        <time>2021-11-17T00:41:21.967Z</time>
      </trkpt>
      <trkpt lat="47.595598" lon="7.642302">
        <ele>340.501395</ele>
        <time>2021-11-17T00:41:23.386Z</time>
      </trkpt>
      <trkpt lat="47.595558" lon="7.642639">
        <ele>339.334602</ele>
        <time>2021-11-17T00:41:25.507Z</time>
      </trkpt>
      <trkpt lat="47.595791" lon="7.643400">
        <ele>335.989150</ele>
        <time>2021-11-17T00:41:30.777Z</time>
      </trkpt>
      <trkpt lat="47.596075" lon="7.644114">
        <ele>332.498507</ele>
        <time>2021-11-17T00:41:35.874Z</time>
      </trkpt>
      <trkpt lat="47.596072" lon="7.644283">
        <ele>331.786617</ele>
        <time>2021-11-17T00:41:36.899Z</time>
      </trkpt>
      <trkpt lat="47.595958" lon="7.644401">
        <ele>330.918492</ele>
        <time>2021-11-17T00:41:38.149Z</time>
      </trkpt>
      <trkpt lat="47.595866" lon="7.644353">
        <ele>330.309490</ele>
        <time>2021-11-17T00:41:39.046Z</time>
      </trkpt>
      <trkpt lat="47.595406" lon="7.643488">
        <ele>325.493045</ele>
        <time>2021-11-17T00:41:45.753Z</time>
      </trkpt>
      <trkpt lat="47.595269" lon="7.643258">
        <ele>324.065142</ele>
        <time>2021-11-17T00:41:47.608Z</time>
      </trkpt>
      <trkpt lat="47.595175" lon="7.643108">
        <ele>323.112346</ele>
        <time>2021-11-17T00:41:48.871Z</time>
      </trkpt>
      <trkpt lat="47.594961" lon="7.642788">
        <ele>321.015354</ele>
        <time>2021-11-17T00:41:51.601Z</time>
      </trkpt>
      <trkpt lat="47.593962" lon="7.641202">
        <ele>311.351181</ele>
        <time>2021-11-17T00:42:04.749Z</time>
      </trkpt>
      <trkpt lat="47.593994" lon="7.639593">
        <ele>304.666810</ele>
        <time>2021-11-17T00:42:14.770Z</time>
      </trkpt>
      <trkpt lat="47.594078" lon="7.638956">
        <ele>301.976048</ele>
        <time>2021-11-17T00:42:18.826Z</time>
      </trkpt>
      <trkpt lat="47.594072" lon="7.638598">
        <ele>300.492496</ele>
        <time>2021-11-17T00:42:21.064Z</time>
      </trkpt>
      <trkpt lat="47.594069" lon="7.638280">
        <ele>299.174981</ele>
        <time>2021-11-17T00:42:23.039Z</time>
      </trkpt>
      <trkpt lat="47.594069" lon="7.638222">
        <ele>298.934703</ele>
        <time>2021-11-17T00:42:23.398Z</time>
      </trkpt>
      <trkpt lat="47.594090" lon="7.637892">
        <ele>297.561532</ele>
        <time>2021-11-17T00:42:25.419Z</time>
      </trkpt>
      <trkpt lat="47.594146" lon="7.637486">
        <ele>295.844768</ele>
        <time>2021-11-17T00:42:27.943Z</time>
      </trkpt>
      <trkpt lat="47.594366" lon="7.636430">
        <ele>291.555140</ele>
        <time>2021-11-17T00:42:34.720Z</time>
      </trkpt>
      <trkpt lat="47.594396" lon="7.636276">
        <ele>291.013975</ele>
        <time>2021-11-17T00:42:35.714Z</time>
      </trkpt>
      <trkpt lat="47.594556" lon="7.635456">
        <ele>288.132087</ele>
        <time>2021-11-17T00:42:41.017Z</time>
      </trkpt>
      <trkpt lat="47.594639" lon="7.635034">
        <ele>286.648052</ele>
        <time>2021-11-17T00:42:43.814Z</time>
      </trkpt>
      <trkpt lat="47.594684" lon="7.634716">
        <ele>285.551099</ele>
        <time>2021-11-17T00:42:45.941Z</time>
      </trkpt>
      <trkpt lat="47.594693" lon="7.634515">
        <ele>284.871027</ele>
        <time>2021-11-17T00:42:47.262Z</time>
      </trkpt>
      <trkpt lat="47.594666" lon="7.634357">
        <ele>284.320759</ele>
        <time>2021-11-17T00:42:48.368Z</time>
      </trkpt>
      <trkpt lat="47.594595" lon="7.633938">
        <ele>283.585042</ele>
        <time>2021-11-17T00:42:51.323Z</time>
      </trkpt>
      <trkpt lat="47.594499" lon="7.633707">
        <ele>283.357617</ele>
        <time>2021-11-17T00:42:53.282Z</time>
      </trkpt>
      <trkpt lat="47.594221" lon="7.633341">
        <ele>282.895574</ele>
        <time>2021-11-17T00:42:57.571Z</time>
      </trkpt>
      <trkpt lat="47.593668" lon="7.632732">
        <ele>282.039461</ele>
        <time>2021-11-17T00:43:06.470Z</time>
      </trkpt>
      <trkpt lat="47.593569" lon="7.632922">
        <ele>281.838213</ele>
        <time>2021-11-17T00:43:09.049Z</time>
      </trkpt>
      <trkpt lat="47.593357" lon="7.633366">
        <ele>281.597424</ele>
        <time>2021-11-17T00:43:14.513Z</time>
      </trkpt>
      <trkpt lat="47.593264" lon="7.633642">
        <ele>281.608881</ele>
        <time>2021-11-17T00:43:17.910Z</time>
      </trkpt>
      <trkpt lat="47.593191" lon="7.633915">
        <ele>281.619786</ele>
        <time>2021-11-17T00:43:20.955Z</time>
      </trkpt>
      <trkpt lat="47.593146" lon="7.634554">
        <ele>281.643643</ele>
        <time>2021-11-17T00:43:27.605Z</time>
      </trkpt>
      <trkpt lat="47.593040" lon="7.635203">
        <ele>281.668439</ele>
        <time>2021-11-17T00:43:34.396Z</time>
      </trkpt>
      <trkpt lat="47.593020" lon="7.635250">
        <ele>281.670502</ele>
        <time>2021-11-17T00:43:35.063Z</time>
      </trkpt>
      <trkpt lat="47.592984" lon="7.635276">
        <ele>281.672707</ele>
        <time>2021-11-17T00:43:35.595Z</time>
      </trkpt>
      <trkpt lat="47.592438" lon="7.635358">
        <ele>281.458744</ele>
        <time>2021-11-17T00:43:43.766Z</time>
      </trkpt>
      <trkpt lat="47.592405" lon="7.635387">
        <ele>281.427781</ele>
        <time>2021-11-17T00:43:44.222Z</time>
      </trkpt>
      <trkpt lat="47.592363" lon="7.635505">
        <ele>281.355152</ele>
        <time>2021-11-17T00:43:45.717Z</time>
      </trkpt>
      <trkpt lat="47.592151" lon="7.636264">
        <ele>280.907965</ele>
        <time>2021-11-17T00:43:53.438Z</time>
      </trkpt>
      <trkpt lat="47.592004" lon="7.636793">
        <ele>280.596521</ele>
        <time>2021-11-17T00:43:58.038Z</time>
      </trkpt>
      <trkpt lat="47.591939" lon="7.636981">
        <ele>280.481520</ele>
        <time>2021-11-17T00:43:59.677Z</time>
      </trkpt>
      <trkpt lat="47.591826" lon="7.637265">
        <ele>280.302026</ele>
        <time>2021-11-17T00:44:02.319Z</time>
      </trkpt>
      <trkpt lat="47.591793" lon="7.637341">
        <ele>280.252823</ele>
        <time>2021-11-17T00:44:02.916Z</time>
      </trkpt>
      <trkpt lat="47.591568" lon="7.637986">
        <ele>279.127320</ele>
        <time>2021-11-17T00:44:08.281Z</time>
      </trkpt>
      <trkpt lat="47.591560" lon="7.638083">
        <ele>278.971373</ele>
        <time>2021-11-17T00:44:08.996Z</time>
      </trkpt>
      <trkpt lat="47.591561" lon="7.638177">
        <ele>278.821348</ele>
        <time>2021-11-17T00:44:09.707Z</time>
      </trkpt>
      <trkpt lat="47.591582" lon="7.638302">
        <ele>278.615776</ele>
        <time>2021-11-17T00:44:10.542Z</time>
      </trkpt>
      <trkpt lat="47.591888" lon="7.639181">
        <ele>277.037205</ele>
        <time>2021-11-17T00:44:17.723Z</time>
      </trkpt>
      <trkpt lat="47.592081" lon="7.639698">
        <ele>276.094214</ele>
        <time>2021-11-17T00:44:21.826Z</time>
      </trkpt>
      <trkpt lat="47.592111" lon="7.639788">
        <ele>275.935392</ele>
        <time>2021-11-17T00:44:22.550Z</time>
      </trkpt>
      <trkpt lat="47.592123" lon="7.639880">
        <ele>275.790404</ele>
        <time>2021-11-17T00:44:23.202Z</time>
      </trkpt>
      <trkpt lat="47.592162" lon="7.640337">
        <ele>275.077658</ele>
        <time>2021-11-17T00:44:26.391Z</time>
      </trkpt>
      <trkpt lat="47.592180" lon="7.640409">
        <ele>274.958846</ele>
        <time>2021-11-17T00:44:26.920Z</time>
      </trkpt>
      <trkpt lat="47.592197" lon="7.640454">
        <ele>274.879038</ele>
        <time>2021-11-17T00:44:27.311Z</time>
      </trkpt>
      <trkpt lat="47.592211" lon="7.640492">
        <ele>274.812040</ele>
        <time>2021-11-17T00:44:27.642Z</time>
      </trkpt>
      <trkpt lat="47.592231" lon="7.640536">
        <ele>274.729940</ele>
        <time>2021-11-17T00:44:28.049Z</time>
      </trkpt>
      <trkpt lat="47.592272" lon="7.640612">
        <ele>274.579353</ele>
        <time>2021-11-17T00:44:28.840Z</time>
      </trkpt>
      <trkpt lat="47.592322" lon="7.640775">
        <ele>274.302283</ele>
        <time>2021-11-17T00:44:30.065Z</time>
      </trkpt>
      <trkpt lat="47.592339" lon="7.640861">
        <ele>274.163619</ele>
        <time>2021-11-17T00:44:30.706Z</time>
      </trkpt>
      <trkpt lat="47.592341" lon="7.640976">
        <ele>273.985624</ele>
        <time>2021-11-17T00:44:31.522Z</time>
      </trkpt>
      <trkpt lat="47.592332" lon="7.641122">
        <ele>273.758780</ele>
        <time>2021-11-17T00:44:32.667Z</time>
      </trkpt>
      <trkpt lat="47.592311" lon="7.641437">
        <ele>273.269012</ele>
        <time>2021-11-17T00:44:34.832Z</time>
      </trkpt>
      <trkpt lat="47.592291" lon="7.641581">
        <ele>273.041529</ele>
        <time>2021-11-17T00:44:35.876Z</time>
      </trkpt>
      <trkpt lat="47.592277" lon="7.641676">
        <ele>272.891069</ele>
        <time>2021-11-17T00:44:36.702Z</time>
      </trkpt>
      <trkpt lat="47.592236" lon="7.641777">
        <ele>272.708668</ele>
        <time>2021-11-17T00:44:37.530Z</time>
      </trkpt>
      <trkpt lat="47.592141" lon="7.642236">
        <ele>271.965774</ele>
        <time>2021-11-17T00:44:41.245Z</time>
      </trkpt>
      <trkpt lat="47.592138" lon="7.642302">
        <ele>271.863421</ele>
        <time>2021-11-17T00:44:41.700Z</time>
      </trkpt>
      <trkpt lat="47.592144" lon="7.642395">
        <ele>271.785165</ele>
        <time>2021-11-17T00:44:42.463Z</time>
      </trkpt>
      <trkpt lat="47.592147" lon="7.642526">
        <ele>271.682642</ele>
        <time>2021-11-17T00:44:43.430Z</time>
      </trkpt>
      <trkpt lat="47.592139" lon="7.642591">
        <ele>271.630961</ele>
        <time>2021-11-17T00:44:43.949Z</time>
      </trkpt>
      <trkpt lat="47.592109" lon="7.642817">
        <ele>271.450800</ele>
        <time>2021-11-17T00:44:45.834Z</time>
      </trkpt>
      <trkpt lat="47.592099" lon="7.642873">
        <ele>271.405489</ele>
        <time>2021-11-17T00:44:46.310Z</time>
      </trkpt>
      <trkpt lat="47.592096" lon="7.642889">
        <ele>271.392500</ele>
        <time>2021-11-17T00:44:46.466Z</time>
      </trkpt>
      <trkpt lat="47.592075" lon="7.643001">
        <ele>271.301574</ele>
        <time>2021-11-17T00:44:47.403Z</time>
      </trkpt>
      <trkpt lat="47.592059" lon="7.643113">
        <ele>271.212028</ele>
        <time>2021-11-17T00:44:48.241Z</time>
      </trkpt>
      <trkpt lat="47.592040" lon="7.643345">
        <ele>271.029231</ele>
        <time>2021-11-17T00:44:50.140Z</time>
      </trkpt>
      <trkpt lat="47.592040" lon="7.643441">
        <ele>270.954143</ele>
        <time>2021-11-17T00:44:50.892Z</time>
      </trkpt>
      <trkpt lat="47.592051" lon="7.643610">
        <ele>270.821343</ele>
        <time>2021-11-17T00:44:52.167Z</time>
      </trkpt>
      <trkpt lat="47.592160" lon="7.644024">
        <ele>270.473724</ele>
        <time>2021-11-17T00:44:55.727Z</time>
      </trkpt>
      <trkpt lat="47.592590" lon="7.645087">
        <ele>269.709619</ele>
        <time>2021-11-17T00:45:06.374Z</time>
      </trkpt>
      <trkpt lat="47.592604" lon="7.645155">
        <ele>269.697496</ele>
        <time>2021-11-17T00:45:07.404Z</time>
      </trkpt>
      <trkpt lat="47.592612" lon="7.645242">
        <ele>269.682524</ele>
        <time>2021-11-17T00:45:08.223Z</time>
      </trkpt>
      <trkpt lat="47.592615" lon="7.645321">
        <ele>269.669032</ele>
        <time>2021-11-17T00:45:08.951Z</time>
      </trkpt>
      <trkpt lat="47.592608" lon="7.645397">
        <ele>269.655952</ele>
        <time>2021-11-17T00:45:09.582Z</time>
      </trkpt>
      <trkpt lat="47.592592" lon="7.645495">
        <ele>269.638759</ele>
        <time>2021-11-17T00:45:10.461Z</time>
      </trkpt>
      <trkpt lat="47.592575" lon="7.645573">
        <ele>269.624781</ele>
        <time>2021-11-17T00:45:11.250Z</time>
      </trkpt>
      <trkpt lat="47.592558" lon="7.645627">
        <ele>269.614619</ele>
        <time>2021-11-17T00:45:11.983Z</time>
      </trkpt>
      <trkpt lat="47.592527" lon="7.645695">
        <ele>269.600624</ele>
        <time>2021-11-17T00:45:12.981Z</time>
      </trkpt>
      <trkpt lat="47.592527" lon="7.645695">
        <ele>269.600624</ele>
        <time>2021-11-17T00:45:12.983Z</time>
      </trkpt>
      <trkpt lat="47.592507" lon="7.645734">
        <ele>269.592269</ele>
        <time>2021-11-17T00:45:13.442Z</time>
      </trkpt>
      <trkpt lat="47.592240" lon="7.646267">
        <ele>269.479054</ele>
        <time>2021-11-17T00:45:20.411Z</time>
      </trkpt>
      <trkpt lat="47.592219" lon="7.646306">
        <ele>269.470544</ele>
        <time>2021-11-17T00:45:20.869Z</time>
      </trkpt>
      <trkpt lat="47.592188" lon="7.646275">
        <ele>269.461090</ele>
        <time>2021-11-17T00:45:21.390Z</time>
      </trkpt>
      <trkpt lat="47.592086" lon="7.646139">
        <ele>269.426407</ele>
        <time>2021-11-17T00:45:23.523Z</time>
      </trkpt>
      <trkpt lat="47.592050" lon="7.646095">
        <ele>269.414611</ele>
        <time>2021-11-17T00:45:24.134Z</time>
      </trkpt>
      <trkpt lat="47.591154" lon="7.645003">
        <ele>268.996881</ele>
        <time>2021-11-17T00:45:39.442Z</time>
      </trkpt>
      <trkpt lat="47.591141" lon="7.644987">
        <ele>268.989822</ele>
        <time>2021-11-17T00:45:39.667Z</time>
      </trkpt>
      <trkpt lat="47.590669" lon="7.644422">
        <ele>268.736358</ele>
        <time>2021-11-17T00:45:47.615Z</time>
      </trkpt>
      <trkpt lat="47.589605" lon="7.643151">
        <ele>268.583093</ele>
        <time>2021-11-17T00:46:06.967Z</time>
      </trkpt>
      <trkpt lat="47.589439" lon="7.642956">
        <ele>268.588134</ele>
        <time>2021-11-17T00:46:10.379Z</time>
      </trkpt>
      <trkpt lat="47.589372" lon="7.642899">
        <ele>268.589973</ele>
        <time>2021-11-17T00:46:11.667Z</time>
      </trkpt>
      <trkpt lat="47.589069" lon="7.642493">
        <ele>268.599693</ele>
        <time>2021-11-17T00:46:18.240Z</time>
      </trkpt>
      <trkpt lat="47.588260" lon="7.641096">
        <ele>268.432298</ele>
        <time>2021-11-17T00:46:37.475Z</time>
      </trkpt>
      <trkpt lat="47.586685" lon="7.638092">
        <ele>267.017960</ele>
        <time>2021-11-17T00:47:10.638Z</time>
      </trkpt>
      <trkpt lat="47.586552" lon="7.637873">
        <ele>266.839345</ele>
        <time>2021-11-17T00:47:13.033Z</time>
      </trkpt>
      <trkpt lat="47.586539" lon="7.637889">
        <ele>266.824162</ele>
        <time>2021-11-17T00:47:14.929Z</time>
      </trkpt>
      <trkpt lat="47.586472" lon="7.637973">
        <ele>266.745314</ele>
        <time>2021-11-17T00:47:24.174Z</time>
      </trkpt>
      <trkpt lat="47.586127" lon="7.638478">
        <ele>266.309651</ele>
        <time>2021-11-17T00:48:16.460Z</time>
      </trkpt>
      <trkpt lat="47.586090" lon="7.638505">
        <ele>266.272592</ele>
        <time>2021-11-17T00:48:20.636Z</time>
      </trkpt>
      <trkpt lat="47.586094" lon="7.638577">
        <ele>266.228805</ele>
        <time>2021-11-17T00:48:25.915Z</time>
      </trkpt>
      <trkpt lat="47.586088" lon="7.638684">
        <ele>266.163728</ele>
        <time>2021-11-17T00:48:33.779Z</time>
      </trkpt>
      <trkpt lat="47.585643" lon="7.640577">
        <ele>265.708913</ele>
        <time>2021-11-17T00:50:59.612Z</time>
      </trkpt>
      <trkpt lat="47.585624" lon="7.640660">
        <ele>265.736137</ele>
        <time>2021-11-17T00:51:06.310Z</time>
      </trkpt>
      <trkpt lat="47.585609" lon="7.640735">
        <ele>265.760435</ele>
        <time>2021-11-17T00:51:12.257Z</time>
      </trkpt>
      <trkpt lat="47.585567" lon="7.641004">
        <ele>265.846197</ele>
        <time>2021-11-17T00:51:33.264Z</time>
      </trkpt>
      <trkpt lat="47.585359" lon="7.642334">
        <ele>266.270260</ele>
        <time>2021-11-17T00:53:19.721Z</time>
      </trkpt>
      <trkpt lat="47.585354" lon="7.642462">
        <ele>266.430455</ele>
        <time>2021-11-17T00:53:29.875Z</time>
      </trkpt>
      <trkpt lat="47.585336" lon="7.642883">
        <ele>267.078985</ele>
        <time>2021-11-17T00:54:03.488Z</time>
      </trkpt>
      <trkpt lat="47.585326" lon="7.643892">
        <ele>268.630356</ele>
        <time>2021-11-17T00:55:24.813Z</time>
      </trkpt>
      <trkpt lat="47.585328" lon="7.643994">
        <ele>268.787234</ele>
        <time>2021-11-17T00:55:26.834Z</time>
      </trkpt>
      <trkpt lat="47.585335" lon="7.644075">
        <ele>268.912779</ele>
        <time>2021-11-17T00:55:28.470Z</time>
      </trkpt>
      <trkpt lat="47.585331" lon="7.644822">
        <ele>270.061229</ele>
        <time>2021-11-17T00:55:44.225Z</time>
      </trkpt>
      <trkpt lat="47.585208" lon="7.646213">
        <ele>273.244807</ele>
        <time>2021-11-17T00:56:16.188Z</time>
      </trkpt>
      <trkpt lat="47.585228" lon="7.646594">
        <ele>274.160394</ele>
        <time>2021-11-17T00:56:25.496Z</time>
      </trkpt>
      <trkpt lat="47.585361" lon="7.647766">
        <ele>276.965991</ele>
        <time>2021-11-17T00:56:53.943Z</time>
      </trkpt>
      <trkpt lat="47.585377" lon="7.647940">
        <ele>277.313281</ele>
        <time>2021-11-17T00:56:58.065Z</time>
      </trkpt>
      <trkpt lat="47.585369" lon="7.648060">
        <ele>277.551753</ele>
        <time>2021-11-17T00:57:01.192Z</time>
      </trkpt>
      <trkpt lat="47.585252" lon="7.648497">
        <ele>278.481574</ele>
        <time>2021-11-17T00:57:11.758Z</time>
      </trkpt>
      <trkpt lat="47.585161" lon="7.648839">
        <ele>279.208651</ele>
        <time>2021-11-17T00:57:19.855Z</time>
      </trkpt>
      <trkpt lat="47.585063" lon="7.649185">
        <ele>279.950796</ele>
        <time>2021-11-17T00:57:26.623Z</time>
      </trkpt>
      <trkpt lat="47.585015" lon="7.649351">
        <ele>280.307980</ele>
        <time>2021-11-17T00:57:29.764Z</time>
      </trkpt>
      <trkpt lat="47.584886" lon="7.649803">
        <ele>281.278603</ele>
        <time>2021-11-17T00:57:37.974Z</time>
      </trkpt>
      <trkpt lat="47.584856" lon="7.649890">
        <ele>281.471839</ele>
        <time>2021-11-17T00:57:39.502Z</time>
      </trkpt>
      <trkpt lat="47.584850" lon="7.649909">
        <ele>281.513329</ele>
        <time>2021-11-17T00:57:39.855Z</time>
      </trkpt>
      <trkpt lat="47.584842" lon="7.649930">
        <ele>281.561026</ele>
        <time>2021-11-17T00:57:40.297Z</time>
      </trkpt>
      <trkpt lat="47.584812" lon="7.650016">
        <ele>281.752503</ele>
        <time>2021-11-17T00:57:42.115Z</time>
      </trkpt>
      <trkpt lat="47.584784" lon="7.650175">
        <ele>282.058031</ele>
        <time>2021-11-17T00:57:44.498Z</time>
      </trkpt>
      <trkpt lat="47.584811" lon="7.650714">
        <ele>282.542440</ele>
        <time>2021-11-17T00:57:52.649Z</time>
      </trkpt>
      <trkpt lat="47.584829" lon="7.651141">
        <ele>282.925885</ele>
        <time>2021-11-17T00:57:58.703Z</time>
      </trkpt>
      <trkpt lat="47.584828" lon="7.651274">
        <ele>283.045094</ele>
        <time>2021-11-17T00:58:02.392Z</time>
      </trkpt>
      <trkpt lat="47.584812" lon="7.651403">
        <ele>283.162649</ele>
        <time>2021-11-17T00:58:06.194Z</time>
      </trkpt>
      <trkpt lat="47.584795" lon="7.651535">
        <ele>283.283091</ele>
        <time>2021-11-17T00:58:10.008Z</time>
      </trkpt>
      <trkpt lat="47.584772" lon="7.651673">
        <ele>283.410494</ele>
        <time>2021-11-17T00:58:11.798Z</time>
      </trkpt>
      <trkpt lat="47.584640" lon="7.652138">
        <ele>283.862656</ele>
        <time>2021-11-17T00:58:18.149Z</time>
      </trkpt>
      <trkpt lat="47.584548" lon="7.652398">
        <ele>284.125801</ele>
        <time>2021-11-17T00:58:21.547Z</time>
      </trkpt>
      <trkpt lat="47.584453" lon="7.652670">
        <ele>284.400326</ele>
        <time>2021-11-17T00:58:25.404Z</time>
      </trkpt>
      <trkpt lat="47.584433" lon="7.652727">
        <ele>284.441520</ele>
        <time>2021-11-17T00:58:26.159Z</time>
      </trkpt>
      <trkpt lat="47.584419" lon="7.652765">
        <ele>284.455892</ele>
        <time>2021-11-17T00:58:26.637Z</time>
      </trkpt>
      <trkpt lat="47.584405" lon="7.652808">
        <ele>284.471740</ele>
        <time>2021-11-17T00:58:27.239Z</time>
      </trkpt>
      <trkpt lat="47.584372" lon="7.652901">
        <ele>284.506620</ele>
        <time>2021-11-17T00:58:28.565Z</time>
      </trkpt>
      <trkpt lat="47.584311" lon="7.653057">
        <ele>284.566471</ele>
        <time>2021-11-17T00:58:30.817Z</time>
      </trkpt>
      <trkpt lat="47.584265" lon="7.653075">
        <ele>284.589883</ele>
        <time>2021-11-17T00:58:31.680Z</time>
      </trkpt>
      <trkpt lat="47.583914" lon="7.653210">
        <ele>284.768326</ele>
        <time>2021-11-17T00:58:38.076Z</time>
      </trkpt>
      <trkpt lat="47.583768" lon="7.653263">
        <ele>284.842294</ele>
        <time>2021-11-17T00:58:40.757Z</time>
      </trkpt>
      <trkpt lat="47.583620" lon="7.653317">
        <ele>284.917297</ele>
        <time>2021-11-17T00:58:43.568Z</time>
      </trkpt>
      <trkpt lat="47.583580" lon="7.653203">
        <ele>284.959950</ele>
        <time>2021-11-17T00:58:45.097Z</time>
      </trkpt>
      <trkpt lat="47.583529" lon="7.653074">
        <ele>285.009582</ele>
        <time>2021-11-17T00:58:46.817Z</time>
      </trkpt>
      <trkpt lat="47.583294" lon="7.652488">
        <ele>285.235871</ele>
        <time>2021-11-17T00:58:54.109Z</time>
      </trkpt>
      <trkpt lat="47.583125" lon="7.652270">
        <ele>285.312394</ele>
        <time>2021-11-17T00:58:57.213Z</time>
      </trkpt>
      <trkpt lat="47.582925" lon="7.652099">
        <ele>285.294495</ele>
        <time>2021-11-17T00:59:00.460Z</time>
      </trkpt>
      <trkpt lat="47.582649" lon="7.651865">
        <ele>285.269845</ele>
        <time>2021-11-17T00:59:04.853Z</time>
      </trkpt>
      <trkpt lat="47.582569" lon="7.651788">
        <ele>285.262450</ele>
        <time>2021-11-17T00:59:06.181Z</time>
      </trkpt>
      <trkpt lat="47.582386" lon="7.651596">
        <ele>285.245068</ele>
        <time>2021-11-17T00:59:09.266Z</time>
      </trkpt>
      <trkpt lat="47.582139" lon="7.651252">
        <ele>285.218794</ele>
        <time>2021-11-17T00:59:14.064Z</time>
      </trkpt>
      <trkpt lat="47.581664" lon="7.650574">
        <ele>285.186503</ele>
        <time>2021-11-17T00:59:24.181Z</time>
      </trkpt>
      <trkpt lat="47.581330" lon="7.650129">
        <ele>285.218162</ele>
        <time>2021-11-17T00:59:30.983Z</time>
      </trkpt>
      <trkpt lat="47.580923" lon="7.649586">
        <ele>285.256763</ele>
        <time>2021-11-17T00:59:39.465Z</time>
      </trkpt>
      <trkpt lat="47.580690" lon="7.649275">
        <ele>285.278866</ele>
        <time>2021-11-17T00:59:44.099Z</time>
      </trkpt>
      <trkpt lat="47.580600" lon="7.649166">
        <ele>285.287059</ele>
        <time>2021-11-17T00:59:46.172Z</time>
      </trkpt>
      <trkpt lat="47.580497" lon="7.649043">
        <ele>285.296383</ele>
        <time>2021-11-17T00:59:47.968Z</time>
      </trkpt>
      <trkpt lat="47.580390" lon="7.648947">
        <ele>285.301392</ele>
        <time>2021-11-17T00:59:49.763Z</time>
      </trkpt>
      <trkpt lat="47.580196" lon="7.648842">
        <ele>285.251772</ele>
        <time>2021-11-17T00:59:52.878Z</time>
      </trkpt>
      <trkpt lat="47.579842" lon="7.648645">
        <ele>285.160926</ele>
        <time>2021-11-17T00:59:58.335Z</time>
      </trkpt>
      <trkpt lat="47.579401" lon="7.648402">
        <ele>285.047889</ele>
        <time>2021-11-17T01:00:05.296Z</time>
      </trkpt>
      <trkpt lat="47.578549" lon="7.647926">
        <ele>284.693698</ele>
        <time>2021-11-17T01:00:17.441Z</time>
      </trkpt>
      <trkpt lat="47.578355" lon="7.647814">
        <ele>284.486360</ele>
        <time>2021-11-17T01:00:19.920Z</time>
      </trkpt>
      <trkpt lat="47.578240" lon="7.647750">
        <ele>284.364027</ele>
        <time>2021-11-17T01:00:21.660Z</time>
      </trkpt>
      <trkpt lat="47.578212" lon="7.647592">
        <ele>284.254279</ele>
        <time>2021-11-17T01:00:23.414Z</time>
      </trkpt>
      <trkpt lat="47.578172" lon="7.647371">
        <ele>284.100557</ele>
        <time>2021-11-17T01:00:25.971Z</time>
      </trkpt>
      <trkpt lat="47.578114" lon="7.647072">
        <ele>283.891545</ele>
        <time>2021-11-17T01:00:29.606Z</time>
      </trkpt>
      <trkpt lat="47.577955" lon="7.646248">
        <ele>283.315768</ele>
        <time>2021-11-17T01:00:39.634Z</time>
      </trkpt>
      <trkpt lat="47.577871" lon="7.645828">
        <ele>283.021584</ele>
        <time>2021-11-17T01:00:44.601Z</time>
      </trkpt>
      <trkpt lat="47.577819" lon="7.645639">
        <ele>282.884731</ele>
        <time>2021-11-17T01:00:47.208Z</time>
      </trkpt>
      <trkpt lat="47.577778" lon="7.645521">
        <ele>282.795738</ele>
        <time>2021-11-17T01:00:48.557Z</time>
      </trkpt>
      <trkpt lat="47.577733" lon="7.645418">
        <ele>282.713461</ele>
        <time>2021-11-17T01:00:49.944Z</time>
      </trkpt>
      <trkpt lat="47.577473" lon="7.645049">
        <ele>282.355709</ele>
        <time>2021-11-17T01:00:56.076Z</time>
      </trkpt>
      <trkpt lat="47.577394" lon="7.644937">
        <ele>282.247063</ele>
        <time>2021-11-17T01:00:58.265Z</time>
      </trkpt>
      <trkpt lat="47.577068" lon="7.644471">
        <ele>281.796948</ele>
        <time>2021-11-17T01:01:06.329Z</time>
      </trkpt>
      <trkpt lat="47.577053" lon="7.644408">
        <ele>281.752154</ele>
        <time>2021-11-17T01:01:07.011Z</time>
      </trkpt>
      <trkpt lat="47.577020" lon="7.644357">
        <ele>281.704772</ele>
        <time>2021-11-17T01:01:07.640Z</time>
      </trkpt>
      <trkpt lat="47.576984" lon="7.644345">
        <ele>281.668099</ele>
        <time>2021-11-17T01:01:08.092Z</time>
      </trkpt>
      <trkpt lat="47.576840" lon="7.644326">
        <ele>281.524412</ele>
        <time>2021-11-17T01:01:09.971Z</time>
      </trkpt>
      <trkpt lat="47.576834" lon="7.644207">
        <ele>281.444402</ele>
        <time>2021-11-17T01:01:11.001Z</time>
      </trkpt>
      <trkpt lat="47.576806" lon="7.644093">
        <ele>281.363058</ele>
        <time>2021-11-17T01:01:11.916Z</time>
      </trkpt>
      <trkpt lat="47.576675" lon="7.643893">
        <ele>281.088020</ele>
        <time>2021-11-17T01:01:14.321Z</time>
      </trkpt>
      <trkpt lat="47.575918" lon="7.642896">
        <ele>279.324250</ele>
        <time>2021-11-17T01:01:26.714Z</time>
      </trkpt>
      <trkpt lat="47.575929" lon="7.642857">
        <ele>279.274580</ele>
        <time>2021-11-17T01:01:26.992Z</time>
      </trkpt>
      <trkpt lat="47.575598" lon="7.642288">
        <ele>278.391747</ele>
        <time>2021-11-17T01:01:32.362Z</time>
      </trkpt>
      <trkpt lat="47.574995" lon="7.641437">
        <ele>275.908092</ele>
        <time>2021-11-17T01:01:40.648Z</time>
      </trkpt>
      <trkpt lat="47.574802" lon="7.641166">
        <ele>275.052443</ele>
        <time>2021-11-17T01:01:43.240Z</time>
      </trkpt>
      <trkpt lat="47.574636" lon="7.640933">
        <ele>274.316626</ele>
        <time>2021-11-17T01:01:45.536Z</time>
      </trkpt>
      <trkpt lat="47.574537" lon="7.640780">
        <ele>273.856298</ele>
        <time>2021-11-17T01:01:46.951Z</time>
      </trkpt>
      <trkpt lat="47.574263" lon="7.640424">
        <ele>272.683571</ele>
        <time>2021-11-17T01:01:50.641Z</time>
      </trkpt>
      <trkpt lat="47.572931" lon="7.638578">
        <ele>269.103658</ele>
        <time>2021-11-17T01:02:10.797Z</time>
      </trkpt>
      <trkpt lat="47.572773" lon="7.638380">
        <ele>268.832014</ele>
        <time>2021-11-17T01:02:13.456Z</time>
      </trkpt>
      <trkpt lat="47.572427" lon="7.637970">
        <ele>268.387883</ele>
        <time>2021-11-17T01:02:19.007Z</time>
      </trkpt>
      <trkpt lat="47.572206" lon="7.637673">
        <ele>268.088793</ele>
        <time>2021-11-17T01:02:22.703Z</time>
      </trkpt>
      <trkpt lat="47.571982" lon="7.637364">
        <ele>267.781996</ele>
        <time>2021-11-17T01:02:26.497Z</time>
      </trkpt>
      <trkpt lat="47.571861" lon="7.637212">
        <ele>267.622972</ele>
        <time>2021-11-17T01:02:28.416Z</time>
      </trkpt>
      <trkpt lat="47.571753" lon="7.637078">
        <ele>267.481761</ele>
        <time>2021-11-17T01:02:30.181Z</time>
      </trkpt>
      <trkpt lat="47.571578" lon="7.636839">
        <ele>267.243181</ele>
        <time>2021-11-17T01:02:33.090Z</time>
      </trkpt>
      <trkpt lat="47.571283" lon="7.636434">
        <ele>266.927514</ele>
        <time>2021-11-17T01:02:38.046Z</time>
      </trkpt>
      <trkpt lat="47.571014" lon="7.636055">
        <ele>266.655950</ele>
        <time>2021-11-17T01:02:42.793Z</time>
      </trkpt>
      <trkpt lat="47.570302" lon="7.635051">
        <ele>265.936874</ele>
        <time>2021-11-17T01:02:55.547Z</time>
      </trkpt>
      <trkpt lat="47.570259" lon="7.635033">
        <ele>265.904180</ele>
        <time>2021-11-17T01:02:56.092Z</time>
      </trkpt>
      <trkpt lat="47.570189" lon="7.635029">
        <ele>265.852923</ele>
        <time>2021-11-17T01:02:57.040Z</time>
      </trkpt>
      <trkpt lat="47.570134" lon="7.634958">
        <ele>265.794116</ele>
        <time>2021-11-17T01:02:57.973Z</time>
      </trkpt>
      <trkpt lat="47.570039" lon="7.634831">
        <ele>265.689936</ele>
        <time>2021-11-17T01:02:59.585Z</time>
      </trkpt>
      <trkpt lat="47.569914" lon="7.634657">
        <ele>265.550292</ele>
        <time>2021-11-17T01:03:01.778Z</time>
      </trkpt>
      <trkpt lat="47.569443" lon="7.634003">
        <ele>265.024726</ele>
        <time>2021-11-17T01:03:09.778Z</time>
      </trkpt>
      <trkpt lat="47.569381" lon="7.633887">
        <ele>264.943418</ele>
        <time>2021-11-17T01:03:11.012Z</time>
      </trkpt>
      <trkpt lat="47.569365" lon="7.633738">
        <ele>264.860524</ele>
        <time>2021-11-17T01:03:12.252Z</time>
      </trkpt>
      <trkpt lat="47.569280" lon="7.633767">
        <ele>264.789496</ele>
        <time>2021-11-17T01:03:13.364Z</time>
      </trkpt>
      <trkpt lat="47.569194" lon="7.633796">
        <ele>264.717674</ele>
        <time>2021-11-17T01:03:14.468Z</time>
      </trkpt>
      <trkpt lat="47.568916" lon="7.633890">
        <ele>264.485475</ele>
        <time>2021-11-17T01:03:18.021Z</time>
      </trkpt>
      <trkpt lat="47.568755" lon="7.633945">
        <ele>264.370001</ele>
        <time>2021-11-17T01:03:20.057Z</time>
      </trkpt>
      <trkpt lat="47.568664" lon="7.633976">
        <ele>264.339113</ele>
        <time>2021-11-17T01:03:21.179Z</time>
      </trkpt>
      <trkpt lat="47.568506" lon="7.634074">
        <ele>264.282453</ele>
        <time>2021-11-17T01:03:23.334Z</time>
      </trkpt>
      <trkpt lat="47.568426" lon="7.634116">
        <ele>264.254378</ele>
        <time>2021-11-17T01:03:24.785Z</time>
      </trkpt>
      <trkpt lat="47.567896" lon="7.634414">
        <ele>264.066858</ele>
        <time>2021-11-17T01:03:35.505Z</time>
      </trkpt>
      <trkpt lat="47.567554" lon="7.634720">
        <ele>263.934706</ele>
        <time>2021-11-17T01:03:43.864Z</time>
      </trkpt>
      <trkpt lat="47.567470" lon="7.634813">
        <ele>263.900021</ele>
        <time>2021-11-17T01:03:45.829Z</time>
      </trkpt>
      <trkpt lat="47.567447" lon="7.634839">
        <ele>263.890452</ele>
        <time>2021-11-17T01:03:46.461Z</time>
      </trkpt>
      <trkpt lat="47.567360" lon="7.634990">
        <ele>263.846132</ele>
        <time>2021-11-17T01:03:49.089Z</time>
      </trkpt>
      <trkpt lat="47.567291" lon="7.635141">
        <ele>263.805427</ele>
        <time>2021-11-17T01:03:51.622Z</time>
      </trkpt>
      <trkpt lat="47.567202" lon="7.635336">
        <ele>263.779775</ele>
        <time>2021-11-17T01:03:54.778Z</time>
      </trkpt>
      <trkpt lat="47.567127" lon="7.635520">
        <ele>263.768489</ele>
        <time>2021-11-17T01:03:57.608Z</time>
      </trkpt>
      <trkpt lat="47.566975" lon="7.635896">
        <ele>263.745477</ele>
        <time>2021-11-17T01:04:03.723Z</time>
      </trkpt>
      <trkpt lat="47.566893" lon="7.636097">
        <ele>263.733145</ele>
        <time>2021-11-17T01:04:06.987Z</time>
      </trkpt>
      <trkpt lat="47.566839" lon="7.636231">
        <ele>263.724950</ele>
        <time>2021-11-17T01:04:09.265Z</time>
      </trkpt>
      <trkpt lat="47.566788" lon="7.636368">
        <ele>263.716735</ele>
        <time>2021-11-17T01:04:11.333Z</time>
      </trkpt>
      <trkpt lat="47.566774" lon="7.636453">
        <ele>263.712142</ele>
        <time>2021-11-17T01:04:12.537Z</time>
      </trkpt>
      <trkpt lat="47.566766" lon="7.636540">
        <ele>263.707532</ele>
        <time>2021-11-17T01:04:13.860Z</time>
      </trkpt>
      <trkpt lat="47.566514" lon="7.636519">
        <ele>263.687892</ele>
        <time>2021-11-17T01:04:17.618Z</time>
      </trkpt>
      <trkpt lat="47.566084" lon="7.636483">
        <ele>263.654380</ele>
        <time>2021-11-17T01:04:23.984Z</time>
      </trkpt>
      <trkpt lat="47.566043" lon="7.636480">
        <ele>263.651186</ele>
        <time>2021-11-17T01:04:24.609Z</time>
      </trkpt>
      <trkpt lat="47.565914" lon="7.636469">
        <ele>263.570551</ele>
        <time>2021-11-17T01:04:26.372Z</time>
      </trkpt>
      <trkpt lat="47.565890" lon="7.636467">
        <ele>263.549714</ele>
        <time>2021-11-17T01:04:26.709Z</time>
      </trkpt>
      <trkpt lat="47.565789" lon="7.636459">
        <ele>263.462040</ele>
        <time>2021-11-17T01:04:27.992Z</time>
      </trkpt>
      <trkpt lat="47.565748" lon="7.636455">
        <ele>263.426423</ele>
        <time>2021-11-17T01:04:28.562Z</time>
      </trkpt>
      <trkpt lat="47.565321" lon="7.636419">
        <ele>263.055690</ele>
        <time>2021-11-17T01:04:33.867Z</time>
      </trkpt>
      <trkpt lat="47.564986" lon="7.636389">
        <ele>262.764773</ele>
        <time>2021-11-17T01:04:37.880Z</time>
      </trkpt>
      <trkpt lat="47.564924" lon="7.636372">
        <ele>262.710118</ele>
        <time>2021-11-17T01:04:38.627Z</time>
      </trkpt>
      <trkpt lat="47.564863" lon="7.636347">
        <ele>262.655257</ele>
        <time>2021-11-17T01:04:39.460Z</time>
      </trkpt>
      <trkpt lat="47.564136" lon="7.635747">
        <ele>261.793352</ele>
        <time>2021-11-17T01:04:50.087Z</time>
      </trkpt>
      <trkpt lat="47.563800" lon="7.635461">
        <ele>261.152886</ele>
        <time>2021-11-17T01:04:54.163Z</time>
      </trkpt>
      <trkpt lat="47.562895" lon="7.634844">
        <ele>259.506299</ele>
        <time>2021-11-17T01:05:05.257Z</time>
      </trkpt>
      <trkpt lat="47.562491" lon="7.634562">
        <ele>258.911284</ele>
        <time>2021-11-17T01:05:10.560Z</time>
      </trkpt>
      <trkpt lat="47.562356" lon="7.634468">
        <ele>258.766190</ele>
        <time>2021-11-17T01:05:12.180Z</time>
      </trkpt>
      <trkpt lat="47.562299" lon="7.634770">
        <ele>258.560349</ele>
        <time>2021-11-17T01:05:14.739Z</time>
      </trkpt>
      <trkpt lat="47.562290" lon="7.634813">
        <ele>258.530798</ele>
        <time>2021-11-17T01:05:15.064Z</time>
      </trkpt>
      <trkpt lat="47.562278" lon="7.634866">
        <ele>258.494103</ele>
        <time>2021-11-17T01:05:15.471Z</time>
      </trkpt>
      <trkpt lat="47.562267" lon="7.634913">
        <ele>258.461449</ele>
        <time>2021-11-17T01:05:15.976Z</time>
      </trkpt>
      <trkpt lat="47.562211" lon="7.635159">
        <ele>258.291034</ele>
        <time>2021-11-17T01:05:18.007Z</time>
      </trkpt>
      <trkpt lat="47.562196" lon="7.635223">
        <ele>258.246562</ele>
        <time>2021-11-17T01:05:18.544Z</time>
      </trkpt>
      <trkpt lat="47.562186" lon="7.635270">
        <ele>258.214214</ele>
        <time>2021-11-17T01:05:18.960Z</time>
      </trkpt>
      <trkpt lat="47.562076" lon="7.635765">
        <ele>257.872131</ele>
        <time>2021-11-17T01:05:23.110Z</time>
      </trkpt>
      <trkpt lat="47.561882" lon="7.636362">
        <ele>257.437187</ele>
        <time>2021-11-17T01:05:28.806Z</time>
      </trkpt>
      <trkpt lat="47.561822" lon="7.636510">
        <ele>257.379921</ele>
        <time>2021-11-17T01:05:30.564Z</time>
      </trkpt>
      <trkpt lat="47.561782" lon="7.636596">
        <ele>257.401806</ele>
        <time>2021-11-17T01:05:31.905Z</time>
      </trkpt>
      <trkpt lat="47.561686" lon="7.636795">
        <ele>257.453060</ele>
        <time>2021-11-17T01:05:35.403Z</time>
      </trkpt>
      <trkpt lat="47.561175" lon="7.637862">
        <ele>257.727203</ele>
        <time>2021-11-17T01:05:49.562Z</time>
      </trkpt>
      <trkpt lat="47.560897" lon="7.638442">
        <ele>257.876264</ele>
        <time>2021-11-17T01:05:57.096Z</time>
      </trkpt>
      <trkpt lat="47.560694" lon="7.638827">
        <ele>258.051476</ele>
        <time>2021-11-17T01:06:02.870Z</time>
      </trkpt>
      <trkpt lat="47.560246" lon="7.639588">
        <ele>258.549525</ele>
        <time>2021-11-17T01:06:14.578Z</time>
      </trkpt>
      <trkpt lat="47.559838" lon="7.640255">
        <ele>258.993505</ele>
        <time>2021-11-17T01:06:25.166Z</time>
      </trkpt>
      <trkpt lat="47.559349" lon="7.641052">
        <ele>259.464795</ele>
        <time>2021-11-17T01:06:39.718Z</time>
      </trkpt>
      <trkpt lat="47.559035" lon="7.641573">
        <ele>259.736935</ele>
        <time>2021-11-17T01:06:48.363Z</time>
      </trkpt>
      <trkpt lat="47.558885" lon="7.641826">
        <ele>259.868139</ele>
        <time>2021-11-17T01:06:52.025Z</time>
      </trkpt>
      <trkpt lat="47.558729" lon="7.642083">
        <ele>260.002809</ele>
        <time>2021-11-17T01:06:56.047Z</time>
      </trkpt>
      <trkpt lat="47.558518" lon="7.642425">
        <ele>260.183341</ele>
        <time>2021-11-17T01:07:00.967Z</time>
      </trkpt>
      <trkpt lat="47.558364" lon="7.642637">
        <ele>260.243735</ele>
        <time>2021-11-17T01:07:03.859Z</time>
      </trkpt>
      <trkpt lat="47.557834" lon="7.643162">
        <ele>259.780027</ele>
        <time>2021-11-17T01:07:13.002Z</time>
      </trkpt>
      <trkpt lat="47.555716" lon="7.644654">
        <ele>257.796152</ele>
        <time>2021-11-17T01:07:41.023Z</time>
      </trkpt>
      <trkpt lat="47.555704" lon="7.644698">
        <ele>257.765620</ele>
        <time>2021-11-17T01:07:41.389Z</time>
      </trkpt>
      <trkpt lat="47.555705" lon="7.644761">
        <ele>257.725077</ele>
        <time>2021-11-17T01:07:41.966Z</time>
      </trkpt>
      <trkpt lat="47.555880" lon="7.645218">
        <ele>257.387026</ele>
        <time>2021-11-17T01:07:46.544Z</time>
      </trkpt>
      <trkpt lat="47.555943" lon="7.645361">
        <ele>257.277157</ele>
        <time>2021-11-17T01:07:48.313Z</time>
      </trkpt>
      <trkpt lat="47.555473" lon="7.645969">
        <ele>257.207926</ele>
        <time>2021-11-17T01:08:10.588Z</time>
      </trkpt>
      <trkpt lat="47.555430" lon="7.646034">
        <ele>257.203133</ele>
        <time>2021-11-17T01:08:11.686Z</time>
      </trkpt>
      <trkpt lat="47.555334" lon="7.646275">
        <ele>257.188399</ele>
        <time>2021-11-17T01:08:14.288Z</time>
      </trkpt>
      <trkpt lat="47.555260" lon="7.646449">
        <ele>257.177570</ele>
        <time>2021-11-17T01:08:16.441Z</time>
      </trkpt>
      <trkpt lat="47.555143" lon="7.646614">
        <ele>257.164969</ele>
        <time>2021-11-17T01:08:18.911Z</time>
      </trkpt>
      <trkpt lat="47.554979" lon="7.646846">
        <ele>257.147279</ele>
        <time>2021-11-17T01:08:22.279Z</time>
      </trkpt>
      <trkpt lat="47.554905" lon="7.646948">
        <ele>257.139394</ele>
        <time>2021-11-17T01:08:23.788Z</time>
      </trkpt>
      <trkpt lat="47.554475" lon="7.647537">
        <ele>257.222605</ele>
        <time>2021-11-17T01:08:32.591Z</time>
      </trkpt>
      <trkpt lat="47.554118" lon="7.648113">
        <ele>257.437383</ele>
        <time>2021-11-17T01:08:41.677Z</time>
      </trkpt>
      <trkpt lat="47.553958" lon="7.648375">
        <ele>257.534424</ele>
        <time>2021-11-17T01:08:45.648Z</time>
      </trkpt>
      <trkpt lat="47.553714" lon="7.648774">
        <ele>257.682299</ele>
        <time>2021-11-17T01:08:51.618Z</time>
      </trkpt>
      <trkpt lat="47.553648" lon="7.648907">
        <ele>257.727638</ele>
        <time>2021-11-17T01:08:53.490Z</time>
      </trkpt>
      <trkpt lat="47.553146" lon="7.649919">
        <ele>258.195324</ele>
        <time>2021-11-17T01:09:07.794Z</time>
      </trkpt>
      <trkpt lat="47.552587" lon="7.651166">
        <ele>258.829585</ele>
        <time>2021-11-17T01:09:25.765Z</time>
      </trkpt>
      <trkpt lat="47.552183" lon="7.652241">
        <ele>259.261603</ele>
        <time>2021-11-17T01:09:39.976Z</time>
      </trkpt>
      <trkpt lat="47.552106" lon="7.652480">
        <ele>259.347118</ele>
        <time>2021-11-17T01:09:42.896Z</time>
      </trkpt>
      <trkpt lat="47.552114" lon="7.652563">
        <ele>259.374190</ele>
        <time>2021-11-17T01:09:43.864Z</time>
      </trkpt>
      <trkpt lat="47.552074" lon="7.652610">
        <ele>259.398615</ele>
        <time>2021-11-17T01:09:44.765Z</time>
      </trkpt>
      <trkpt lat="47.551932" lon="7.653017">
        <ele>259.546557</ele>
        <time>2021-11-17T01:09:49.842Z</time>
      </trkpt>
      <trkpt lat="47.551870" lon="7.653156">
        <ele>259.600357</ele>
        <time>2021-11-17T01:09:51.745Z</time>
      </trkpt>
      <trkpt lat="47.551661" lon="7.653577">
        <ele>259.769113</ele>
        <time>2021-11-17T01:09:57.548Z</time>
      </trkpt>
      <trkpt lat="47.551583" lon="7.653791">
        <ele>259.846376</ele>
        <time>2021-11-17T01:10:00.179Z</time>
      </trkpt>
      <trkpt lat="47.550937" lon="7.657286">
        <ele>260.824004</ele>
        <time>2021-11-17T01:10:40.752Z</time>
      </trkpt>
      <trkpt lat="47.550899" lon="7.657475">
        <ele>260.867943</ele>
        <time>2021-11-17T01:10:43.120Z</time>
      </trkpt>
      <trkpt lat="47.550868" lon="7.657668">
        <ele>260.912145</ele>
        <time>2021-11-17T01:10:45.220Z</time>
      </trkpt>
      <trkpt lat="47.550853" lon="7.657854">
        <ele>260.953881</ele>
        <time>2021-11-17T01:10:47.125Z</time>
      </trkpt>
      <trkpt lat="47.550745" lon="7.659104">
        <ele>261.217816</ele>
        <time>2021-11-17T01:11:00.258Z</time>
      </trkpt>
      <trkpt lat="47.550675" lon="7.659854">
        <ele>261.312761</ele>
        <time>2021-11-17T01:11:08.112Z</time>
      </trkpt>
      <trkpt lat="47.550671" lon="7.660018">
        <ele>261.333340</ele>
        <time>2021-11-17T01:11:09.757Z</time>
      </trkpt>
      <trkpt lat="47.550667" lon="7.660245">
        <ele>261.361815</ele>
        <time>2021-11-17T01:11:12.091Z</time>
      </trkpt>
      <trkpt lat="47.550660" lon="7.660475">
        <ele>261.390686</ele>
        <time>2021-11-17T01:11:14.547Z</time>
      </trkpt>
      <trkpt lat="47.549673" lon="7.667139">
        <ele>262.317837</ele>
        <time>2021-11-17T01:12:28.350Z</time>
      </trkpt>
      <trkpt lat="47.549432" lon="7.668426">
        <ele>261.639201</ele>
        <time>2021-11-17T01:12:39.939Z</time>
      </trkpt>
      <trkpt lat="47.549386" lon="7.668719">
        <ele>261.486350</ele>
        <time>2021-11-17T01:12:42.170Z</time>
      </trkpt>
      <trkpt lat="47.549361" lon="7.668877">
        <ele>261.403892</ele>
        <time>2021-11-17T01:12:43.584Z</time>
      </trkpt>
      <trkpt lat="47.549326" lon="7.669106">
        <ele>261.284589</ele>
        <time>2021-11-17T01:12:45.390Z</time>
      </trkpt>
      <trkpt lat="47.549302" lon="7.669267">
        <ele>261.200812</ele>
        <time>2021-11-17T01:12:46.576Z</time>
      </trkpt>
      <trkpt lat="47.549257" lon="7.669586">
        <ele>261.015258</ele>
        <time>2021-11-17T01:12:49.237Z</time>
      </trkpt>
      <trkpt lat="47.548962" lon="7.670528">
        <ele>260.400802</ele>
        <time>2021-11-17T01:12:57.716Z</time>
      </trkpt>
      <trkpt lat="47.548929" lon="7.670643">
        <ele>260.326862</ele>
        <time>2021-11-17T01:12:58.623Z</time>
      </trkpt>
      <trkpt lat="47.548906" lon="7.670686">
        <ele>260.294398</ele>
        <time>2021-11-17T01:12:58.997Z</time>
      </trkpt>
      <trkpt lat="47.548720" lon="7.670938">
        <ele>260.073442</ele>
        <time>2021-11-17T01:13:02.792Z</time>
      </trkpt>
      <trkpt lat="47.548674" lon="7.671062">
        <ele>259.989719</ele>
        <time>2021-11-17T01:13:03.864Z</time>
      </trkpt>
      <trkpt lat="47.548598" lon="7.671036">
        <ele>259.921341</ele>
        <time>2021-11-17T01:13:05.178Z</time>
      </trkpt>
      <trkpt lat="47.548474" lon="7.671088">
        <ele>259.808365</ele>
        <time>2021-11-17T01:13:07.042Z</time>
      </trkpt>
      <trkpt lat="47.548409" lon="7.671192">
        <ele>259.724497</ele>
        <time>2021-11-17T01:13:08.218Z</time>
      </trkpt>
      <trkpt lat="47.548386" lon="7.671284">
        <ele>259.666446</ele>
        <time>2021-11-17T01:13:08.960Z</time>
      </trkpt>
      <trkpt lat="47.547991" lon="7.671160">
        <ele>259.620475</ele>
        <time>2021-11-17T01:13:14.619Z</time>
      </trkpt>
      <trkpt lat="47.547947" lon="7.671147">
        <ele>259.626460</ele>
        <time>2021-11-17T01:13:15.408Z</time>
      </trkpt>
      <trkpt lat="47.547490" lon="7.672735">
        <ele>259.781902</ele>
        <time>2021-11-17T01:13:33.965Z</time>
      </trkpt>
      <trkpt lat="47.547314" lon="7.673384">
        <ele>259.921961</ele>
        <time>2021-11-17T01:13:41.679Z</time>
      </trkpt>
      <trkpt lat="47.547157" lon="7.674035">
        <ele>260.175051</ele>
        <time>2021-11-17T01:13:49.088Z</time>
      </trkpt>
      <trkpt lat="47.547130" lon="7.674170">
        <ele>260.226600</ele>
        <time>2021-11-17T01:13:50.896Z</time>
      </trkpt>
      <trkpt lat="47.546219" lon="7.677720">
        <ele>261.932160</ele>
        <time>2021-11-17T01:14:35.615Z</time>
      </trkpt>
      <trkpt lat="47.546195" lon="7.677846">
        <ele>261.998472</ele>
        <time>2021-11-17T01:14:36.955Z</time>
      </trkpt>
      <trkpt lat="47.546177" lon="7.677946">
        <ele>262.050893</ele>
        <time>2021-11-17T01:14:38.407Z</time>
      </trkpt>
      <trkpt lat="47.545897" lon="7.679076">
        <ele>262.864699</ele>
        <time>2021-11-17T01:14:54.322Z</time>
      </trkpt>
      <trkpt lat="47.545501" lon="7.680150">
        <ele>263.729934</ele>
        <time>2021-11-17T01:15:10.013Z</time>
      </trkpt>
      <trkpt lat="47.545417" lon="7.680396">
        <ele>263.924849</ele>
        <time>2021-11-17T01:15:13.828Z</time>
      </trkpt>
      <trkpt lat="47.545322" lon="7.680711">
        <ele>264.139693</ele>
        <time>2021-11-17T01:15:17.971Z</time>
      </trkpt>
      <trkpt lat="47.544970" lon="7.682061">
        <ele>264.950105</ele>
        <time>2021-11-17T01:15:36.049Z</time>
      </trkpt>
      <trkpt lat="47.544988" lon="7.682143">
        <ele>264.998391</ele>
        <time>2021-11-17T01:15:37.033Z</time>
      </trkpt>
      <trkpt lat="47.544842" lon="7.682691">
        <ele>265.328299</ele>
        <time>2021-11-17T01:15:43.997Z</time>
      </trkpt>
      <trkpt lat="47.544706" lon="7.683296">
        <ele>265.672873</ele>
        <time>2021-11-17T01:15:51.374Z</time>
      </trkpt>
      <trkpt lat="47.544626" lon="7.683667">
        <ele>265.874368</ele>
        <time>2021-11-17T01:15:55.887Z</time>
      </trkpt>
      <trkpt lat="47.544559" lon="7.684001">
        <ele>266.054634</ele>
        <time>2021-11-17T01:16:00.181Z</time>
      </trkpt>
      <trkpt lat="47.544493" lon="7.684340">
        <ele>266.237168</ele>
        <time>2021-11-17T01:16:04.546Z</time>
      </trkpt>
      <trkpt lat="47.544439" lon="7.684615">
        <ele>266.385339</ele>
        <time>2021-11-17T01:16:08.234Z</time>
      </trkpt>
      <trkpt lat="47.544438" lon="7.684734">
        <ele>266.446910</ele>
        <time>2021-11-17T01:16:09.733Z</time>
      </trkpt>
      <trkpt lat="47.544434" lon="7.684888">
        <ele>266.526642</ele>
        <time>2021-11-17T01:16:11.918Z</time>
      </trkpt>
      <trkpt lat="47.544310" lon="7.686004">
        <ele>266.946610</ele>
        <time>2021-11-17T01:16:25.464Z</time>
      </trkpt>
      <trkpt lat="47.544128" lon="7.687068">
        <ele>267.072402</ele>
        <time>2021-11-17T01:16:36.945Z</time>
      </trkpt>
      <trkpt lat="47.544057" lon="7.687517">
        <ele>267.125252</ele>
        <time>2021-11-17T01:16:41.581Z</time>
      </trkpt>
      <trkpt lat="47.543979" lon="7.687928">
        <ele>267.174180</ele>
        <time>2021-11-17T01:16:45.765Z</time>
      </trkpt>
      <trkpt lat="47.543887" lon="7.688428">
        <ele>267.204709</ele>
        <time>2021-11-17T01:16:50.789Z</time>
      </trkpt>
      <trkpt lat="47.543849" lon="7.688664">
        <ele>267.204446</ele>
        <time>2021-11-17T01:16:53.225Z</time>
      </trkpt>
      <trkpt lat="47.543756" lon="7.689554">
        <ele>267.203470</ele>
        <time>2021-11-17T01:17:01.185Z</time>
      </trkpt>
      <trkpt lat="47.543747" lon="7.689674">
        <ele>267.203340</ele>
        <time>2021-11-17T01:17:02.500Z</time>
      </trkpt>
      <trkpt lat="47.543719" lon="7.690293">
        <ele>267.202668</ele>
        <time>2021-11-17T01:17:08.876Z</time>
      </trkpt>
      <trkpt lat="47.543718" lon="7.690373">
        <ele>267.202581</ele>
        <time>2021-11-17T01:17:09.722Z</time>
      </trkpt>
      <trkpt lat="47.543695" lon="7.691028">
        <ele>267.242750</ele>
        <time>2021-11-17T01:17:17.236Z</time>
      </trkpt>
      <trkpt lat="47.543669" lon="7.691801">
        <ele>267.396096</ele>
        <time>2021-11-17T01:17:26.438Z</time>
      </trkpt>
      <trkpt lat="47.543652" lon="7.692147">
        <ele>267.464832</ele>
        <time>2021-11-17T01:17:30.014Z</time>
      </trkpt>
      <trkpt lat="47.543627" lon="7.692460">
        <ele>267.527280</ele>
        <time>2021-11-17T01:17:33.603Z</time>
      </trkpt>
      <trkpt lat="47.543515" lon="7.693372">
        <ele>267.710944</ele>
        <time>2021-11-17T01:17:43.260Z</time>
      </trkpt>
      <trkpt lat="47.543315" lon="7.694525">
        <ele>267.542925</ele>
        <time>2021-11-17T01:17:54.832Z</time>
      </trkpt>
      <trkpt lat="47.543147" lon="7.695557">
        <ele>267.361389</ele>
        <time>2021-11-17T01:18:04.110Z</time>
      </trkpt>
      <trkpt lat="47.542960" lon="7.696989">
        <ele>267.404652</ele>
        <time>2021-11-17T01:18:18.249Z</time>
      </trkpt>
      <trkpt lat="47.542902" lon="7.697537">
        <ele>267.480737</ele>
        <time>2021-11-17T01:18:24.245Z</time>
      </trkpt>
      <trkpt lat="47.542740" lon="7.698914">
        <ele>267.692219</ele>
        <time>2021-11-17T01:18:39.994Z</time>
      </trkpt>
      <trkpt lat="47.542682" lon="7.699476">
        <ele>267.817463</ele>
        <time>2021-11-17T01:18:46.482Z</time>
      </trkpt>
      <trkpt lat="47.542651" lon="7.699916">
        <ele>267.914919</ele>
        <time>2021-11-17T01:18:51.483Z</time>
      </trkpt>
      <trkpt lat="47.542660" lon="7.700609">
        <ele>268.067611</ele>
        <time>2021-11-17T01:18:59.206Z</time>
      </trkpt>
      <trkpt lat="47.542766" lon="7.702209">
        <ele>268.261310</ele>
        <time>2021-11-17T01:19:15.603Z</time>
      </trkpt>
      <trkpt lat="47.542785" lon="7.702499">
        <ele>268.272662</ele>
        <time>2021-11-17T01:19:18.494Z</time>
      </trkpt>
      <trkpt lat="47.542833" lon="7.702609">
        <ele>268.277766</ele>
        <time>2021-11-17T01:19:19.740Z</time>
      </trkpt>
      <trkpt lat="47.542922" lon="7.702619">
        <ele>268.282918</ele>
        <time>2021-11-17T01:19:21.154Z</time>
      </trkpt>
      <trkpt lat="47.542979" lon="7.703226">
        <ele>268.306796</ele>
        <time>2021-11-17T01:19:27.514Z</time>
      </trkpt>
      <trkpt lat="47.543001" lon="7.703419">
        <ele>268.314422</ele>
        <time>2021-11-17T01:19:29.501Z</time>
      </trkpt>
      <trkpt lat="47.543146" lon="7.704707">
        <ele>268.124756</ele>
        <time>2021-11-17T01:19:42.168Z</time>
      </trkpt>
      <trkpt lat="47.543153" lon="7.704762">
        <ele>268.111798</ele>
        <time>2021-11-17T01:19:42.697Z</time>
      </trkpt>
      <trkpt lat="47.543166" lon="7.704863">
        <ele>268.087995</ele>
        <time>2021-11-17T01:19:43.626Z</time>
      </trkpt>
      <trkpt lat="47.543179" lon="7.704985">
        <ele>268.059402</ele>
        <time>2021-11-17T01:19:45.234Z</time>
      </trkpt>
      <trkpt lat="47.543192" lon="7.705107">
        <ele>268.030808</ele>
        <time>2021-11-17T01:19:46.834Z</time>
      </trkpt>
      <trkpt lat="47.543280" lon="7.705893">
        <ele>267.846359</ele>
        <time>2021-11-17T01:19:54.017Z</time>
      </trkpt>
      <trkpt lat="47.543360" lon="7.706664">
        <ele>267.574183</ele>
        <time>2021-11-17T01:20:01.079Z</time>
      </trkpt>
      <trkpt lat="47.543343" lon="7.707367">
        <ele>267.100746</ele>
        <time>2021-11-17T01:20:07.297Z</time>
      </trkpt>
      <trkpt lat="47.543080" lon="7.709103">
        <ele>265.889855</ele>
        <time>2021-11-17T01:20:21.665Z</time>
      </trkpt>
      <trkpt lat="47.542885" lon="7.709631">
        <ele>265.167772</ele>
        <time>2021-11-17T01:20:26.260Z</time>
      </trkpt>
      <trkpt lat="47.542797" lon="7.709757">
        <ele>264.950253</ele>
        <time>2021-11-17T01:20:27.591Z</time>
      </trkpt>
      <trkpt lat="47.542709" lon="7.709872">
        <ele>264.741689</ele>
        <time>2021-11-17T01:20:28.930Z</time>
      </trkpt>
      <trkpt lat="47.542638" lon="7.709956">
        <ele>264.580194</ele>
        <time>2021-11-17T01:20:30.018Z</time>
      </trkpt>
      <trkpt lat="47.542606" lon="7.709991">
        <ele>264.509498</ele>
        <time>2021-11-17T01:20:30.433Z</time>
      </trkpt>
      <trkpt lat="47.542559" lon="7.710042">
        <ele>264.405951</ele>
        <time>2021-11-17T01:20:31.075Z</time>
      </trkpt>
      <trkpt lat="47.542526" lon="7.710079">
        <ele>264.332394</ele>
        <time>2021-11-17T01:20:31.502Z</time>
      </trkpt>
      <trkpt lat="47.542440" lon="7.710127">
        <ele>264.169055</ele>
        <time>2021-11-17T01:20:32.574Z</time>
      </trkpt>
      <trkpt lat="47.542315" lon="7.710174">
        <ele>263.939845</ele>
        <time>2021-11-17T01:20:34.053Z</time>
      </trkpt>
      <trkpt lat="47.542178" lon="7.710226">
        <ele>263.688487</ele>
        <time>2021-11-17T01:20:35.562Z</time>
      </trkpt>
      <trkpt lat="47.541354" lon="7.710467">
        <ele>262.323498</ele>
        <time>2021-11-17T01:20:44.734Z</time>
      </trkpt>
      <trkpt lat="47.540817" lon="7.710444">
        <ele>261.599765</ele>
        <time>2021-11-17T01:20:50.724Z</time>
      </trkpt>
      <trkpt lat="47.540498" lon="7.710323">
        <ele>261.156153</ele>
        <time>2021-11-17T01:20:54.750Z</time>
      </trkpt>
      <trkpt lat="47.540428" lon="7.710280">
        <ele>261.054064</ele>
        <time>2021-11-17T01:20:55.608Z</time>
      </trkpt>
      <trkpt lat="47.540229" lon="7.710170">
        <ele>260.767921</ele>
        <time>2021-11-17T01:20:58.362Z</time>
      </trkpt>
      <trkpt lat="47.539646" lon="7.709593">
        <ele>260.175589</ele>
        <time>2021-11-17T01:21:07.367Z</time>
      </trkpt>
      <trkpt lat="47.539021" lon="7.708561">
        <ele>259.845197</ele>
        <time>2021-11-17T01:21:20.189Z</time>
      </trkpt>
      <trkpt lat="47.538715" lon="7.707769">
        <ele>259.647594</ele>
        <time>2021-11-17T01:21:29.082Z</time>
      </trkpt>
      <trkpt lat="47.538687" lon="7.707698">
        <ele>259.638240</ele>
        <time>2021-11-17T01:21:29.867Z</time>
      </trkpt>
      <trkpt lat="47.538663" lon="7.707476">
        <ele>259.612666</ele>
        <time>2021-11-17T01:21:32.048Z</time>
      </trkpt>
      <trkpt lat="47.538540" lon="7.707151">
        <ele>259.570283</ele>
        <time>2021-11-17T01:21:35.509Z</time>
      </trkpt>
      <trkpt lat="47.538403" lon="7.706790">
        <ele>259.523175</ele>
        <time>2021-11-17T01:21:39.320Z</time>
      </trkpt>
      <trkpt lat="47.538239" lon="7.706913">
        <ele>259.492201</ele>
        <time>2021-11-17T01:21:41.834Z</time>
      </trkpt>
      <trkpt lat="47.536551" lon="7.708325">
        <ele>260.131354</ele>
        <time>2021-11-17T01:22:20.646Z</time>
      </trkpt>
      <trkpt lat="47.536506" lon="7.708376">
        <ele>260.168587</ele>
        <time>2021-11-17T01:22:22.205Z</time>
      </trkpt>
      <trkpt lat="47.536244" lon="7.708596">
        <ele>260.366491</ele>
        <time>2021-11-17T01:22:29.275Z</time>
      </trkpt>
      <trkpt lat="47.536866" lon="7.710249">
        <ele>262.945650</ele>
        <time>2021-11-17T01:23:08.538Z</time>
      </trkpt>
      <trkpt lat="47.536654" lon="7.710426">
        <ele>263.526143</ele>
        <time>2021-11-17T01:23:16.127Z</time>
      </trkpt>
      <trkpt lat="47.536503" lon="7.710555">
        <ele>263.941944</ele>
        <time>2021-11-17T01:23:37.107Z</time>
      </trkpt>
      <trkpt lat="47.536434" lon="7.710627">
        <ele>264.143274</ele>
        <time>2021-11-17T01:23:39.665Z</time>
      </trkpt>
      <trkpt lat="47.536351" lon="7.710783">
        <ele>264.463133</ele>
        <time>2021-11-17T01:23:43.669Z</time>
      </trkpt>
      <trkpt lat="47.536587" lon="7.711300">
        <ele>264.998738</ele>
        <time>2021-11-17T01:23:55.754Z</time>
      </trkpt>
      <trkpt lat="47.536914" lon="7.712167">
        <ele>265.412401</ele>
        <time>2021-11-17T01:24:13.830Z</time>
      </trkpt>
      <trkpt lat="47.536944" lon="7.712258">
        <ele>265.454583</ele>
        <time>2021-11-17T01:24:15.394Z</time>
      </trkpt>
      <trkpt lat="47.537049" lon="7.712536">
        <ele>265.587267</ele>
        <time>2021-11-17T01:24:19.826Z</time>
      </trkpt>
      <trkpt lat="47.537078" lon="7.712647">
        <ele>265.636843</ele>
        <time>2021-11-17T01:24:21.268Z</time>
      </trkpt>
      <trkpt lat="47.537200" lon="7.713102">
        <ele>265.840762</ele>
        <time>2021-11-17T01:24:26.802Z</time>
      </trkpt>
      <trkpt lat="47.537252" lon="7.713332">
        <ele>265.941792</ele>
        <time>2021-11-17T01:24:29.575Z</time>
      </trkpt>
      <trkpt lat="47.537287" lon="7.713488">
        <ele>265.889414</ele>
        <time>2021-11-17T01:24:31.429Z</time>
      </trkpt>
      <trkpt lat="47.537373" lon="7.713866">
        <ele>265.749449</ele>
        <time>2021-11-17T01:24:35.941Z</time>
      </trkpt>
      <trkpt lat="47.537410" lon="7.714028">
        <ele>265.689441</ele>
        <time>2021-11-17T01:24:37.856Z</time>
      </trkpt>
      <trkpt lat="47.537437" lon="7.714141">
        <ele>265.647380</ele>
        <time>2021-11-17T01:24:39.187Z</time>
      </trkpt>
      <trkpt lat="47.537445" lon="7.714177">
        <ele>265.634082</ele>
        <time>2021-11-17T01:24:39.627Z</time>
      </trkpt>
      <trkpt lat="47.537574" lon="7.714861">
        <ele>265.384886</ele>
        <time>2021-11-17T01:24:48.180Z</time>
      </trkpt>
      <trkpt lat="47.537628" lon="7.715098">
        <ele>265.297118</ele>
        <time>2021-11-17T01:24:51.253Z</time>
      </trkpt>
      <trkpt lat="47.537691" lon="7.715385">
        <ele>265.191224</ele>
        <time>2021-11-17T01:24:55.888Z</time>
      </trkpt>
      <trkpt lat="47.537682" lon="7.715689">
        <ele>265.084452</ele>
        <time>2021-11-17T01:24:59.863Z</time>
      </trkpt>
      <trkpt lat="47.537665" lon="7.715878">
        <ele>265.017549</ele>
        <time>2021-11-17T01:25:02.942Z</time>
      </trkpt>
      <trkpt lat="47.537603" lon="7.716125">
        <ele>265.263331</ele>
        <time>2021-11-17T01:25:06.328Z</time>
      </trkpt>
      <trkpt lat="47.537590" lon="7.716163">
        <ele>265.308046</ele>
        <time>2021-11-17T01:25:06.958Z</time>
      </trkpt>
      <trkpt lat="47.537539" lon="7.716317">
        <ele>265.488090</ele>
        <time>2021-11-17T01:25:09.961Z</time>
      </trkpt>
      <trkpt lat="47.537640" lon="7.716279">
        <ele>265.650108</ele>
        <time>2021-11-17T01:25:12.238Z</time>
      </trkpt>
      <trkpt lat="47.537703" lon="7.716281">
        <ele>265.748081</ele>
        <time>2021-11-17T01:25:13.598Z</time>
      </trkpt>
      <trkpt lat="47.537786" lon="7.716325">
        <ele>265.885143</ele>
        <time>2021-11-17T01:25:15.910Z</time>
      </trkpt>
      <trkpt lat="47.537834" lon="7.716383">
        <ele>265.981453</ele>
        <time>2021-11-17T01:25:17.948Z</time>
      </trkpt>
      <trkpt lat="47.537984" lon="7.716489">
        <ele>266.239849</ele>
        <time>2021-11-17T01:25:22.301Z</time>
      </trkpt>
      <trkpt lat="47.538102" lon="7.716534">
        <ele>266.429294</ele>
        <time>2021-11-17T01:25:25.570Z</time>
      </trkpt>
      <trkpt lat="47.538239" lon="7.716580">
        <ele>266.647701</ele>
        <time>2021-11-17T01:25:30.174Z</time>
      </trkpt>
      <trkpt lat="47.538459" lon="7.717007">
        <ele>267.211501</ele>
        <time>2021-11-17T01:25:40.676Z</time>
      </trkpt>
      <trkpt lat="47.538708" lon="7.717692">
        <ele>267.982986</ele>
        <time>2021-11-17T01:25:55.296Z</time>
      </trkpt>
      <trkpt lat="47.538787" lon="7.718061">
        <ele>268.306672</ele>
        <time>2021-11-17T01:26:02.990Z</time>
      </trkpt>
      <trkpt lat="47.538796" lon="7.718297">
        <ele>268.504320</ele>
        <time>2021-11-17T01:26:07.060Z</time>
      </trkpt>
      <trkpt lat="47.538843" lon="7.718730">
        <ele>268.871026</ele>
        <time>2021-11-17T01:26:14.792Z</time>
      </trkpt>
      <trkpt lat="47.538928" lon="7.719478">
        <ele>269.505270</ele>
        <time>2021-11-17T01:26:26.759Z</time>
      </trkpt>
      <trkpt lat="47.538952" lon="7.719661">
        <ele>269.661147</ele>
        <time>2021-11-17T01:26:29.615Z</time>
      </trkpt>
      <trkpt lat="47.538974" lon="7.719868">
        <ele>269.836363</ele>
        <time>2021-11-17T01:26:32.618Z</time>
      </trkpt>
      <trkpt lat="47.539020" lon="7.720107">
        <ele>270.041367</ele>
        <time>2021-11-17T01:26:36.665Z</time>
      </trkpt>
      <trkpt lat="47.539077" lon="7.720239">
        <ele>270.136041</ele>
        <time>2021-11-17T01:26:38.989Z</time>
      </trkpt>
      <trkpt lat="47.539274" lon="7.720867">
        <ele>270.554439</ele>
        <time>2021-11-17T01:26:49.694Z</time>
      </trkpt>
      <trkpt lat="47.539484" lon="7.721575">
        <ele>271.021676</ele>
        <time>2021-11-17T01:27:02.416Z</time>
      </trkpt>
      <trkpt lat="47.539552" lon="7.721771">
        <ele>271.154820</ele>
        <time>2021-11-17T01:27:05.899Z</time>
      </trkpt>
      <trkpt lat="47.539552" lon="7.721771">
        <ele>271.154820</ele>
        <time>2021-11-17T01:27:05.901Z</time>
      </trkpt>
      <trkpt lat="47.539552" lon="7.721771">
        <ele>271.154820</ele>
        <time>2021-11-17T01:27:05.932Z</time>
      </trkpt>
      <trkpt lat="47.539330" lon="7.721781">
        <ele>271.353600</ele>
        <time>2021-11-17T01:27:10.242Z</time>
      </trkpt>
      <trkpt lat="47.539026" lon="7.721794">
        <ele>271.625790</ele>
        <time>2021-11-17T01:27:15.843Z</time>
      </trkpt>
      <trkpt lat="47.538548" lon="7.721812">
        <ele>272.004543</ele>
        <time>2021-11-17T01:27:25.046Z</time>
      </trkpt>
      <trkpt lat="47.538162" lon="7.721802">
        <ele>272.308596</ele>
        <time>2021-11-17T01:27:32.755Z</time>
      </trkpt>
      <trkpt lat="47.537750" lon="7.721731">
        <ele>272.635268</ele>
        <time>2021-11-17T01:27:42.358Z</time>
      </trkpt>
      <trkpt lat="47.537550" lon="7.721693">
        <ele>272.794075</ele>
        <time>2021-11-17T01:27:46.044Z</time>
      </trkpt>
      <trkpt lat="47.537550" lon="7.721693">
        <ele>272.794075</ele>
        <time>2021-11-17T01:27:46.049Z</time>
      </trkpt>
      <trkpt lat="47.537539" lon="7.721893">
        <ele>272.900768</ele>
        <time>2021-11-17T01:27:50.272Z</time>
      </trkpt>
      <trkpt lat="47.537870" lon="7.722718">
        <ele>273.247725</ele>
        <time>2021-11-17T01:27:59.973Z</time>
      </trkpt>
      <trkpt lat="47.537956" lon="7.722967">
        <ele>273.327169</ele>
        <time>2021-11-17T01:28:02.068Z</time>
      </trkpt>
      <trkpt lat="47.538163" lon="7.723558">
        <ele>273.516284</ele>
        <time>2021-11-17T01:28:08.305Z</time>
      </trkpt>
      <trkpt lat="47.538218" lon="7.723728">
        <ele>273.569829</ele>
        <time>2021-11-17T01:28:14.403Z</time>
      </trkpt>
      <trkpt lat="47.538235" lon="7.723781">
        <ele>273.586495</ele>
        <time>2021-11-17T01:28:14.912Z</time>
      </trkpt>
      <trkpt lat="47.538245" lon="7.723814">
        <ele>273.596770</ele>
        <time>2021-11-17T01:28:15.112Z</time>
      </trkpt>
      <trkpt lat="47.538309" lon="7.724021">
        <ele>273.661438</ele>
        <time>2021-11-17T01:28:16.798Z</time>
      </trkpt>
      <trkpt lat="47.538367" lon="7.724211">
        <ele>273.720666</ele>
        <time>2021-11-17T01:28:23.734Z</time>
      </trkpt>
      <trkpt lat="47.538545" lon="7.724720">
        <ele>274.072677</ele>
        <time>2021-11-17T01:28:31.632Z</time>
      </trkpt>
      <trkpt lat="47.538991" lon="7.726086">
        <ele>275.733304</ele>
        <time>2021-11-17T01:28:54.727Z</time>
      </trkpt>
      <trkpt lat="47.539334" lon="7.727155">
        <ele>277.541262</ele>
        <time>2021-11-17T01:29:20.717Z</time>
      </trkpt>
      <trkpt lat="47.539469" lon="7.727605">
        <ele>279.014664</ele>
        <time>2021-11-17T01:29:33.205Z</time>
      </trkpt>
      <trkpt lat="47.539460" lon="7.727657">
        <ele>279.175285</ele>
        <time>2021-11-17T01:29:34.514Z</time>
      </trkpt>
      <trkpt lat="47.539460" lon="7.727657">
        <ele>279.175285</ele>
        <time>2021-11-17T01:29:34.565Z</time>
      </trkpt>
      <trkpt lat="47.539446" lon="7.727722">
        <ele>279.379429</ele>
        <time>2021-11-17T01:29:36.424Z</time>
      </trkpt>
      <trkpt lat="47.539426" lon="7.727765">
        <ele>279.535669</ele>
        <time>2021-11-17T01:29:37.862Z</time>
      </trkpt>
      <trkpt lat="47.539384" lon="7.727813">
        <ele>279.770784</ele>
        <time>2021-11-17T01:29:39.847Z</time>
      </trkpt>
      <trkpt lat="47.539067" lon="7.728082">
        <ele>281.389995</ele>
        <time>2021-11-17T01:29:52.431Z</time>
      </trkpt>
      <trkpt lat="47.538783" lon="7.728228">
        <ele>282.722383</ele>
        <time>2021-11-17T01:30:03.199Z</time>
      </trkpt>
      <trkpt lat="47.538627" lon="7.728269">
        <ele>283.424601</ele>
        <time>2021-11-17T01:30:07.972Z</time>
      </trkpt>
      <trkpt lat="47.538549" lon="7.728263">
        <ele>283.770777</ele>
        <time>2021-11-17T01:30:11.122Z</time>
      </trkpt>
      <trkpt lat="47.538538" lon="7.728334">
        <ele>283.988741</ele>
        <time>2021-11-17T01:30:12.883Z</time>
      </trkpt>
      <trkpt lat="47.538527" lon="7.728380">
        <ele>284.134759</ele>
        <time>2021-11-17T01:30:14.064Z</time>
      </trkpt>
      <trkpt lat="47.538474" lon="7.728435">
        <ele>284.421574</ele>
        <time>2021-11-17T01:30:16.516Z</time>
      </trkpt>
      <trkpt lat="47.538188" lon="7.728631">
        <ele>285.321453</ele>
        <time>2021-11-17T01:30:27.020Z</time>
      </trkpt>
      <trkpt lat="47.538156" lon="7.728744">
        <ele>285.524496</ele>
        <time>2021-11-17T01:30:29.691Z</time>
      </trkpt>
      <trkpt lat="47.538211" lon="7.729041">
        <ele>286.034793</ele>
        <time>2021-11-17T01:30:36.407Z</time>
      </trkpt>
      <trkpt lat="47.538275" lon="7.729744">
        <ele>287.210182</ele>
        <time>2021-11-17T01:30:51.940Z</time>
      </trkpt>
      <trkpt lat="47.538339" lon="7.730082">
        <ele>287.791846</ele>
        <time>2021-11-17T01:30:58.269Z</time>
      </trkpt>
      <trkpt lat="47.538512" lon="7.730958">
        <ele>289.073353</ele>
        <time>2021-11-17T01:31:11.796Z</time>
      </trkpt>
      <trkpt lat="47.538887" lon="7.732454">
        <ele>288.412522</ele>
        <time>2021-11-17T01:31:31.054Z</time>
      </trkpt>
      <trkpt lat="47.539178" lon="7.733656">
        <ele>287.892678</ele>
        <time>2021-11-17T01:31:46.123Z</time>
      </trkpt>
      <trkpt lat="47.539263" lon="7.733885">
        <ele>287.791770</ele>
        <time>2021-11-17T01:31:49.242Z</time>
      </trkpt>
      <trkpt lat="47.539305" lon="7.734151">
        <ele>287.686287</ele>
        <time>2021-11-17T01:31:52.467Z</time>
      </trkpt>
      <trkpt lat="47.540032" lon="7.737141">
        <ele>287.337187</ele>
        <time>2021-11-17T01:32:32.895Z</time>
      </trkpt>
      <trkpt lat="47.540388" lon="7.739213">
        <ele>288.326359</ele>
        <time>2021-11-17T01:33:08.933Z</time>
      </trkpt>
      <trkpt lat="47.540394" lon="7.739259">
        <ele>288.362968</ele>
        <time>2021-11-17T01:33:10.602Z</time>
      </trkpt>
      <trkpt lat="47.540387" lon="7.739372">
        <ele>288.451637</ele>
        <time>2021-11-17T01:33:12.458Z</time>
      </trkpt>
      <trkpt lat="47.540372" lon="7.739490">
        <ele>288.545462</ele>
        <time>2021-11-17T01:33:14.282Z</time>
      </trkpt>
      <trkpt lat="47.540374" lon="7.739620">
        <ele>288.647070</ele>
        <time>2021-11-17T01:33:16.350Z</time>
      </trkpt>
      <trkpt lat="47.540438" lon="7.740453">
        <ele>289.302176</ele>
        <time>2021-11-17T01:33:30.848Z</time>
      </trkpt>
      <trkpt lat="47.540552" lon="7.742240">
        <ele>290.016013</ele>
        <time>2021-11-17T01:33:58.739Z</time>
      </trkpt>
      <trkpt lat="47.540589" lon="7.742558">
        <ele>290.086169</ele>
        <time>2021-11-17T01:34:03.274Z</time>
      </trkpt>
      <trkpt lat="47.540617" lon="7.742875">
        <ele>290.155676</ele>
        <time>2021-11-17T01:34:07.654Z</time>
      </trkpt>
      <trkpt lat="47.540738" lon="7.743641">
        <ele>290.326711</ele>
        <time>2021-11-17T01:34:18.175Z</time>
      </trkpt>
      <trkpt lat="47.540913" lon="7.744421">
        <ele>290.308879</ele>
        <time>2021-11-17T01:34:28.855Z</time>
      </trkpt>
      <trkpt lat="47.541019" lon="7.744859">
        <ele>290.296842</ele>
        <time>2021-11-17T01:34:35.019Z</time>
      </trkpt>
      <trkpt lat="47.541038" lon="7.744940">
        <ele>290.294624</ele>
        <time>2021-11-17T01:34:36.133Z</time>
      </trkpt>
      <trkpt lat="47.541130" lon="7.745083">
        <ele>290.289514</ele>
        <time>2021-11-17T01:34:39.212Z</time>
      </trkpt>
      <trkpt lat="47.541148" lon="7.745144">
        <ele>290.287791</ele>
        <time>2021-11-17T01:34:40.114Z</time>
      </trkpt>
      <trkpt lat="47.541160" lon="7.745250">
        <ele>290.285011</ele>
        <time>2021-11-17T01:34:41.518Z</time>
      </trkpt>
      <trkpt lat="47.541167" lon="7.745463">
        <ele>290.279494</ele>
        <time>2021-11-17T01:34:44.506Z</time>
      </trkpt>
      <trkpt lat="47.541432" lon="7.746552">
        <ele>290.247794</ele>
        <time>2021-11-17T01:35:00.281Z</time>
      </trkpt>
      <trkpt lat="47.541511" lon="7.746885">
        <ele>290.237246</ele>
        <time>2021-11-17T01:35:04.845Z</time>
      </trkpt>
      <trkpt lat="47.541583" lon="7.747186">
        <ele>290.227703</ele>
        <time>2021-11-17T01:35:09.100Z</time>
      </trkpt>
      <trkpt lat="47.541758" lon="7.747784">
        <ele>290.208226</ele>
        <time>2021-11-17T01:35:17.721Z</time>
      </trkpt>
      <trkpt lat="47.542132" lon="7.748742">
        <ele>290.156360</ele>
        <time>2021-11-17T01:35:33.211Z</time>
      </trkpt>
      <trkpt lat="47.542347" lon="7.749227">
        <ele>290.085357</ele>
        <time>2021-11-17T01:35:41.519Z</time>
      </trkpt>
      <trkpt lat="47.542390" lon="7.749307">
        <ele>290.072843</ele>
        <time>2021-11-17T01:35:42.785Z</time>
      </trkpt>
      <trkpt lat="47.542614" lon="7.749755">
        <ele>290.004620</ele>
        <time>2021-11-17T01:35:48.113Z</time>
      </trkpt>
      <trkpt lat="47.543033" lon="7.750614">
        <ele>289.874933</ele>
        <time>2021-11-17T01:35:57.816Z</time>
      </trkpt>
      <trkpt lat="47.543115" lon="7.750826">
        <ele>289.806575</ele>
        <time>2021-11-17T01:36:00.109Z</time>
      </trkpt>
      <trkpt lat="47.543222" lon="7.751091">
        <ele>289.625460</ele>
        <time>2021-11-17T01:36:03.929Z</time>
      </trkpt>
      <trkpt lat="47.543319" lon="7.751355">
        <ele>289.449164</ele>
        <time>2021-11-17T01:36:06.718Z</time>
      </trkpt>
      <trkpt lat="47.543439" lon="7.751784">
        <ele>289.176795</ele>
        <time>2021-11-17T01:36:10.850Z</time>
      </trkpt>
      <trkpt lat="47.543798" lon="7.753068">
        <ele>288.361649</ele>
        <time>2021-11-17T01:36:22.251Z</time>
      </trkpt>
      <trkpt lat="47.544022" lon="7.753705">
        <ele>287.449225</ele>
        <time>2021-11-17T01:36:27.939Z</time>
      </trkpt>
      <trkpt lat="47.545021" lon="7.756243">
        <ele>282.605676</ele>
        <time>2021-11-17T01:36:49.088Z</time>
      </trkpt>
      <trkpt lat="47.545260" lon="7.756637">
        <ele>281.427378</ele>
        <time>2021-11-17T01:36:52.580Z</time>
      </trkpt>
      <trkpt lat="47.545304" lon="7.756852">
        <ele>280.927639</ele>
        <time>2021-11-17T01:36:54.029Z</time>
      </trkpt>
      <trkpt lat="47.545326" lon="7.756949">
        <ele>280.700020</ele>
        <time>2021-11-17T01:36:55.039Z</time>
      </trkpt>
      <trkpt lat="47.545360" lon="7.757065">
        <ele>280.418716</ele>
        <time>2021-11-17T01:36:56.300Z</time>
      </trkpt>
      <trkpt lat="47.545429" lon="7.757231">
        <ele>279.985076</ele>
        <time>2021-11-17T01:36:57.540Z</time>
      </trkpt>
      <trkpt lat="47.545677" lon="7.757815">
        <ele>278.519388</ele>
        <time>2021-11-17T01:37:02.204Z</time>
      </trkpt>
      <trkpt lat="47.545911" lon="7.758393">
        <ele>277.624813</ele>
        <time>2021-11-17T01:37:06.827Z</time>
      </trkpt>
      <trkpt lat="47.546264" lon="7.759224">
        <ele>276.321609</ele>
        <time>2021-11-17T01:37:13.853Z</time>
      </trkpt>
      <trkpt lat="47.546312" lon="7.759326">
        <ele>276.156574</ele>
        <time>2021-11-17T01:37:14.847Z</time>
      </trkpt>
      <trkpt lat="47.546552" lon="7.759727">
        <ele>275.445247</ele>
        <time>2021-11-17T01:37:19.483Z</time>
      </trkpt>
      <trkpt lat="47.546804" lon="7.760164">
        <ele>275.286597</ele>
        <time>2021-11-17T01:37:25.021Z</time>
      </trkpt>
      <trkpt lat="47.546870" lon="7.760301">
        <ele>275.398643</ele>
        <time>2021-11-17T01:37:27.022Z</time>
      </trkpt>
      <trkpt lat="47.546948" lon="7.760482">
        <ele>275.541595</ele>
        <time>2021-11-17T01:37:29.472Z</time>
      </trkpt>
      <trkpt lat="47.546989" lon="7.760612">
        <ele>275.637116</ele>
        <time>2021-11-17T01:37:31.144Z</time>
      </trkpt>
      <trkpt lat="47.547194" lon="7.761352">
        <ele>276.169600</ele>
        <time>2021-11-17T01:37:41.694Z</time>
      </trkpt>
      <trkpt lat="47.547577" lon="7.762307">
        <ele>276.937995</ele>
        <time>2021-11-17T01:37:57.742Z</time>
      </trkpt>
      <trkpt lat="47.547726" lon="7.762607">
        <ele>277.328113</ele>
        <time>2021-11-17T01:38:03.229Z</time>
      </trkpt>
      <trkpt lat="47.547778" lon="7.762713">
        <ele>277.465363</ele>
        <time>2021-11-17T01:38:05.297Z</time>
      </trkpt>
      <trkpt lat="47.547848" lon="7.762928">
        <ele>277.715382</ele>
        <time>2021-11-17T01:38:08.799Z</time>
      </trkpt>
      <trkpt lat="47.547909" lon="7.763208">
        <ele>278.023550</ele>
        <time>2021-11-17T01:38:13.510Z</time>
      </trkpt>
      <trkpt lat="47.548565" lon="7.765680">
        <ele>279.835963</ele>
        <time>2021-11-17T01:38:50.096Z</time>
      </trkpt>
      <trkpt lat="47.548990" lon="7.767248">
        <ele>279.997483</ele>
        <time>2021-11-17T01:39:05.453Z</time>
      </trkpt>
      <trkpt lat="47.549184" lon="7.768021">
        <ele>279.343230</ele>
        <time>2021-11-17T01:39:11.837Z</time>
      </trkpt>
      <trkpt lat="47.549363" lon="7.768846">
        <ele>278.655762</ele>
        <time>2021-11-17T01:39:18.500Z</time>
      </trkpt>
      <trkpt lat="47.549678" lon="7.770148">
        <ele>277.783765</ele>
        <time>2021-11-17T01:39:30.083Z</time>
      </trkpt>
      <trkpt lat="47.549714" lon="7.770276">
        <ele>277.731804</ele>
        <time>2021-11-17T01:39:31.211Z</time>
      </trkpt>
      <trkpt lat="47.549845" lon="7.770734">
        <ele>277.545410</ele>
        <time>2021-11-17T01:39:35.589Z</time>
      </trkpt>
      <trkpt lat="47.550069" lon="7.771373">
        <ele>277.275601</ele>
        <time>2021-11-17T01:39:42.038Z</time>
      </trkpt>
      <trkpt lat="47.550199" lon="7.772076">
        <ele>277.002471</ele>
        <time>2021-11-17T01:39:48.876Z</time>
      </trkpt>
      <trkpt lat="47.550203" lon="7.772543">
        <ele>276.856954</ele>
        <time>2021-11-17T01:39:53.264Z</time>
      </trkpt>
      <trkpt lat="47.550061" lon="7.773283">
        <ele>276.622017</ele>
        <time>2021-11-17T01:40:00.513Z</time>
      </trkpt>
      <trkpt lat="47.550090" lon="7.773646">
        <ele>276.510390</ele>
        <time>2021-11-17T01:40:03.792Z</time>
      </trkpt>
      <trkpt lat="47.550320" lon="7.774602">
        <ele>276.200455</ele>
        <time>2021-11-17T01:40:12.668Z</time>
      </trkpt>
      <trkpt lat="47.550505" lon="7.775364">
        <ele>276.040261</ele>
        <time>2021-11-17T01:40:19.730Z</time>
      </trkpt>
      <trkpt lat="47.550598" lon="7.775828">
        <ele>275.951003</ele>
        <time>2021-11-17T01:40:24.048Z</time>
      </trkpt>
      <trkpt lat="47.550607" lon="7.775871">
        <ele>275.942701</ele>
        <time>2021-11-17T01:40:24.471Z</time>
      </trkpt>
      <trkpt lat="47.550782" lon="7.776690">
        <ele>275.784284</ele>
        <time>2021-11-17T01:40:32.447Z</time>
      </trkpt>
      <trkpt lat="47.550963" lon="7.777797">
        <ele>275.854408</ele>
        <time>2021-11-17T01:40:44.533Z</time>
      </trkpt>
      <trkpt lat="47.550982" lon="7.777915">
        <ele>275.890410</ele>
        <time>2021-11-17T01:40:46.067Z</time>
      </trkpt>
      <trkpt lat="47.551085" lon="7.779125">
        <ele>276.252348</ele>
        <time>2021-11-17T01:41:00.506Z</time>
      </trkpt>
      <trkpt lat="47.551208" lon="7.780694">
        <ele>276.614832</ele>
        <time>2021-11-17T01:41:17.920Z</time>
      </trkpt>
      <trkpt lat="47.551270" lon="7.781390">
        <ele>276.734115</ele>
        <time>2021-11-17T01:41:25.353Z</time>
      </trkpt>
      <trkpt lat="47.551198" lon="7.781475">
        <ele>276.757291</ele>
        <time>2021-11-17T01:41:27.309Z</time>
      </trkpt>
      <trkpt lat="47.551230" lon="7.781831">
        <ele>276.818313</ele>
        <time>2021-11-17T01:41:31.009Z</time>
      </trkpt>
      <trkpt lat="47.551302" lon="7.782671">
        <ele>277.014601</ele>
        <time>2021-11-17T01:41:39.616Z</time>
      </trkpt>
      <trkpt lat="47.551326" lon="7.782964">
        <ele>277.135986</ele>
        <time>2021-11-17T01:41:42.569Z</time>
      </trkpt>
      <trkpt lat="47.551439" lon="7.784323">
        <ele>277.699123</ele>
        <time>2021-11-17T01:41:58.365Z</time>
      </trkpt>
      <trkpt lat="47.551437" lon="7.784657">
        <ele>277.836491</ele>
        <time>2021-11-17T01:42:02.735Z</time>
      </trkpt>
      <trkpt lat="47.551410" lon="7.784675">
        <ele>277.854532</ele>
        <time>2021-11-17T01:42:03.274Z</time>
      </trkpt>
      <trkpt lat="47.551373" lon="7.784740">
        <ele>277.889503</ele>
        <time>2021-11-17T01:42:04.262Z</time>
      </trkpt>
      <trkpt lat="47.551366" lon="7.784786">
        <ele>277.908896</ele>
        <time>2021-11-17T01:42:04.754Z</time>
      </trkpt>
      <trkpt lat="47.551371" lon="7.784835">
        <ele>277.929277</ele>
        <time>2021-11-17T01:42:05.370Z</time>
      </trkpt>
      <trkpt lat="47.551420" lon="7.784918">
        <ele>277.974628</ele>
        <time>2021-11-17T01:42:06.726Z</time>
      </trkpt>
      <trkpt lat="47.551452" lon="7.784931">
        <ele>277.994847</ele>
        <time>2021-11-17T01:42:07.356Z</time>
      </trkpt>
      <trkpt lat="47.551479" lon="7.784929">
        <ele>278.011320</ele>
        <time>2021-11-17T01:42:07.872Z</time>
      </trkpt>
      <trkpt lat="47.551498" lon="7.785081">
        <ele>278.120586</ele>
        <time>2021-11-17T01:42:10.038Z</time>
      </trkpt>
      <trkpt lat="47.551672" lon="7.787603">
        <ele>280.051671</ele>
        <time>2021-11-17T01:42:43.624Z</time>
      </trkpt>
      <trkpt lat="47.551690" lon="7.787827">
        <ele>280.172963</ele>
        <time>2021-11-17T01:42:46.471Z</time>
      </trkpt>
      <trkpt lat="47.551694" lon="7.787879">
        <ele>280.201103</ele>
        <time>2021-11-17T01:42:47.149Z</time>
      </trkpt>
      <trkpt lat="47.551712" lon="7.788013">
        <ele>280.274566</ele>
        <time>2021-11-17T01:42:48.953Z</time>
      </trkpt>
      <trkpt lat="47.551858" lon="7.788906">
        <ele>280.768602</ele>
        <time>2021-11-17T01:43:00.224Z</time>
      </trkpt>
      <trkpt lat="47.552036" lon="7.789826">
        <ele>281.283192</ele>
        <time>2021-11-17T01:43:11.480Z</time>
      </trkpt>
      <trkpt lat="47.552135" lon="7.790302">
        <ele>281.534699</ele>
        <time>2021-11-17T01:43:17.245Z</time>
      </trkpt>
      <trkpt lat="47.552201" lon="7.791031">
        <ele>281.833548</ele>
        <time>2021-11-17T01:43:25.850Z</time>
      </trkpt>
      <trkpt lat="47.552182" lon="7.792040">
        <ele>282.243669</ele>
        <time>2021-11-17T01:43:38.302Z</time>
      </trkpt>
      <trkpt lat="47.552180" lon="7.792294">
        <ele>282.346877</ele>
        <time>2021-11-17T01:43:41.375Z</time>
      </trkpt>
      <trkpt lat="47.552184" lon="7.792540">
        <ele>282.446857</ele>
        <time>2021-11-17T01:43:43.797Z</time>
      </trkpt>
      <trkpt lat="47.552198" lon="7.792976">
        <ele>282.662726</ele>
        <time>2021-11-17T01:43:48.106Z</time>
      </trkpt>
      <trkpt lat="47.552216" lon="7.793160">
        <ele>282.789192</ele>
        <time>2021-11-17T01:43:50.156Z</time>
      </trkpt>
      <trkpt lat="47.552233" lon="7.793294">
        <ele>282.881937</ele>
        <time>2021-11-17T01:43:51.876Z</time>
      </trkpt>
      <trkpt lat="47.552292" lon="7.793607">
        <ele>283.102990</ele>
        <time>2021-11-17T01:43:54.906Z</time>
      </trkpt>
      <trkpt lat="47.552369" lon="7.793872">
        <ele>283.299240</ele>
        <time>2021-11-17T01:43:58.646Z</time>
      </trkpt>
      <trkpt lat="47.552384" lon="7.793915">
        <ele>283.332164</ele>
        <time>2021-11-17T01:43:59.008Z</time>
      </trkpt>
      <trkpt lat="47.552494" lon="7.794200">
        <ele>283.555484</ele>
        <time>2021-11-17T01:44:03.185Z</time>
      </trkpt>
      <trkpt lat="47.552532" lon="7.794285">
        <ele>283.624835</ele>
        <time>2021-11-17T01:44:04.585Z</time>
      </trkpt>
      <trkpt lat="47.552644" lon="7.794507">
        <ele>283.813366</ele>
        <time>2021-11-17T01:44:08.285Z</time>
      </trkpt>
      <trkpt lat="47.552763" lon="7.794750">
        <ele>284.017583</ele>
        <time>2021-11-17T01:44:12.855Z</time>
      </trkpt>
      <trkpt lat="47.552786" lon="7.794796">
        <ele>284.056523</ele>
        <time>2021-11-17T01:44:13.375Z</time>
      </trkpt>
      <trkpt lat="47.552826" lon="7.794894">
        <ele>284.134425</ele>
        <time>2021-11-17T01:44:15.160Z</time>
      </trkpt>
      <trkpt lat="47.552837" lon="7.794925">
        <ele>284.158248</ele>
        <time>2021-11-17T01:44:15.687Z</time>
      </trkpt>
      <trkpt lat="47.552861" lon="7.794992">
        <ele>284.209842</ele>
        <time>2021-11-17T01:44:16.821Z</time>
      </trkpt>
      <trkpt lat="47.552892" lon="7.795106">
        <ele>284.293443</ele>
        <time>2021-11-17T01:44:18.899Z</time>
      </trkpt>
      <trkpt lat="47.552909" lon="7.795229">
        <ele>284.378844</ele>
        <time>2021-11-17T01:44:20.881Z</time>
      </trkpt>
      <trkpt lat="47.552917" lon="7.795354">
        <ele>284.646586</ele>
        <time>2021-11-17T01:44:22.497Z</time>
      </trkpt>
      <trkpt lat="47.552930" lon="7.795600">
        <ele>285.176855</ele>
        <time>2021-11-17T01:44:26.104Z</time>
      </trkpt>
      <trkpt lat="47.552930" lon="7.795600">
        <ele>285.176855</ele>
        <time>2021-11-17T01:44:26.107Z</time>
      </trkpt>
      <trkpt lat="47.552930" lon="7.795600">
        <ele>285.176855</ele>
        <time>2021-11-17T01:44:26.153Z</time>
      </trkpt>
      <trkpt lat="47.552886" lon="7.795976">
        <ele>285.996930</ele>
        <time>2021-11-17T01:44:31.693Z</time>
      </trkpt>
      <trkpt lat="47.552817" lon="7.796239">
        <ele>286.603315</ele>
        <time>2021-11-17T01:44:36.613Z</time>
      </trkpt>
      <trkpt lat="47.552762" lon="7.796425">
        <ele>287.039708</ele>
        <time>2021-11-17T01:44:40.136Z</time>
      </trkpt>
      <trkpt lat="47.552493" lon="7.797048">
        <ele>288.629076</ele>
        <time>2021-11-17T01:44:54.772Z</time>
      </trkpt>
      <trkpt lat="47.552152" lon="7.797876">
        <ele>290.777542</ele>
        <time>2021-11-17T01:45:16.834Z</time>
      </trkpt>
      <trkpt lat="47.552084" lon="7.798083">
        <ele>291.324453</ele>
        <time>2021-11-17T01:45:22.374Z</time>
      </trkpt>
      <trkpt lat="47.551948" lon="7.798607">
        <ele>292.658152</ele>
        <time>2021-11-17T01:45:34.122Z</time>
      </trkpt>
      <trkpt lat="47.551805" lon="7.799326">
        <ele>294.438852</ele>
        <time>2021-11-17T01:45:48.039Z</time>
      </trkpt>
      <trkpt lat="47.551793" lon="7.799434">
        <ele>294.698874</ele>
        <time>2021-11-17T01:45:50.322Z</time>
      </trkpt>
      <trkpt lat="47.551754" lon="7.799766">
        <ele>295.499443</ele>
        <time>2021-11-17T01:45:56.661Z</time>
      </trkpt>
      <trkpt lat="47.551712" lon="7.800249">
        <ele>296.518961</ele>
        <time>2021-11-17T01:46:05.575Z</time>
      </trkpt>
      <trkpt lat="47.551704" lon="7.800451">
        <ele>296.697372</ele>
        <time>2021-11-17T01:46:08.788Z</time>
      </trkpt>
      <trkpt lat="47.551696" lon="7.800632">
        <ele>296.857303</ele>
        <time>2021-11-17T01:46:10.722Z</time>
      </trkpt>
      <trkpt lat="47.551672" lon="7.801147">
        <ele>297.312464</ele>
        <time>2021-11-17T01:46:17.770Z</time>
      </trkpt>
      <trkpt lat="47.551669" lon="7.801438">
        <ele>297.569071</ele>
        <time>2021-11-17T01:46:22.379Z</time>
      </trkpt>
      <trkpt lat="47.551666" lon="7.801632">
        <ele>297.740167</ele>
        <time>2021-11-17T01:46:24.373Z</time>
      </trkpt>
      <trkpt lat="47.551669" lon="7.801853">
        <ele>297.935064</ele>
        <time>2021-11-17T01:46:27.634Z</time>
      </trkpt>
      <trkpt lat="47.551671" lon="7.802077">
        <ele>298.132584</ele>
        <time>2021-11-17T01:46:29.970Z</time>
      </trkpt>
      <trkpt lat="47.551679" lon="7.802228">
        <ele>298.266131</ele>
        <time>2021-11-17T01:46:31.081Z</time>
      </trkpt>
      <trkpt lat="47.551688" lon="7.802394">
        <ele>298.412966</ele>
        <time>2021-11-17T01:46:34.060Z</time>
      </trkpt>
      <trkpt lat="47.551700" lon="7.802648">
        <ele>298.637468</ele>
        <time>2021-11-17T01:46:36.345Z</time>
      </trkpt>
      <trkpt lat="47.551732" lon="7.803125">
        <ele>298.986264</ele>
        <time>2021-11-17T01:46:42.515Z</time>
      </trkpt>
      <trkpt lat="47.551744" lon="7.803277">
        <ele>299.084633</ele>
        <time>2021-11-17T01:46:43.730Z</time>
      </trkpt>
      <trkpt lat="47.551751" lon="7.803369">
        <ele>299.144144</ele>
        <time>2021-11-17T01:46:45.404Z</time>
      </trkpt>
      <trkpt lat="47.551692" lon="7.803510">
        <ele>299.250782</ele>
        <time>2021-11-17T01:46:48.991Z</time>
      </trkpt>
      <trkpt lat="47.551741" lon="7.804294">
        <ele>299.756881</ele>
        <time>2021-11-17T01:47:01.589Z</time>
      </trkpt>
      <trkpt lat="47.551744" lon="7.804473">
        <ele>299.871974</ele>
        <time>2021-11-17T01:47:04.624Z</time>
      </trkpt>
      <trkpt lat="47.551731" lon="7.804667">
        <ele>299.997288</ele>
        <time>2021-11-17T01:47:08.725Z</time>
      </trkpt>
      <trkpt lat="47.551709" lon="7.805000">
        <ele>300.212358</ele>
        <time>2021-11-17T01:47:13.265Z</time>
      </trkpt>
      <trkpt lat="47.551681" lon="7.805477">
        <ele>300.505448</ele>
        <time>2021-11-17T01:47:21.011Z</time>
      </trkpt>
      <trkpt lat="47.551671" lon="7.806117">
        <ele>300.608106</ele>
        <time>2021-11-17T01:47:31.100Z</time>
      </trkpt>
      <trkpt lat="47.551651" lon="7.806246">
        <ele>300.629331</ele>
        <time>2021-11-17T01:47:34.003Z</time>
      </trkpt>
      <trkpt lat="47.551895" lon="7.806278">
        <ele>300.687531</ele>
        <time>2021-11-17T01:47:37.529Z</time>
      </trkpt>
      <trkpt lat="47.552015" lon="7.806307">
        <ele>300.716419</ele>
        <time>2021-11-17T01:47:40.399Z</time>
      </trkpt>
      <trkpt lat="47.552068" lon="7.806445">
        <ele>300.741881</ele>
        <time>2021-11-17T01:47:41.856Z</time>
      </trkpt>
      <trkpt lat="47.552398" lon="7.808880">
        <ele>300.378194</ele>
        <time>2021-11-17T01:48:03.999Z</time>
      </trkpt>
      <trkpt lat="47.552566" lon="7.810386">
        <ele>299.739066</ele>
        <time>2021-11-17T01:48:17.010Z</time>
      </trkpt>
      <trkpt lat="47.552711" lon="7.812955">
        <ele>298.599221</ele>
        <time>2021-11-17T01:48:39.619Z</time>
      </trkpt>
      <trkpt lat="47.552844" lon="7.816432">
        <ele>297.474801</ele>
        <time>2021-11-17T01:49:10.111Z</time>
      </trkpt>
      <trkpt lat="47.552948" lon="7.819358">
        <ele>297.831255</ele>
        <time>2021-11-17T01:49:41.342Z</time>
      </trkpt>
      <trkpt lat="47.552896" lon="7.820699">
        <ele>298.321888</ele>
        <time>2021-11-17T01:49:57.425Z</time>
      </trkpt>
      <trkpt lat="47.552567" lon="7.824508">
        <ele>300.227220</ele>
        <time>2021-11-17T01:50:43.910Z</time>
      </trkpt>
      <trkpt lat="47.552491" lon="7.827227">
        <ele>301.790329</ele>
        <time>2021-11-17T01:51:15.650Z</time>
      </trkpt>
      <trkpt lat="47.552515" lon="7.828094">
        <ele>302.447258</ele>
        <time>2021-11-17T01:51:27.360Z</time>
      </trkpt>
      <trkpt lat="47.552477" lon="7.828294">
        <ele>302.604557</ele>
        <time>2021-11-17T01:51:29.977Z</time>
      </trkpt>
      <trkpt lat="47.552421" lon="7.828481">
        <ele>302.759439</ele>
        <time>2021-11-17T01:51:32.908Z</time>
      </trkpt>
      <trkpt lat="47.552404" lon="7.828582">
        <ele>302.838245</ele>
        <time>2021-11-17T01:51:34.593Z</time>
      </trkpt>
      <trkpt lat="47.552416" lon="7.828822">
        <ele>303.064222</ele>
        <time>2021-11-17T01:51:37.827Z</time>
      </trkpt>
      <trkpt lat="47.552554" lon="7.829266">
        <ele>303.863138</ele>
        <time>2021-11-17T01:51:45.178Z</time>
      </trkpt>
      <trkpt lat="47.552645" lon="7.830686">
        <ele>306.194389</ele>
        <time>2021-11-17T01:52:08.484Z</time>
      </trkpt>
      <trkpt lat="47.552690" lon="7.832598">
        <ele>309.779066</ele>
        <time>2021-11-17T01:52:43.961Z</time>
      </trkpt>
      <trkpt lat="47.552616" lon="7.832891">
        <ele>310.408427</ele>
        <time>2021-11-17T01:52:49.325Z</time>
      </trkpt>
      <trkpt lat="47.552556" lon="7.832977">
        <ele>310.657260</ele>
        <time>2021-11-17T01:52:52.056Z</time>
      </trkpt>
      <trkpt lat="47.552511" lon="7.833072">
        <ele>310.890750</ele>
        <time>2021-11-17T01:52:54.082Z</time>
      </trkpt>
      <trkpt lat="47.552467" lon="7.833198">
        <ele>311.176150</ele>
        <time>2021-11-17T01:52:56.484Z</time>
      </trkpt>
      <trkpt lat="47.552452" lon="7.833284">
        <ele>311.354845</ele>
        <time>2021-11-17T01:52:58.095Z</time>
      </trkpt>
      <trkpt lat="47.552696" lon="7.833789">
        <ele>312.604281</ele>
        <time>2021-11-17T01:53:09.126Z</time>
      </trkpt>
      <trkpt lat="47.552700" lon="7.833938">
        <ele>312.843347</ele>
        <time>2021-11-17T01:53:12.070Z</time>
      </trkpt>
      <trkpt lat="47.552714" lon="7.835010">
        <ele>314.358374</ele>
        <time>2021-11-17T01:53:30.547Z</time>
      </trkpt>
      <trkpt lat="47.552719" lon="7.836790">
        <ele>316.753814</ele>
        <time>2021-11-17T01:53:55.831Z</time>
      </trkpt>
      <trkpt lat="47.552697" lon="7.838068">
        <ele>318.030494</ele>
        <time>2021-11-17T01:54:13.473Z</time>
      </trkpt>
      <trkpt lat="47.552736" lon="7.838578">
        <ele>318.543060</ele>
        <time>2021-11-17T01:54:20.600Z</time>
      </trkpt>
      <trkpt lat="47.552802" lon="7.839009">
        <ele>318.984414</ele>
        <time>2021-11-17T01:54:26.819Z</time>
      </trkpt>
      <trkpt lat="47.552939" lon="7.839526">
        <ele>319.578404</ele>
        <time>2021-11-17T01:54:34.609Z</time>
      </trkpt>
      <trkpt lat="47.553231" lon="7.841529">
        <ele>321.819909</ele>
        <time>2021-11-17T01:55:04.741Z</time>
      </trkpt>
      <trkpt lat="47.553216" lon="7.841849">
        <ele>322.125396</ele>
        <time>2021-11-17T01:55:09.263Z</time>
      </trkpt>
      <trkpt lat="47.553123" lon="7.842222">
        <ele>322.407344</ele>
        <time>2021-11-17T01:55:14.494Z</time>
      </trkpt>
      <trkpt lat="47.553133" lon="7.842431">
        <ele>322.555908</ele>
        <time>2021-11-17T01:55:17.623Z</time>
      </trkpt>
      <trkpt lat="47.552833" lon="7.842495">
        <ele>322.874337</ele>
        <time>2021-11-17T01:55:24.931Z</time>
      </trkpt>
      <trkpt lat="47.552706" lon="7.842522">
        <ele>323.009130</ele>
        <time>2021-11-17T01:55:28.083Z</time>
      </trkpt>
      <trkpt lat="47.552380" lon="7.842592">
        <ele>323.355202</ele>
        <time>2021-11-17T01:55:35.981Z</time>
      </trkpt>
      <trkpt lat="47.551922" lon="7.842704">
        <ele>323.842886</ele>
        <time>2021-11-17T01:55:46.547Z</time>
      </trkpt>
      <trkpt lat="47.551668" lon="7.842770">
        <ele>324.081945</ele>
        <time>2021-11-17T01:55:52.506Z</time>
      </trkpt>
      <trkpt lat="47.551454" lon="7.842815">
        <ele>324.269355</ele>
        <time>2021-11-17T01:55:57.192Z</time>
      </trkpt>
      <trkpt lat="47.551344" lon="7.844621">
        <ele>325.330527</ele>
        <time>2021-11-17T01:56:19.705Z</time>
      </trkpt>
      <trkpt lat="47.551205" lon="7.846694">
        <ele>327.185469</ele>
        <time>2021-11-17T01:56:47.692Z</time>
      </trkpt>
      <trkpt lat="47.551184" lon="7.847206">
        <ele>327.665932</ele>
        <time>2021-11-17T01:56:55.078Z</time>
      </trkpt>
      <trkpt lat="47.551196" lon="7.847517">
        <ele>327.957714</ele>
        <time>2021-11-17T01:56:59.642Z</time>
      </trkpt>
      <trkpt lat="47.551669" lon="7.848083">
        <ele>328.887557</ele>
        <time>2021-11-17T01:57:12.728Z</time>
      </trkpt>
      <trkpt lat="47.551242" lon="7.848702">
        <ele>329.804224</ele>
        <time>2021-11-17T01:57:25.311Z</time>
      </trkpt>
      <trkpt lat="47.550975" lon="7.849066">
        <ele>330.360974</ele>
        <time>2021-11-17T01:57:32.639Z</time>
      </trkpt>
      <trkpt lat="47.550810" lon="7.849346">
        <ele>330.745936</ele>
        <time>2021-11-17T01:57:39.030Z</time>
      </trkpt>
      <trkpt lat="47.550488" lon="7.850081">
        <ele>331.358804</ele>
        <time>2021-11-17T01:57:54.501Z</time>
      </trkpt>
      <trkpt lat="47.550333" lon="7.850434">
        <ele>331.653169</ele>
        <time>2021-11-17T01:58:01.830Z</time>
      </trkpt>
      <trkpt lat="47.550121" lon="7.850919">
        <ele>332.057068</ele>
        <time>2021-11-17T01:58:11.663Z</time>
      </trkpt>
      <trkpt lat="47.550009" lon="7.851173">
        <ele>332.269144</ele>
        <time>2021-11-17T01:58:16.421Z</time>
      </trkpt>
      <trkpt lat="47.549652" lon="7.851969">
        <ele>332.557650</ele>
        <time>2021-11-17T01:58:30.300Z</time>
      </trkpt>
      <trkpt lat="47.549535" lon="7.852225">
        <ele>332.523213</ele>
        <time>2021-11-17T01:58:34.360Z</time>
      </trkpt>
      <trkpt lat="47.549285" lon="7.852784">
        <ele>332.448520</ele>
        <time>2021-11-17T01:58:42.989Z</time>
      </trkpt>
      <trkpt lat="47.549708" lon="7.853279">
        <ele>332.359564</ele>
        <time>2021-11-17T01:58:53.381Z</time>
      </trkpt>
      <trkpt lat="47.550221" lon="7.853833">
        <ele>332.116689</ele>
        <time>2021-11-17T01:59:05.303Z</time>
      </trkpt>
      <trkpt lat="47.549883" lon="7.854434">
        <ele>331.822724</ele>
        <time>2021-11-17T01:59:11.981Z</time>
      </trkpt>
      <trkpt lat="47.549566" lon="7.855225">
        <ele>331.477039</ele>
        <time>2021-11-17T01:59:23.125Z</time>
      </trkpt>
      <trkpt lat="47.549362" lon="7.855774">
        <ele>331.296548</ele>
        <time>2021-11-17T01:59:31.047Z</time>
      </trkpt>
      <trkpt lat="47.548887" lon="7.857308">
        <ele>331.160265</ele>
        <time>2021-11-17T01:59:53.155Z</time>
      </trkpt>
      <trkpt lat="47.548743" lon="7.857692">
        <ele>331.124793</ele>
        <time>2021-11-17T01:59:59.126Z</time>
      </trkpt>
      <trkpt lat="47.548701" lon="7.857893">
        <ele>331.107802</ele>
        <time>2021-11-17T02:00:02.098Z</time>
      </trkpt>
      <trkpt lat="47.548686" lon="7.857973">
        <ele>331.101097</ele>
        <time>2021-11-17T02:00:03.221Z</time>
      </trkpt>
      <trkpt lat="47.548611" lon="7.858381">
        <ele>331.306274</ele>
        <time>2021-11-17T02:00:09.435Z</time>
      </trkpt>
      <trkpt lat="47.548334" lon="7.859801">
        <ele>332.156230</ele>
        <time>2021-11-17T02:00:32.473Z</time>
      </trkpt>
      <trkpt lat="47.548049" lon="7.860929">
        <ele>333.069461</ele>
        <time>2021-11-17T02:00:53.491Z</time>
      </trkpt>
      <trkpt lat="47.547930" lon="7.861711">
        <ele>333.992582</ele>
        <time>2021-11-17T02:01:08.255Z</time>
      </trkpt>
      <trkpt lat="47.547568" lon="7.863151">
        <ele>335.717467</ele>
        <time>2021-11-17T02:01:37.382Z</time>
      </trkpt>
      <trkpt lat="47.547320" lon="7.863864">
        <ele>336.004094</ele>
        <time>2021-11-17T02:01:51.323Z</time>
      </trkpt>
      <trkpt lat="47.546974" lon="7.864423">
        <ele>336.275124</ele>
        <time>2021-11-17T02:02:02.146Z</time>
      </trkpt>
      <trkpt lat="47.546885" lon="7.864500">
        <ele>336.329688</ele>
        <time>2021-11-17T02:02:05.231Z</time>
      </trkpt>
      <trkpt lat="47.546894" lon="7.864837">
        <ele>336.450209</ele>
        <time>2021-11-17T02:02:09.115Z</time>
      </trkpt>
      <trkpt lat="47.546889" lon="7.865225">
        <ele>336.588886</ele>
        <time>2021-11-17T02:02:14.540Z</time>
      </trkpt>
      <trkpt lat="47.546819" lon="7.865489">
        <ele>336.582060</ele>
        <time>2021-11-17T02:02:18.484Z</time>
      </trkpt>
      <trkpt lat="47.546510" lon="7.865766">
        <ele>336.264159</ele>
        <time>2021-11-17T02:02:25.118Z</time>
      </trkpt>
      <trkpt lat="47.546327" lon="7.865959">
        <ele>336.066435</ele>
        <time>2021-11-17T02:02:28.633Z</time>
      </trkpt>
      <trkpt lat="47.546096" lon="7.866147">
        <ele>335.834446</ele>
        <time>2021-11-17T02:02:33.189Z</time>
      </trkpt>
      <trkpt lat="47.545240" lon="7.866887">
        <ele>335.159414</ele>
        <time>2021-11-17T02:02:49.863Z</time>
      </trkpt>
      <trkpt lat="47.545160" lon="7.866985">
        <ele>335.240841</ele>
        <time>2021-11-17T02:02:51.819Z</time>
      </trkpt>
      <trkpt lat="47.545003" lon="7.867278">
        <ele>335.438917</ele>
        <time>2021-11-17T02:02:57.487Z</time>
      </trkpt>
      <trkpt lat="47.544568" lon="7.867693">
        <ele>335.844764</ele>
        <time>2021-11-17T02:03:10.278Z</time>
      </trkpt>
      <trkpt lat="47.544469" lon="7.867776">
        <ele>335.933993</ele>
        <time>2021-11-17T02:03:13.140Z</time>
      </trkpt>
      <trkpt lat="47.544410" lon="7.867825">
        <ele>335.987049</ele>
        <time>2021-11-17T02:03:15.228Z</time>
      </trkpt>
      <trkpt lat="47.544246" lon="7.867967">
        <ele>336.136052</ele>
        <time>2021-11-17T02:03:19.912Z</time>
      </trkpt>
      <trkpt lat="47.544214" lon="7.867988">
        <ele>336.163506</ele>
        <time>2021-11-17T02:03:20.760Z</time>
      </trkpt>
      <trkpt lat="47.543801" lon="7.868269">
        <ele>336.477293</ele>
        <time>2021-11-17T02:03:32.350Z</time>
      </trkpt>
      <trkpt lat="47.543657" lon="7.868359">
        <ele>336.477293</ele>
        <time>2021-11-17T02:03:36.713Z</time>
      </trkpt>
      <trkpt lat="47.543201" lon="7.868657">
        <ele>336.477293</ele>
        <time>2021-11-17T02:03:47.148Z</time>
      </trkpt>
      <trkpt lat="47.543105" lon="7.868711">
        <ele>336.477293</ele>
        <time>2021-11-17T02:03:49.785Z</time>
      </trkpt>
      <trkpt lat="47.543049" lon="7.868759">
        <ele>336.477293</ele>
        <time>2021-11-17T02:03:51.169Z</time>
      </trkpt>
      <trkpt lat="47.542722" lon="7.869201">
        <ele>336.477293</ele>
        <time>2021-11-17T02:04:00.773Z</time>
      </trkpt>
      <trkpt lat="47.542696" lon="7.869257">
        <ele>336.477293</ele>
        <time>2021-11-17T02:04:01.518Z</time>
      </trkpt>
      <trkpt lat="47.542657" lon="7.869354">
        <ele>336.477293</ele>
        <time>2021-11-17T02:04:02.926Z</time>
      </trkpt>
      <trkpt lat="47.542630" lon="7.869390">
        <ele>336.477293</ele>
        <time>2021-11-17T02:04:03.734Z</time>
      </trkpt>
      <trkpt lat="47.542556" lon="7.869492">
        <ele>336.477293</ele>
        <time>2021-11-17T02:04:05.765Z</time>
      </trkpt>
    </trkseg>
  </trk>
</gpx>